Time,TemperatureF,DewpointF,PressureIn,WindDirection,WindDirectionDegrees,WindSpeedMPH,WindSpeedGustMPH,Humidity,HourlyPrecipIn,Conditions,Clouds,dailyrainin,SoftwareType,DateUTC
2013-03-11 00:00:00,34.5,34.0,29.03,ENE,68,7.8,9.8,98,0.04,,,0.00,VWS V14.01,2013-03-11 04:00:00,
2013-03-11 00:01:00,34.5,34.0,29.03,NE,45,10.1,10.1,98,0.04,,,0.00,VWS V14.01,2013-03-11 04:01:00,
2013-03-11 00:02:00,34.5,34.0,29.03,ENE,68,8.1,10.1,98,0.04,,,0.00,VWS V14.01,2013-03-11 04:02:00,
2013-03-11 00:03:00,34.5,34.0,29.03,ENE,68,10.7,10.7,98,0.04,,,0.00,VWS V14.01,2013-03-11 04:03:00,
2013-03-11 00:04:00,34.5,34.0,29.03,ENE,68,7.6,10.7,98,0.04,,,0.00,VWS V14.01,2013-03-11 04:04:00,
2013-03-11 00:05:00,34.5,34.0,29.03,ENE,68,7.8,9.0,98,0.04,,,0.00,VWS V14.01,2013-03-11 04:05:00,
2013-03-11 00:06:00,34.5,34.0,29.03,ENE,68,7.8,7.8,98,0.04,,,0.00,VWS V14.01,2013-03-11 04:06:00,
2013-03-11 00:07:00,34.5,34.0,29.03,East,90,5.8,8.7,98,0.04,,,0.00,VWS V14.01,2013-03-11 04:07:00,
2013-03-11 00:08:00,34.5,34.0,29.03,ENE,68,7.6,7.6,98,0.04,,,0.00,VWS V14.01,2013-03-11 04:08:00,
2013-03-11 00:09:00,34.5,34.0,29.03,ENE,68,8.1,8.1,98,0.04,,,0.00,VWS V14.01,2013-03-11 04:09:00,
2013-03-11 00:10:00,34.5,34.0,29.03,ENE,68,5.4,8.1,98,0.04,,,0.00,VWS V14.01,2013-03-11 04:10:00,
2013-03-11 00:11:00,34.5,34.0,29.03,ENE,68,6.0,8.7,98,0.04,,,0.00,VWS V14.01,2013-03-11 04:11:00,
2013-03-11 00:12:00,34.5,34.0,29.03,ENE,68,6.3,6.9,98,0.04,,,0.00,VWS V14.01,2013-03-11 04:12:00,
2013-03-11 00:13:00,34.5,34.0,29.03,NE,45,6.3,6.9,98,0.04,,,0.00,VWS V14.01,2013-03-11 04:13:00,
2013-03-11 00:14:00,34.5,34.0,29.03,NE,45,5.6,6.3,98,0.04,,,0.00,VWS V14.01,2013-03-11 04:14:00,
2013-03-11 00:15:00,34.5,34.0,29.03,NE,45,5.8,6.5,98,0.04,,,0.00,VWS V14.01,2013-03-11 04:15:00,
2013-03-11 00:16:00,34.5,34.0,29.03,NE,45,7.4,7.8,98,0.04,,,0.00,VWS V14.01,2013-03-11 04:16:00,
2013-03-11 00:17:00,34.5,34.0,29.03,ESE,112,8.5,8.5,98,0.04,,,0.00,VWS V14.01,2013-03-11 04:17:00,
2013-03-11 00:18:00,34.5,34.0,29.03,ENE,68,5.8,9.0,98,0.08,,,0.04,VWS V14.01,2013-03-11 04:18:00,
2013-03-11 00:19:00,34.5,34.0,29.03,ENE,68,9.8,10.1,98,0.08,,,0.04,VWS V14.01,2013-03-11 04:19:00,
2013-03-11 00:20:00,34.5,34.0,29.03,NE,45,6.3,9.8,98,0.08,,,0.04,VWS V14.01,2013-03-11 04:20:00,
2013-03-11 00:22:00,34.5,34.0,29.03,ENE,68,7.6,10.7,98,0.08,,,0.04,VWS V14.01,2013-03-11 04:22:00,
2013-03-11 00:23:00,34.5,34.0,29.00,NE,45,11.4,11.4,98,0.04,,,0.04,VWS V14.01,2013-03-11 04:23:00,
2013-03-11 00:24:00,34.5,34.0,29.00,ENE,68,7.8,12.3,98,0.04,,,0.04,VWS V14.01,2013-03-11 04:24:00,
2013-03-11 00:25:00,34.5,34.0,29.00,ENE,68,8.7,9.6,98,0.04,,,0.04,VWS V14.01,2013-03-11 04:25:00,
2013-03-11 00:26:00,34.5,34.0,29.00,NE,45,9.6,12.5,98,0.04,,,0.04,VWS V14.01,2013-03-11 04:26:00,
2013-03-11 00:27:00,34.5,34.0,29.00,East,90,8.5,9.6,98,0.04,,,0.04,VWS V14.01,2013-03-11 04:27:00,
2013-03-11 00:28:00,34.5,34.0,29.00,East,90,8.5,8.5,98,0.04,,,0.04,VWS V14.01,2013-03-11 04:28:00,
2013-03-11 00:29:00,34.5,34.0,29.00,ENE,68,11.0,11.0,98,0.04,,,0.04,VWS V14.01,2013-03-11 04:29:00,
2013-03-11 00:30:00,34.5,34.0,29.00,ENE,68,10.7,11.0,98,0.04,,,0.04,VWS V14.01,2013-03-11 04:30:00,
2013-03-11 00:31:00,34.5,34.0,29.00,ENE,68,9.2,10.7,98,0.04,,,0.04,VWS V14.01,2013-03-11 04:31:00,
2013-03-11 00:32:00,34.5,34.0,29.00,East,90,6.0,10.1,98,0.04,,,0.04,VWS V14.01,2013-03-11 04:32:00,
2013-03-11 00:33:00,34.5,34.0,29.00,ENE,68,7.6,8.5,98,0.04,,,0.04,VWS V14.01,2013-03-11 04:33:00,
2013-03-11 00:34:00,34.5,34.0,29.00,East,90,10.1,10.1,98,0.04,,,0.04,VWS V14.01,2013-03-11 04:34:00,
2013-03-11 00:35:00,34.5,34.0,29.00,ENE,68,5.8,10.1,98,0.04,,,0.04,VWS V14.01,2013-03-11 04:35:00,
2013-03-11 00:36:00,34.3,33.8,29.03,ENE,68,8.5,8.5,98,0.09,,,0.87,VWS V14.01,2013-03-11 04:36:00,
2013-03-11 00:37:00,34.5,34.0,29.00,NE,45,7.2,7.6,98,0.04,,,0.04,VWS V14.01,2013-03-11 04:37:00,
2013-03-11 00:38:00,34.5,34.0,28.97,ENE,68,7.6,9.8,98,0.04,,,0.04,VWS V14.01,2013-03-11 04:38:00,
2013-03-11 00:39:00,34.5,34.0,28.97,ENE,68,7.4,8.7,98,0.04,,,0.04,VWS V14.01,2013-03-11 04:39:00,
2013-03-11 00:40:00,34.5,34.0,28.97,NE,45,7.8,7.8,98,0.04,,,0.04,VWS V14.01,2013-03-11 04:40:00,
2013-03-11 00:41:00,34.5,34.0,28.97,ENE,68,8.7,8.7,98,0.04,,,0.04,VWS V14.01,2013-03-11 04:41:00,
2013-03-11 00:42:00,34.3,33.8,29.03,NE,45,6.5,8.7,98,0.04,,,0.87,VWS V14.01,2013-03-11 04:42:00,
2013-03-11 00:43:00,34.5,34.0,28.97,NE,45,6.7,8.7,98,0.04,,,0.04,VWS V14.01,2013-03-11 04:43:00,
2013-03-11 00:44:00,34.5,34.0,28.97,ENE,68,5.6,6.7,98,0.04,,,0.04,VWS V14.01,2013-03-11 04:44:00,
2013-03-11 00:46:00,34.5,34.0,28.97,ENE,68,6.3,7.6,98,0.04,,,0.04,VWS V14.01,2013-03-11 04:46:00,
2013-03-11 00:47:00,34.5,34.0,28.97,ENE,68,6.5,7.2,98,0.04,,,0.04,VWS V14.01,2013-03-11 04:47:00,
2013-03-11 00:48:00,34.3,33.8,29.03,ENE,68,5.8,6.5,98,0.04,,,0.87,VWS V14.01,2013-03-11 04:48:00,
2013-03-11 00:49:00,34.5,34.0,28.97,ENE,68,7.4,10.1,98,0.04,,,0.04,VWS V14.01,2013-03-11 04:49:00,
2013-03-11 00:50:00,34.5,34.0,28.97,ENE,68,7.4,7.4,98,0.04,,,0.04,VWS V14.01,2013-03-11 04:50:00,
2013-03-11 00:51:00,34.5,34.0,28.97,NNE,22,7.6,10.7,98,0.04,,,0.04,VWS V14.01,2013-03-11 04:51:00,
2013-03-11 00:52:00,34.7,34.2,28.97,ENE,68,7.4,9.4,98,0.04,,,0.04,VWS V14.01,2013-03-11 04:52:00,
2013-03-11 00:53:00,34.3,33.8,29.03,NE,45,7.6,7.8,98,0.04,,,0.87,VWS V14.01,2013-03-11 04:53:00,
2013-03-11 00:54:00,34.7,34.2,28.97,ENE,68,6.3,7.4,98,0.04,,,0.04,VWS V14.01,2013-03-11 04:54:00,
2013-03-11 00:55:00,34.7,34.2,28.97,ENE,68,10.3,10.3,98,0.04,,,0.04,VWS V14.01,2013-03-11 04:55:00,
2013-03-11 00:56:00,34.7,34.2,28.97,ENE,68,7.6,10.3,98,0.04,,,0.04,VWS V14.01,2013-03-11 04:56:00,
2013-03-11 00:58:00,34.3,33.8,29.03,East,90,9.0,9.0,98,0.04,,,0.87,VWS V14.01,2013-03-11 04:58:00,
2013-03-11 01:00:00,34.9,34.4,28.97,ENE,68,5.8,12.3,98,0.04,,,0.04,VWS V14.01,2013-03-11 05:00:00,
2013-03-11 01:01:00,34.9,34.4,28.97,ENE,68,7.2,8.1,98,0.04,,,0.04,VWS V14.01,2013-03-11 05:01:00,
2013-03-11 01:02:00,34.9,34.4,28.97,ENE,68,9.6,10.5,98,0.04,,,0.04,VWS V14.01,2013-03-11 05:02:00,
2013-03-11 01:03:00,34.5,34.0,29.03,ENE,68,10.7,10.7,98,0.04,,,0.00,VWS V14.01,2013-03-11 05:03:00,
2013-03-11 01:04:00,34.9,34.4,28.97,ENE,68,10.3,10.3,98,0.04,,,0.04,VWS V14.01,2013-03-11 05:04:00,
2013-03-11 01:05:00,34.9,34.4,28.97,ENE,68,9.2,10.3,98,0.04,,,0.04,VWS V14.01,2013-03-11 05:05:00,
2013-03-11 01:06:00,34.9,34.4,28.97,ENE,68,7.6,9.2,98,0.04,,,0.04,VWS V14.01,2013-03-11 05:06:00,
2013-03-11 01:07:00,34.9,34.4,28.97,ENE,68,9.0,9.0,98,0.04,,,0.04,VWS V14.01,2013-03-11 05:07:00,
2013-03-11 01:08:00,34.5,34.0,29.03,ENE,68,7.6,7.6,98,0.04,,,0.00,VWS V14.01,2013-03-11 05:08:00,
2013-03-11 01:09:00,34.9,34.4,28.97,East,90,10.7,10.7,98,0.04,,,0.04,VWS V14.01,2013-03-11 05:09:00,
2013-03-11 01:10:00,34.9,34.4,28.97,ENE,68,8.1,10.7,98,0.04,,,0.04,VWS V14.01,2013-03-11 05:10:00,
2013-03-11 01:11:00,34.9,34.4,28.97,ENE,68,8.1,10.3,98,0.04,,,0.04,VWS V14.01,2013-03-11 05:11:00,
2013-03-11 01:12:00,34.9,34.4,28.97,ENE,68,7.8,15.4,98,0.04,,,0.04,VWS V14.01,2013-03-11 05:12:00,
2013-03-11 01:13:00,34.5,34.0,29.03,NE,45,6.3,6.9,98,0.04,,,0.00,VWS V14.01,2013-03-11 05:13:00,
2013-03-11 01:14:00,35.1,34.5,28.97,ENE,68,8.1,10.5,98,0.04,,,0.04,VWS V14.01,2013-03-11 05:14:00,
2013-03-11 01:15:00,35.1,34.5,28.97,ENE,68,8.7,10.3,98,0.04,,,0.04,VWS V14.01,2013-03-11 05:15:00,
2013-03-11 01:17:00,35.1,34.5,28.97,ENE,68,7.8,8.7,98,0.04,,,0.04,VWS V14.01,2013-03-11 05:17:00,
2013-03-11 01:18:00,34.5,34.0,29.03,ENE,68,10.1,10.1,98,0.08,,,0.04,VWS V14.01,2013-03-11 05:18:00,
2013-03-11 01:19:00,35.1,34.5,28.97,ENE,68,6.3,7.8,98,0.00,,,0.04,VWS V14.01,2013-03-11 05:19:00,
2013-03-11 01:20:00,35.1,34.5,28.97,ENE,68,7.8,7.8,98,0.00,,,0.04,VWS V14.01,2013-03-11 05:20:00,
2013-03-11 01:21:00,35.1,34.5,28.97,NE,45,5.6,7.8,98,0.00,,,0.04,VWS V14.01,2013-03-11 05:21:00,
2013-03-11 01:22:00,35.1,34.5,28.97,ENE,68,5.8,9.8,98,0.00,,,0.04,VWS V14.01,2013-03-11 05:22:00,
2013-03-11 01:23:00,34.5,34.0,29.00,ENE,68,10.7,11.4,98,0.04,,,0.04,VWS V14.01,2013-03-11 05:23:00,
2013-03-11 01:24:00,35.1,34.5,28.97,East,90,5.8,8.1,98,0.00,,,0.04,VWS V14.01,2013-03-11 05:24:00,
2013-03-11 01:25:00,35.1,34.5,28.97,ENE,68,9.2,9.2,98,0.00,,,0.04,VWS V14.01,2013-03-11 05:25:00,
2013-03-11 01:26:00,35.1,34.5,28.97,East,90,6.0,9.2,98,0.00,,,0.04,VWS V14.01,2013-03-11 05:26:00,
2013-03-11 01:27:00,35.1,34.5,28.97,ENE,68,11.2,11.2,98,0.00,,,0.04,VWS V14.01,2013-03-11 05:27:00,
2013-03-11 01:28:00,34.5,34.0,29.00,NNE,22,8.5,8.5,98,0.04,,,0.04,VWS V14.01,2013-03-11 05:28:00,
2013-03-11 01:29:00,35.2,34.7,28.97,NE,45,6.3,8.5,98,0.00,,,0.04,VWS V14.01,2013-03-11 05:29:00,
2013-03-11 01:30:00,35.2,34.7,28.97,ENE,68,6.5,6.5,98,0.00,,,0.04,VWS V14.01,2013-03-11 05:30:00,
2013-03-11 01:31:00,35.2,34.7,28.97,ENE,68,5.8,6.5,98,0.00,,,0.04,VWS V14.01,2013-03-11 05:31:00,
2013-03-11 01:32:00,35.2,34.7,28.97,NE,45,6.3,8.1,98,0.00,,,0.04,VWS V14.01,2013-03-11 05:32:00,
2013-03-11 01:33:00,34.5,34.0,29.00,ENE,68,7.8,9.8,98,0.04,,,0.04,VWS V14.01,2013-03-11 05:33:00,
2013-03-11 01:34:00,35.4,34.9,28.97,ENE,68,7.6,7.6,98,0.00,,,0.04,VWS V14.01,2013-03-11 05:34:00,
2013-03-11 01:35:00,35.4,34.9,28.97,ENE,68,8.1,9.8,98,0.00,,,0.04,VWS V14.01,2013-03-11 05:35:00,
2013-03-11 01:36:00,35.4,34.9,28.97,ENE,68,6.7,9.8,98,0.00,,,0.04,VWS V14.01,2013-03-11 05:36:00,
2013-03-11 01:37:00,35.4,34.9,28.97,ENE,68,5.8,8.1,98,0.00,,,0.04,VWS V14.01,2013-03-11 05:37:00,
2013-03-11 01:38:00,34.5,34.0,28.97,ENE,68,8.7,8.7,98,0.04,,,0.04,VWS V14.01,2013-03-11 05:38:00,
2013-03-11 01:39:00,35.4,34.9,28.97,ENE,68,7.2,7.6,98,0.00,,,0.04,VWS V14.01,2013-03-11 05:39:00,
2013-03-11 01:40:00,35.4,34.9,28.97,NE,45,7.2,8.1,98,0.00,,,0.04,VWS V14.01,2013-03-11 05:40:00,
2013-03-11 01:41:00,35.4,34.9,28.97,ENE,68,6.0,7.2,98,0.04,,,0.08,VWS V14.01,2013-03-11 05:41:00,
2013-03-11 01:42:00,35.4,34.9,28.97,NE,45,5.8,6.3,98,0.04,,,0.08,VWS V14.01,2013-03-11 05:42:00,
2013-03-11 01:43:00,35.4,34.9,28.97,ENE,68,5.6,5.8,98,0.04,,,0.08,VWS V14.01,2013-03-11 05:43:00,
2013-03-11 01:44:00,34.5,34.0,28.97,ENE,68,5.6,6.7,98,0.04,,,0.04,VWS V14.01,2013-03-11 05:44:00,
2013-03-11 01:45:00,35.4,34.9,28.97,ENE,68,6.0,6.5,98,0.04,,,0.08,VWS V14.01,2013-03-11 05:45:00,
2013-03-11 01:46:00,35.4,34.9,28.97,ENE,68,6.9,6.9,98,0.04,,,0.08,VWS V14.01,2013-03-11 05:46:00,
2013-03-11 01:47:00,35.4,34.9,28.97,ENE,68,5.8,6.9,98,0.04,,,0.08,VWS V14.01,2013-03-11 05:47:00,
2013-03-11 01:49:00,34.5,34.0,28.97,ENE,68,6.9,10.1,98,0.04,,,0.04,VWS V14.01,2013-03-11 05:49:00,
2013-03-11 01:50:00,35.4,34.9,28.97,ENE,68,6.3,6.3,98,0.04,,,0.08,VWS V14.01,2013-03-11 05:50:00,
2013-03-11 01:51:00,35.4,34.9,28.97,East,90,13.2,13.2,98,0.04,,,0.08,VWS V14.01,2013-03-11 05:51:00,
2013-03-11 01:52:00,35.4,34.9,28.94,East,90,8.1,13.2,98,0.04,,,0.08,VWS V14.01,2013-03-11 05:52:00,
2013-03-11 01:53:00,35.4,34.9,28.94,East,90,7.8,8.1,98,0.08,,,0.12,VWS V14.01,2013-03-11 05:53:00,
2013-03-11 01:54:00,34.7,34.2,28.97,ENE,68,6.3,7.4,98,0.04,,,0.04,VWS V14.01,2013-03-11 05:54:00,
2013-03-11 01:55:00,35.4,34.9,28.94,East,90,6.5,7.6,98,0.08,,,0.12,VWS V14.01,2013-03-11 05:55:00,
2013-03-11 01:56:00,35.4,34.9,28.94,ENE,68,5.6,6.5,98,0.08,,,0.12,VWS V14.01,2013-03-11 05:56:00,
2013-03-11 01:57:00,35.4,34.9,28.94,ENE,68,6.0,6.0,98,0.08,,,0.12,VWS V14.01,2013-03-11 05:57:00,
2013-03-11 01:58:00,35.4,34.9,28.94,East,90,8.7,8.7,98,0.08,,,0.12,VWS V14.01,2013-03-11 05:58:00,
2013-03-11 01:59:00,34.9,34.4,28.97,ENE,68,7.2,12.3,98,0.04,,,0.04,VWS V14.01,2013-03-11 05:59:00,
2013-03-11 02:00:00,35.4,34.9,28.94,ESE,112,6.0,7.6,98,0.08,,,0.12,VWS V14.01,2013-03-11 06:00:00,
2013-03-11 02:01:00,35.6,35.1,28.94,East,90,6.0,6.0,98,0.08,,,0.12,VWS V14.01,2013-03-11 06:01:00,
2013-03-11 02:02:00,35.6,35.1,28.94,ENE,68,6.3,7.4,98,0.08,,,0.12,VWS V14.01,2013-03-11 06:02:00,
2013-03-11 02:03:00,35.6,35.1,28.94,East,90,6.3,6.3,98,0.08,,,0.12,VWS V14.01,2013-03-11 06:03:00,
2013-03-11 02:04:00,34.9,34.4,28.97,ENE,68,9.4,10.3,98,0.04,,,0.04,VWS V14.01,2013-03-11 06:04:00,
2013-03-11 02:05:00,35.6,35.1,28.94,East,90,8.7,8.7,98,0.08,,,0.12,VWS V14.01,2013-03-11 06:05:00,
2013-03-11 02:06:00,35.6,35.1,28.94,ENE,68,7.6,8.7,98,0.08,,,0.12,VWS V14.01,2013-03-11 06:06:00,
2013-03-11 02:07:00,35.6,35.1,28.94,ENE,68,6.0,7.6,98,0.08,,,0.12,VWS V14.01,2013-03-11 06:07:00,
2013-03-11 02:09:00,34.9,34.4,28.97,ENE,68,7.6,10.7,98,0.04,,,0.04,VWS V14.01,2013-03-11 06:09:00,
2013-03-11 02:10:00,35.6,35.1,28.94,ENE,68,6.3,9.2,98,0.08,,,0.12,VWS V14.01,2013-03-11 06:10:00,
2013-03-11 02:11:00,35.8,35.3,28.94,ENE,68,8.1,9.2,98,0.08,,,0.12,VWS V14.01,2013-03-11 06:11:00,
2013-03-11 02:12:00,35.8,35.3,28.94,East,90,7.4,8.1,98,0.08,,,0.12,VWS V14.01,2013-03-11 06:12:00,
2013-03-11 02:13:00,35.8,35.3,28.94,East,90,7.4,7.4,98,0.08,,,0.12,VWS V14.01,2013-03-11 06:13:00,
2013-03-11 02:14:00,35.1,34.5,28.97,ENE,68,10.3,10.3,98,0.04,,,0.04,VWS V14.01,2013-03-11 06:14:00,
2013-03-11 02:15:00,35.8,35.3,28.94,ENE,68,6.0,6.0,98,0.08,,,0.12,VWS V14.01,2013-03-11 06:15:00,
2013-03-11 02:16:00,35.8,35.3,28.94,ENE,68,6.0,6.7,98,0.08,,,0.12,VWS V14.01,2013-03-11 06:16:00,
2013-03-11 02:17:00,35.8,35.3,28.94,ENE,68,6.5,6.5,98,0.08,,,0.12,VWS V14.01,2013-03-11 06:17:00,
2013-03-11 02:18:00,35.8,35.3,28.94,East,90,6.5,6.5,98,0.08,,,0.12,VWS V14.01,2013-03-11 06:18:00,
2013-03-11 02:19:00,35.1,34.5,28.97,ENE,68,6.7,6.7,98,0.00,,,0.04,VWS V14.01,2013-03-11 06:19:00,
2013-03-11 02:20:00,35.8,35.3,28.94,ENE,68,7.2,7.4,98,0.08,,,0.12,VWS V14.01,2013-03-11 06:20:00,
2013-03-11 02:21:00,35.8,35.3,28.94,East,90,7.6,7.6,98,0.08,,,0.12,VWS V14.01,2013-03-11 06:21:00,
2013-03-11 02:22:00,35.8,35.3,28.91,East,90,5.6,8.7,98,0.08,,,0.12,VWS V14.01,2013-03-11 06:22:00,
2013-03-11 02:23:00,35.8,35.3,28.91,ENE,68,6.3,8.7,98,0.08,,,0.12,VWS V14.01,2013-03-11 06:23:00,
2013-03-11 02:24:00,35.1,34.5,28.97,ENE,68,6.0,6.0,98,0.00,,,0.04,VWS V14.01,2013-03-11 06:24:00,
2013-03-11 02:25:00,36.0,35.5,28.91,ENE,68,7.8,7.8,98,0.08,,,0.12,VWS V14.01,2013-03-11 06:25:00,
2013-03-11 02:26:00,36.0,35.5,28.91,East,90,4.9,7.8,98,0.08,,,0.12,VWS V14.01,2013-03-11 06:26:00,
2013-03-11 02:27:00,36.0,35.5,28.91,ENE,68,6.0,8.7,98,0.08,,,0.12,VWS V14.01,2013-03-11 06:27:00,
2013-03-11 02:28:00,36.0,35.5,28.91,ENE,68,6.0,6.0,98,0.08,,,0.12,VWS V14.01,2013-03-11 06:28:00,
2013-03-11 02:29:00,35.2,34.7,28.97,NE,45,6.3,8.5,98,0.00,,,0.04,VWS V14.01,2013-03-11 06:29:00,
2013-03-11 02:30:00,36.0,35.5,28.91,East,90,6.0,6.0,98,0.08,,,0.12,VWS V14.01,2013-03-11 06:30:00,
2013-03-11 02:31:00,36.0,35.5,28.91,East,90,5.4,6.0,98,0.08,,,0.12,VWS V14.01,2013-03-11 06:31:00,
2013-03-11 02:33:00,36.0,35.5,28.91,East,90,6.0,6.9,98,0.08,,,0.12,VWS V14.01,2013-03-11 06:33:00,
2013-03-11 02:34:00,35.4,34.9,28.97,ENE,68,9.8,9.8,98,0.00,,,0.04,VWS V14.01,2013-03-11 06:34:00,
2013-03-11 02:35:00,36.0,35.5,28.91,ENE,68,10.7,10.7,98,0.08,,,0.12,VWS V14.01,2013-03-11 06:35:00,
2013-03-11 02:36:00,36.0,35.5,28.91,East,90,5.8,10.7,98,0.08,,,0.12,VWS V14.01,2013-03-11 06:36:00,
2013-03-11 02:37:00,36.1,35.6,28.91,ENE,68,6.5,7.6,98,0.08,,,0.12,VWS V14.01,2013-03-11 06:37:00,
2013-03-11 02:38:00,36.0,35.5,28.91,East,90,4.7,9.6,98,0.08,,,0.12,VWS V14.01,2013-03-11 06:38:00,
2013-03-11 02:39:00,35.4,34.9,28.97,ENE,68,8.1,8.1,98,0.00,,,0.04,VWS V14.01,2013-03-11 06:39:00,
2013-03-11 02:40:00,36.0,35.5,28.91,NE,45,5.6,7.4,98,0.08,,,0.12,VWS V14.01,2013-03-11 06:40:00,
2013-03-11 02:41:00,36.0,35.5,28.91,ENE,68,4.7,5.6,98,0.08,,,0.12,VWS V14.01,2013-03-11 06:41:00,
2013-03-11 02:42:00,36.0,35.5,28.91,ENE,68,4.7,4.7,98,0.04,,,0.12,VWS V14.01,2013-03-11 06:42:00,
2013-03-11 02:43:00,36.0,35.5,28.91,ENE,68,6.0,6.3,98,0.04,,,0.12,VWS V14.01,2013-03-11 06:43:00,
2013-03-11 02:44:00,35.4,34.9,28.97,ENE,68,6.0,6.5,98,0.04,,,0.08,VWS V14.01,2013-03-11 06:44:00,
2013-03-11 02:45:00,36.1,35.6,28.91,ENE,68,5.6,6.0,98,0.04,,,0.12,VWS V14.01,2013-03-11 06:45:00,
2013-03-11 02:46:00,36.1,35.6,28.91,East,90,6.3,8.5,98,0.04,,,0.12,VWS V14.01,2013-03-11 06:46:00,
2013-03-11 02:47:00,36.3,35.8,28.91,ENE,68,4.5,6.3,98,0.04,,,0.12,VWS V14.01,2013-03-11 06:47:00,
2013-03-11 02:48:00,36.3,35.8,28.91,ENE,68,4.9,6.3,98,0.04,,,0.12,VWS V14.01,2013-03-11 06:48:00,
2013-03-11 02:49:00,35.4,34.9,28.97,ENE,68,6.3,6.3,98,0.04,,,0.08,VWS V14.01,2013-03-11 06:49:00,
2013-03-11 02:50:00,36.3,35.8,28.91,ESE,112,5.4,5.6,98,0.04,,,0.12,VWS V14.01,2013-03-11 06:50:00,
2013-03-11 02:51:00,36.3,35.8,28.91,ESE,112,5.4,5.4,98,0.04,,,0.12,VWS V14.01,2013-03-11 06:51:00,
2013-03-11 02:52:00,36.3,35.8,28.91,ESE,112,5.4,5.4,98,0.04,,,0.12,VWS V14.01,2013-03-11 06:52:00,
2013-03-11 02:53:00,36.3,35.8,28.91,ENE,68,4.0,5.4,98,0.04,,,0.12,VWS V14.01,2013-03-11 06:53:00,
2013-03-11 02:54:00,36.3,35.8,28.91,East,90,5.8,7.8,98,0.00,,,0.12,VWS V14.01,2013-03-11 06:54:00,
2013-03-11 02:55:00,35.4,34.9,28.94,ENE,68,7.6,7.6,98,0.08,,,0.12,VWS V14.01,2013-03-11 06:55:00,
2013-03-11 02:56:00,36.1,35.6,28.91,East,90,4.0,5.8,98,0.00,,,0.12,VWS V14.01,2013-03-11 06:56:00,
2013-03-11 02:57:00,36.1,35.6,28.91,ESE,112,4.3,4.7,98,0.00,,,0.12,VWS V14.01,2013-03-11 06:57:00,
2013-03-11 02:58:00,36.1,35.6,28.91,ENE,68,4.7,4.9,98,0.00,,,0.12,VWS V14.01,2013-03-11 06:58:00,
2013-03-11 02:59:00,36.1,35.6,28.91,ENE,68,4.7,4.7,98,0.00,,,0.12,VWS V14.01,2013-03-11 06:59:00,
2013-03-11 03:00:00,35.4,34.9,28.94,East,90,6.0,7.6,98,0.08,,,0.12,VWS V14.01,2013-03-11 07:00:00,
2013-03-11 03:01:00,36.1,35.6,28.91,ENE,68,4.0,4.3,98,0.00,,,0.12,VWS V14.01,2013-03-11 07:01:00,
2013-03-11 03:02:00,36.1,35.6,28.91,ENE,68,4.9,4.9,98,0.00,,,0.12,VWS V14.01,2013-03-11 07:02:00,
2013-03-11 03:05:00,35.6,35.1,28.94,East,90,8.7,8.7,98,0.08,,,0.12,VWS V14.01,2013-03-11 07:05:00,
2013-03-11 03:06:00,36.1,35.6,28.91,ENE,68,6.0,6.0,98,0.00,,,0.12,VWS V14.01,2013-03-11 07:06:00,
2013-03-11 03:07:00,36.1,35.6,28.88,East,90,5.4,6.0,98,0.00,,,0.12,VWS V14.01,2013-03-11 07:07:00,
2013-03-11 03:08:00,36.1,35.6,28.88,ENE,68,3.6,5.4,98,0.00,,,0.12,VWS V14.01,2013-03-11 07:08:00,
2013-03-11 03:09:00,36.1,35.6,28.88,ENE,68,4.7,4.7,98,0.00,,,0.12,VWS V14.01,2013-03-11 07:09:00,
2013-03-11 03:10:00,35.6,35.1,28.94,NE,45,6.3,9.2,98,0.08,,,0.12,VWS V14.01,2013-03-11 07:10:00,
2013-03-11 03:11:00,36.3,35.8,28.88,ENE,68,4.0,5.4,98,0.00,,,0.12,VWS V14.01,2013-03-11 07:11:00,
2013-03-11 03:12:00,36.3,35.8,28.88,ENE,68,4.3,4.3,98,0.00,,,0.12,VWS V14.01,2013-03-11 07:12:00,
2013-03-11 03:13:00,36.3,35.8,28.88,ENE,68,3.8,5.8,98,0.00,,,0.12,VWS V14.01,2013-03-11 07:13:00,
2013-03-11 03:14:00,36.3,35.8,28.88,ENE,68,3.8,3.8,98,0.00,,,0.12,VWS V14.01,2013-03-11 07:14:00,
2013-03-11 03:15:00,35.8,35.3,28.94,ENE,68,6.0,6.0,98,0.08,,,0.12,VWS V14.01,2013-03-11 07:15:00,
2013-03-11 03:16:00,36.3,35.8,28.88,ENE,68,4.3,4.3,98,0.00,,,0.12,VWS V14.01,2013-03-11 07:16:00,
2013-03-11 03:17:00,36.3,35.8,28.88,East,90,3.8,5.6,98,0.00,,,0.12,VWS V14.01,2013-03-11 07:17:00,
2013-03-11 03:18:00,36.3,35.8,28.88,NE,45,4.9,4.9,98,0.00,,,0.12,VWS V14.01,2013-03-11 07:18:00,
2013-03-11 03:19:00,36.3,35.8,28.88,ENE,68,4.7,5.4,98,0.00,,,0.12,VWS V14.01,2013-03-11 07:19:00,
2013-03-11 03:20:00,35.8,35.3,28.94,ENE,68,7.2,7.4,98,0.08,,,0.12,VWS V14.01,2013-03-11 07:20:00,
2013-03-11 03:21:00,36.1,35.6,28.88,ENE,68,5.4,5.4,98,0.00,,,0.12,VWS V14.01,2013-03-11 07:21:00,
2013-03-11 03:22:00,36.1,35.6,28.88,East,90,4.3,5.4,98,0.00,,,0.12,VWS V14.01,2013-03-11 07:22:00,
2013-03-11 03:23:00,36.1,35.6,28.88,ENE,68,4.0,7.2,98,0.00,,,0.12,VWS V14.01,2013-03-11 07:23:00,
2013-03-11 03:24:00,36.1,35.6,28.88,ENE,68,4.3,5.4,98,0.00,,,0.12,VWS V14.01,2013-03-11 07:24:00,
2013-03-11 03:25:00,36.0,35.5,28.91,ENE,68,7.8,7.8,98,0.08,,,0.12,VWS V14.01,2013-03-11 07:25:00,
2013-03-11 03:26:00,36.1,35.6,28.88,ENE,68,4.3,5.4,98,0.00,,,0.12,VWS V14.01,2013-03-11 07:26:00,
2013-03-11 03:27:00,36.1,35.6,28.88,ENE,68,3.8,5.8,98,0.00,,,0.12,VWS V14.01,2013-03-11 07:27:00,
2013-03-11 03:28:00,36.1,35.6,28.88,ENE,68,7.6,7.6,98,0.00,,,0.12,VWS V14.01,2013-03-11 07:28:00,
2013-03-11 03:29:00,36.1,35.6,28.88,ENE,68,4.7,7.6,98,0.00,,,0.12,VWS V14.01,2013-03-11 07:29:00,
2013-03-11 03:30:00,36.0,35.5,28.91,East,90,6.0,6.0,98,0.08,,,0.12,VWS V14.01,2013-03-11 07:30:00,
2013-03-11 03:31:00,36.1,35.6,28.88,ENE,68,6.3,6.5,98,0.00,,,0.12,VWS V14.01,2013-03-11 07:31:00,
2013-03-11 03:32:00,36.1,35.6,28.88,ENE,68,4.3,6.3,98,0.00,,,0.12,VWS V14.01,2013-03-11 07:32:00,
2013-03-11 03:33:00,36.1,35.6,28.88,ENE,68,3.8,4.9,98,0.00,,,0.12,VWS V14.01,2013-03-11 07:33:00,
2013-03-11 03:34:00,36.1,35.6,28.88,ENE,68,4.0,4.3,98,0.00,,,0.12,VWS V14.01,2013-03-11 07:34:00,
2013-03-11 03:35:00,36.0,35.5,28.91,NE,45,5.8,7.6,98,0.08,,,0.12,VWS V14.01,2013-03-11 07:35:00,
2013-03-11 03:36:00,36.1,35.6,28.88,ENE,68,5.6,5.6,98,0.00,,,0.12,VWS V14.01,2013-03-11 07:36:00,
2013-03-11 03:37:00,36.1,35.6,28.88,NE,45,4.3,5.6,98,0.00,,,0.12,VWS V14.01,2013-03-11 07:37:00,
2013-03-11 03:38:00,36.1,35.6,28.88,ENE,68,4.0,5.4,98,0.00,,,0.12,VWS V14.01,2013-03-11 07:38:00,
2013-03-11 03:39:00,36.1,35.6,28.88,ENE,68,4.3,5.6,98,0.00,,,0.12,VWS V14.01,2013-03-11 07:39:00,
2013-03-11 03:40:00,36.0,35.5,28.91,ENE,68,4.9,5.6,98,0.08,,,0.12,VWS V14.01,2013-03-11 07:40:00,
2013-03-11 03:41:00,36.1,35.6,28.88,ENE,68,3.4,4.9,98,0.00,,,0.12,VWS V14.01,2013-03-11 07:41:00,
2013-03-11 03:42:00,36.1,35.6,28.88,ENE,68,3.1,4.0,98,0.00,,,0.12,VWS V14.01,2013-03-11 07:42:00,
2013-03-11 03:43:00,36.1,35.6,28.88,ENE,68,3.8,5.4,98,0.00,,,0.12,VWS V14.01,2013-03-11 07:43:00,
2013-03-11 03:44:00,36.1,35.6,28.88,ENE,68,3.8,3.8,98,0.00,,,0.12,VWS V14.01,2013-03-11 07:44:00,
2013-03-11 03:45:00,36.1,35.6,28.91,ENE,68,5.8,8.5,98,0.04,,,0.12,VWS V14.01,2013-03-11 07:45:00,
2013-03-11 03:46:00,36.1,35.6,28.88,ENE,68,4.7,4.7,98,0.00,,,0.12,VWS V14.01,2013-03-11 07:46:00,
2013-03-11 03:47:00,36.1,35.6,28.88,East,90,4.7,5.4,98,0.00,,,0.12,VWS V14.01,2013-03-11 07:47:00,
2013-03-11 03:48:00,36.1,35.6,28.88,East,90,4.3,4.9,98,0.00,,,0.12,VWS V14.01,2013-03-11 07:48:00,
2013-03-11 03:49:00,36.1,35.6,28.88,ENE,68,4.0,4.3,98,0.00,,,0.12,VWS V14.01,2013-03-11 07:49:00,
2013-03-11 03:50:00,36.3,35.8,28.91,ESE,112,5.4,5.4,98,0.04,,,0.12,VWS V14.01,2013-03-11 07:50:00,
2013-03-11 03:51:00,36.3,35.8,28.88,ENE,68,4.3,4.3,98,0.00,,,0.12,VWS V14.01,2013-03-11 07:51:00,
2013-03-11 03:52:00,36.3,35.8,28.88,ENE,68,4.3,4.3,98,0.00,,,0.12,VWS V14.01,2013-03-11 07:52:00,
2013-03-11 03:53:00,36.1,35.6,28.85,ENE,68,4.7,4.7,98,0.00,,,0.12,VWS V14.01,2013-03-11 07:53:00,
2013-03-11 03:54:00,36.1,35.6,28.85,ESE,112,5.6,5.6,98,0.00,,,0.12,VWS V14.01,2013-03-11 07:54:00,
2013-03-11 03:55:00,36.1,35.6,28.91,ENE,68,4.9,5.8,98,0.00,,,0.12,VWS V14.01,2013-03-11 07:55:00,
2013-03-11 03:56:00,36.1,35.6,28.85,ENE,68,4.0,8.7,98,0.00,,,0.12,VWS V14.01,2013-03-11 07:56:00,
2013-03-11 03:57:00,36.3,35.8,28.85,ENE,68,4.3,5.6,98,0.00,,,0.12,VWS V14.01,2013-03-11 07:57:00,
2013-03-11 03:58:00,36.3,35.8,28.85,NE,45,4.3,5.8,98,0.00,,,0.12,VWS V14.01,2013-03-11 07:58:00,
2013-03-11 03:59:00,36.3,35.8,28.85,ENE,68,3.8,6.0,98,0.00,,,0.12,VWS V14.01,2013-03-11 07:59:00,
2013-03-11 04:00:00,36.1,35.6,28.91,ENE,68,4.0,4.3,98,0.00,,,0.12,VWS V14.01,2013-03-11 08:00:00,
2013-03-11 04:01:00,36.3,35.8,28.85,NE,45,4.0,6.0,98,0.00,,,0.12,VWS V14.01,2013-03-11 08:01:00,
2013-03-11 04:02:00,36.5,36.0,28.85,ENE,68,6.5,6.5,98,0.00,,,0.12,VWS V14.01,2013-03-11 08:02:00,
2013-03-11 04:03:00,36.7,36.2,28.85,East,90,5.6,6.5,98,0.00,,,0.12,VWS V14.01,2013-03-11 08:03:00,
2013-03-11 04:04:00,36.7,36.2,28.85,NE,45,4.3,5.6,98,0.00,,,0.12,VWS V14.01,2013-03-11 08:04:00,
2013-03-11 04:05:00,36.7,36.2,28.85,East,90,4.9,5.8,98,0.00,,,0.12,VWS V14.01,2013-03-11 08:05:00,
2013-03-11 04:06:00,36.1,35.6,28.91,East,90,5.4,5.4,98,0.00,,,0.12,VWS V14.01,2013-03-11 08:06:00,
2013-03-11 04:07:00,36.9,36.3,28.85,ENE,68,5.8,5.8,98,0.00,,,0.12,VWS V14.01,2013-03-11 08:07:00,
2013-03-11 04:08:00,36.9,36.3,28.88,ENE,68,3.6,6.9,98,0.00,,,0.12,VWS V14.01,2013-03-11 08:08:00,
2013-03-11 04:09:00,36.9,36.3,28.88,ENE,68,3.8,3.8,98,0.00,,,0.12,VWS V14.01,2013-03-11 08:09:00,
2013-03-11 04:10:00,36.9,36.3,28.88,NE,45,3.6,3.8,98,0.00,,,0.12,VWS V14.01,2013-03-11 08:10:00,
2013-03-11 04:11:00,36.3,35.8,28.88,ENE,68,4.0,5.4,98,0.00,,,0.12,VWS V14.01,2013-03-11 08:11:00,
2013-03-11 04:12:00,36.9,36.3,28.88,ENE,68,6.3,6.3,98,0.00,,,0.12,VWS V14.01,2013-03-11 08:12:00,
2013-03-11 04:13:00,36.9,36.3,28.88,NE,45,3.8,6.3,98,0.00,,,0.12,VWS V14.01,2013-03-11 08:13:00,
2013-03-11 04:14:00,36.9,36.3,28.88,NE,45,4.3,4.3,98,0.00,,,0.12,VWS V14.01,2013-03-11 08:14:00,
2013-03-11 04:15:00,36.9,36.3,28.88,ENE,68,3.4,4.3,98,0.00,,,0.12,VWS V14.01,2013-03-11 08:15:00,
2013-03-11 04:16:00,36.3,35.8,28.88,ENE,68,4.3,4.3,98,0.00,,,0.12,VWS V14.01,2013-03-11 08:16:00,
2013-03-11 04:17:00,36.9,36.3,28.88,East,90,2.7,4.3,98,0.00,,,0.12,VWS V14.01,2013-03-11 08:17:00,
2013-03-11 04:19:00,36.9,36.3,28.88,ENE,68,4.3,5.6,98,0.00,,,0.12,VWS V14.01,2013-03-11 08:19:00,
2013-03-11 04:20:00,36.9,36.3,28.88,NE,45,3.6,4.3,98,0.00,,,0.12,VWS V14.01,2013-03-11 08:20:00,
2013-03-11 04:21:00,36.1,35.6,28.88,ENE,68,4.7,5.4,98,0.00,,,0.12,VWS V14.01,2013-03-11 08:21:00,
2013-03-11 04:22:00,36.9,36.3,28.85,ENE,68,3.6,4.3,98,0.00,,,0.12,VWS V14.01,2013-03-11 08:22:00,
2013-03-11 04:23:00,36.9,36.3,28.85,ENE,68,3.4,4.0,98,0.00,,,0.12,VWS V14.01,2013-03-11 08:23:00,
2013-03-11 04:24:00,36.9,36.3,28.85,East,90,3.6,3.6,98,0.00,,,0.12,VWS V14.01,2013-03-11 08:24:00,
2013-03-11 04:25:00,36.9,36.3,28.85,ENE,68,3.1,4.7,98,0.00,,,0.12,VWS V14.01,2013-03-11 08:25:00,
2013-03-11 04:26:00,36.1,35.6,28.88,ENE,68,5.8,5.8,98,0.00,,,0.12,VWS V14.01,2013-03-11 08:26:00,
2013-03-11 04:27:00,36.7,36.2,28.85,ESE,112,3.8,3.8,98,0.00,,,0.12,VWS V14.01,2013-03-11 08:27:00,
2013-03-11 04:28:00,36.7,36.2,28.85,East,90,3.6,5.6,98,0.00,,,0.12,VWS V14.01,2013-03-11 08:28:00,
2013-03-11 04:29:00,36.7,36.2,28.85,East,90,3.8,4.3,98,0.00,,,0.12,VWS V14.01,2013-03-11 08:29:00,
2013-03-11 04:30:00,36.9,36.3,28.85,East,90,4.0,4.9,98,0.00,,,0.12,VWS V14.01,2013-03-11 08:30:00,
2013-03-11 04:31:00,36.1,35.6,28.88,ENE,68,5.4,6.3,98,0.00,,,0.12,VWS V14.01,2013-03-11 08:31:00,
2013-03-11 04:32:00,36.9,36.3,28.85,ENE,68,3.8,4.7,98,0.00,,,0.12,VWS V14.01,2013-03-11 08:32:00,
2013-03-11 04:33:00,36.9,36.3,28.85,ENE,68,3.8,4.3,98,0.00,,,0.12,VWS V14.01,2013-03-11 08:33:00,
2013-03-11 04:34:00,36.9,36.3,28.85,ENE,68,3.8,4.3,98,0.00,,,0.12,VWS V14.01,2013-03-11 08:34:00,
2013-03-11 04:35:00,36.9,36.3,28.85,ENE,68,4.3,4.3,98,0.00,,,0.12,VWS V14.01,2013-03-11 08:35:00,
2013-03-11 04:36:00,36.1,35.6,28.88,ENE,68,5.4,5.6,98,0.00,,,0.12,VWS V14.01,2013-03-11 08:36:00,
2013-03-11 04:37:00,36.9,36.3,28.85,ENE,68,5.6,5.6,98,0.00,,,0.12,VWS V14.01,2013-03-11 08:37:00,
2013-03-11 04:38:00,36.9,36.3,28.85,ENE,68,5.8,5.8,98,0.00,,,0.12,VWS V14.01,2013-03-11 08:38:00,
2013-03-11 04:39:00,36.9,36.3,28.85,ENE,68,4.3,5.8,98,0.00,,,0.12,VWS V14.01,2013-03-11 08:39:00,
2013-03-11 04:40:00,36.9,36.3,28.85,ENE,68,5.4,5.4,98,0.00,,,0.12,VWS V14.01,2013-03-11 08:40:00,
2013-03-11 04:41:00,36.1,35.6,28.88,East,90,3.4,3.8,98,0.00,,,0.12,VWS V14.01,2013-03-11 08:41:00,
2013-03-11 04:42:00,36.7,36.2,28.85,East,90,4.0,5.6,98,0.00,,,0.12,VWS V14.01,2013-03-11 08:42:00,
2013-03-11 04:43:00,36.7,36.2,28.85,East,90,4.3,5.6,98,0.00,,,0.12,VWS V14.01,2013-03-11 08:43:00,
2013-03-11 04:45:00,36.7,36.2,28.85,East,90,5.4,5.4,98,0.00,,,0.12,VWS V14.01,2013-03-11 08:45:00,
2013-03-11 04:46:00,36.1,35.6,28.88,ENE,68,3.8,4.7,98,0.00,,,0.12,VWS V14.01,2013-03-11 08:46:00,
2013-03-11 04:47:00,36.5,36.0,28.85,ENE,68,5.6,5.6,98,0.00,,,0.12,VWS V14.01,2013-03-11 08:47:00,
2013-03-11 04:48:00,36.3,35.8,28.85,ENE,68,4.3,5.6,98,0.00,,,0.12,VWS V14.01,2013-03-11 08:48:00,
2013-03-11 04:50:00,36.3,35.8,28.85,ENE,68,4.7,4.9,98,0.00,,,0.12,VWS V14.01,2013-03-11 08:50:00,
2013-03-11 04:51:00,36.3,35.8,28.88,ENE,68,4.3,4.3,98,0.00,,,0.12,VWS V14.01,2013-03-11 08:51:00,
2013-03-11 04:52:00,36.1,35.6,28.85,NE,45,4.3,4.7,98,0.00,,,0.12,VWS V14.01,2013-03-11 08:52:00,
2013-03-11 04:53:00,36.1,35.6,28.85,ENE,68,4.0,4.9,98,0.00,,,0.12,VWS V14.01,2013-03-11 08:53:00,
2013-03-11 04:54:00,36.0,35.5,28.85,ENE,68,3.8,4.3,98,0.00,,,0.12,VWS V14.01,2013-03-11 08:54:00,
2013-03-11 04:55:00,36.0,35.5,28.85,NE,45,3.6,4.7,98,0.00,,,0.12,VWS V14.01,2013-03-11 08:55:00,
2013-03-11 04:56:00,36.3,35.8,28.85,NE,45,5.4,5.6,98,0.00,,,0.12,VWS V14.01,2013-03-11 08:56:00,
2013-03-11 04:57:00,36.0,35.5,28.85,ENE,68,4.0,4.5,98,0.00,,,0.12,VWS V14.01,2013-03-11 08:57:00,
2013-03-11 04:58:00,36.0,35.5,28.85,NE,45,3.6,4.0,98,0.00,,,0.12,VWS V14.01,2013-03-11 08:58:00,
2013-03-11 04:59:00,36.1,35.6,28.85,East,90,4.0,4.3,98,0.00,,,0.12,VWS V14.01,2013-03-11 08:59:00,
2013-03-11 05:00:00,36.1,35.6,28.85,ENE,68,4.0,4.3,98,0.00,,,0.12,VWS V14.01,2013-03-11 09:00:00,
2013-03-11 05:01:00,36.5,36.0,28.85,NE,45,5.4,5.4,98,0.00,,,0.12,VWS V14.01,2013-03-11 09:01:00,
2013-03-11 05:02:00,36.1,35.6,28.85,ENE,68,3.8,4.3,98,0.00,,,0.12,VWS V14.01,2013-03-11 09:02:00,
2013-03-11 05:03:00,36.3,35.8,28.85,ENE,68,4.0,4.0,98,0.00,,,0.12,VWS V14.01,2013-03-11 09:03:00,
2013-03-11 05:04:00,36.3,35.8,28.85,East,90,3.1,4.0,98,0.00,,,0.12,VWS V14.01,2013-03-11 09:04:00,
2013-03-11 05:05:00,36.3,35.8,28.85,ENE,68,3.4,3.8,98,0.00,,,0.12,VWS V14.01,2013-03-11 09:05:00,
2013-03-11 05:06:00,36.9,36.3,28.85,ENE,68,5.8,5.8,98,0.00,,,0.12,VWS V14.01,2013-03-11 09:06:00,
2013-03-11 05:07:00,36.3,35.8,28.85,ENE,68,3.6,3.8,98,0.00,,,0.12,VWS V14.01,2013-03-11 09:07:00,
2013-03-11 05:08:00,36.3,35.8,28.85,East,90,3.1,3.6,98,0.00,,,0.12,VWS V14.01,2013-03-11 09:08:00,
2013-03-11 05:09:00,36.3,35.8,28.85,East,90,3.1,3.1,98,0.00,,,0.12,VWS V14.01,2013-03-11 09:09:00,
2013-03-11 05:10:00,36.5,36.0,28.85,ENE,68,3.1,4.0,98,0.00,,,0.12,VWS V14.01,2013-03-11 09:10:00,
2013-03-11 05:11:00,36.9,36.3,28.88,East,90,4.3,5.8,98,0.00,,,0.12,VWS V14.01,2013-03-11 09:11:00,
2013-03-11 05:12:00,36.7,36.2,28.85,ENE,68,3.1,4.9,98,0.00,,,0.12,VWS V14.01,2013-03-11 09:12:00,
2013-03-11 05:13:00,36.7,36.2,28.85,ENE,68,4.7,4.7,98,0.00,,,0.12,VWS V14.01,2013-03-11 09:13:00,
2013-03-11 05:14:00,36.7,36.2,28.85,ENE,68,3.6,4.7,98,0.00,,,0.12,VWS V14.01,2013-03-11 09:14:00,
2013-03-11 05:15:00,36.7,36.2,28.85,ENE,68,4.0,4.0,98,0.00,,,0.12,VWS V14.01,2013-03-11 09:15:00,
2013-03-11 05:16:00,36.7,36.2,28.85,ENE,68,2.9,4.0,98,0.00,,,0.12,VWS V14.01,2013-03-11 09:16:00,
2013-03-11 05:17:00,36.9,36.3,28.88,East,90,2.7,4.3,98,0.00,,,0.12,VWS V14.01,2013-03-11 09:17:00,
2013-03-11 05:18:00,36.7,36.2,28.85,East,90,2.9,3.8,98,0.00,,,0.12,VWS V14.01,2013-03-11 09:18:00,
2013-03-11 05:19:00,36.7,36.2,28.85,ENE,68,4.3,4.3,98,0.00,,,0.12,VWS V14.01,2013-03-11 09:19:00,
2013-03-11 05:20:00,36.7,36.2,28.85,NE,45,3.8,4.3,98,0.00,,,0.12,VWS V14.01,2013-03-11 09:20:00,
2013-03-11 05:21:00,36.7,36.2,28.85,ENE,68,3.8,3.8,98,0.00,,,0.12,VWS V14.01,2013-03-11 09:21:00,
2013-03-11 05:22:00,36.9,36.3,28.85,ENE,68,3.6,4.3,98,0.00,,,0.12,VWS V14.01,2013-03-11 09:22:00,
2013-03-11 05:23:00,36.9,36.3,28.85,ENE,68,3.8,4.0,98,0.00,,,0.12,VWS V14.01,2013-03-11 09:23:00,
2013-03-11 05:24:00,36.9,36.3,28.85,NE,45,6.5,6.5,98,0.00,,,0.12,VWS V14.01,2013-03-11 09:24:00,
2013-03-11 05:25:00,37.0,36.5,28.85,ENE,68,4.3,6.5,98,0.00,,,0.12,VWS V14.01,2013-03-11 09:25:00,
2013-03-11 05:26:00,37.0,36.5,28.85,ENE,68,4.3,4.3,98,0.00,,,0.12,VWS V14.01,2013-03-11 09:26:00,
2013-03-11 05:27:00,36.7,36.2,28.85,ESE,112,3.8,3.8,98,0.00,,,0.12,VWS V14.01,2013-03-11 09:27:00,
2013-03-11 05:28:00,37.2,36.7,28.85,ENE,68,3.8,4.9,98,0.00,,,0.12,VWS V14.01,2013-03-11 09:28:00,
2013-03-11 05:29:00,37.2,36.7,28.85,ENE,68,4.3,4.3,98,0.00,,,0.12,VWS V14.01,2013-03-11 09:29:00,
2013-03-11 05:30:00,37.2,36.7,28.85,ENE,68,4.3,4.3,98,0.00,,,0.12,VWS V14.01,2013-03-11 09:30:00,
2013-03-11 05:31:00,37.2,36.7,28.85,ENE,68,4.0,4.3,98,0.00,,,0.12,VWS V14.01,2013-03-11 09:31:00,
2013-03-11 05:32:00,36.9,36.3,28.85,ENE,68,3.8,4.7,98,0.00,,,0.12,VWS V14.01,2013-03-11 09:32:00,
2013-03-11 05:33:00,37.2,36.7,28.85,ENE,68,3.6,3.8,98,0.00,,,0.12,VWS V14.01,2013-03-11 09:33:00,
2013-03-11 05:34:00,37.2,36.7,28.85,ENE,68,3.8,3.8,98,0.00,,,0.12,VWS V14.01,2013-03-11 09:34:00,
2013-03-11 05:35:00,37.4,36.9,28.85,ENE,68,4.5,4.5,98,0.00,,,0.12,VWS V14.01,2013-03-11 09:35:00,
2013-03-11 05:36:00,37.4,36.9,28.85,East,90,3.6,4.7,98,0.00,,,0.12,VWS V14.01,2013-03-11 09:36:00,
2013-03-11 05:37:00,36.9,36.3,28.85,ENE,68,5.6,5.6,98,0.00,,,0.12,VWS V14.01,2013-03-11 09:37:00,
2013-03-11 05:38:00,37.4,36.9,28.85,ENE,68,5.4,5.4,98,0.00,,,0.12,VWS V14.01,2013-03-11 09:38:00,
2013-03-11 05:39:00,37.4,36.9,28.85,East,90,4.0,5.4,98,0.00,,,0.12,VWS V14.01,2013-03-11 09:39:00,
2013-03-11 05:40:00,37.4,36.9,28.85,East,90,4.7,4.7,98,0.00,,,0.12,VWS V14.01,2013-03-11 09:40:00,
2013-03-11 05:41:00,37.4,36.9,28.85,NE,45,5.4,5.4,98,0.00,,,0.12,VWS V14.01,2013-03-11 09:41:00,
2013-03-11 05:42:00,36.7,36.2,28.85,ENE,68,3.6,5.6,98,0.00,,,0.12,VWS V14.01,2013-03-11 09:42:00,
2013-03-11 05:43:00,37.6,37.1,28.85,ENE,68,3.8,5.4,98,0.00,,,0.12,VWS V14.01,2013-03-11 09:43:00,
2013-03-11 05:44:00,37.4,36.9,28.85,East,90,3.8,3.8,98,0.00,,,0.12,VWS V14.01,2013-03-11 09:44:00,
2013-03-11 05:45:00,37.6,37.1,28.85,ENE,68,4.3,4.3,98,0.00,,,0.12,VWS V14.01,2013-03-11 09:45:00,
2013-03-11 05:46:00,37.6,37.1,28.85,ENE,68,4.0,4.3,98,0.00,,,0.12,VWS V14.01,2013-03-11 09:46:00,
2013-03-11 05:47:00,36.3,35.8,28.85,ENE,68,5.6,5.6,98,0.00,,,0.12,VWS V14.01,2013-03-11 09:47:00,
2013-03-11 05:48:00,37.6,37.1,28.85,ENE,68,6.0,9.8,98,0.00,,,0.12,VWS V14.01,2013-03-11 09:48:00,
2013-03-11 05:49:00,37.6,37.1,28.85,ENE,68,5.6,8.1,98,0.00,,,0.12,VWS V14.01,2013-03-11 09:49:00,
2013-03-11 05:50:00,37.6,37.1,28.85,East,90,4.0,5.6,98,0.00,,,0.12,VWS V14.01,2013-03-11 09:50:00,
2013-03-11 05:51:00,37.6,37.1,28.85,ENE,68,4.7,7.6,98,0.00,,,0.12,VWS V14.01,2013-03-11 09:51:00,
2013-03-11 05:52:00,36.1,35.6,28.85,NE,45,4.3,4.9,98,0.00,,,0.12,VWS V14.01,2013-03-11 09:52:00,
2013-03-11 05:53:00,37.6,37.1,28.85,East,90,3.8,5.6,98,0.00,,,0.12,VWS V14.01,2013-03-11 09:53:00,
2013-03-11 05:54:00,37.6,37.1,28.85,ENE,68,4.3,5.4,98,0.00,,,0.12,VWS V14.01,2013-03-11 09:54:00,
2013-03-11 05:55:00,37.6,37.1,28.85,ENE,68,4.0,4.3,98,0.00,,,0.12,VWS V14.01,2013-03-11 09:55:00,
2013-03-11 05:56:00,37.6,37.1,28.85,ENE,68,3.6,4.0,98,0.00,,,0.12,VWS V14.01,2013-03-11 09:56:00,
2013-03-11 05:57:00,36.0,35.5,28.85,ENE,68,4.0,4.0,98,0.00,,,0.12,VWS V14.01,2013-03-11 09:57:00,
2013-03-11 05:58:00,37.8,37.2,28.85,ESE,112,4.0,7.4,98,0.00,,,0.12,VWS V14.01,2013-03-11 09:58:00,
2013-03-11 06:00:00,37.8,37.2,28.85,East,90,3.8,6.3,98,0.00,,,0.12,VWS V14.01,2013-03-11 10:00:00,
2013-03-11 06:01:00,37.8,37.2,28.85,East,90,4.9,5.4,98,0.00,,,0.12,VWS V14.01,2013-03-11 10:01:00,
2013-03-11 06:02:00,36.3,35.8,28.85,ENE,68,3.8,3.8,98,0.00,,,0.12,VWS V14.01,2013-03-11 10:02:00,
2013-03-11 06:03:00,37.8,37.2,28.85,East,90,6.9,6.9,98,0.00,,,0.12,VWS V14.01,2013-03-11 10:03:00,
2013-03-11 06:04:00,37.9,37.4,28.85,East,90,5.4,6.9,98,0.00,,,0.12,VWS V14.01,2013-03-11 10:04:00,
2013-03-11 06:05:00,37.9,37.4,28.85,East,90,5.4,6.0,98,0.00,,,0.12,VWS V14.01,2013-03-11 10:05:00,
2013-03-11 06:08:00,36.3,35.8,28.85,East,90,3.1,3.6,98,0.00,,,0.12,VWS V14.01,2013-03-11 10:08:00,
2013-03-11 06:10:00,37.9,37.4,28.85,ENE,68,3.4,5.4,98,0.00,,,0.12,VWS V14.01,2013-03-11 10:10:00,
2013-03-11 06:11:00,37.9,37.4,28.85,ESE,112,4.9,4.9,98,0.00,,,0.12,VWS V14.01,2013-03-11 10:11:00,
2013-03-11 06:12:00,37.9,37.4,28.85,ENE,68,3.8,5.6,98,0.00,,,0.12,VWS V14.01,2013-03-11 10:12:00,
2013-03-11 06:13:00,36.7,36.2,28.85,ENE,68,4.7,4.7,98,0.00,,,0.12,VWS V14.01,2013-03-11 10:13:00,
2013-03-11 06:14:00,38.1,37.6,28.85,East,90,6.0,6.0,98,0.00,,,0.12,VWS V14.01,2013-03-11 10:14:00,
2013-03-11 06:15:00,37.9,37.4,28.85,NE,45,3.8,6.0,98,0.00,,,0.12,VWS V14.01,2013-03-11 10:15:00,
2013-03-11 06:17:00,37.9,37.4,28.85,ENE,68,4.0,4.0,98,0.00,,,0.12,VWS V14.01,2013-03-11 10:17:00,
2013-03-11 06:18:00,36.7,36.2,28.85,East,90,2.9,3.8,98,0.00,,,0.12,VWS V14.01,2013-03-11 10:18:00,
2013-03-11 06:19:00,37.9,37.4,28.85,ENE,68,3.4,3.4,98,0.00,,,0.12,VWS V14.01,2013-03-11 10:19:00,
2013-03-11 06:20:00,37.9,37.4,28.85,ENE,68,3.4,4.0,98,0.00,,,0.12,VWS V14.01,2013-03-11 10:20:00,
2013-03-11 06:21:00,37.9,37.4,28.85,ENE,68,3.4,3.4,98,0.00,,,0.12,VWS V14.01,2013-03-11 10:21:00,
2013-03-11 06:22:00,37.8,37.2,28.85,ENE,68,3.6,5.4,98,0.00,,,0.12,VWS V14.01,2013-03-11 10:22:00,
2013-03-11 06:23:00,36.9,36.3,28.85,ENE,68,3.8,4.0,98,0.00,,,0.12,VWS V14.01,2013-03-11 10:23:00,
2013-03-11 06:24:00,37.8,37.2,28.85,ENE,68,3.1,3.8,98,0.00,,,0.12,VWS V14.01,2013-03-11 10:24:00,
2013-03-11 06:25:00,37.8,37.2,28.85,East,90,3.4,4.0,98,0.00,,,0.12,VWS V14.01,2013-03-11 10:25:00,
2013-03-11 06:26:00,37.8,37.2,28.85,ENE,68,4.0,4.0,98,0.00,,,0.12,VWS V14.01,2013-03-11 10:26:00,
2013-03-11 06:27:00,37.8,37.2,28.85,ENE,68,4.7,4.7,98,0.00,,,0.12,VWS V14.01,2013-03-11 10:27:00,
2013-03-11 06:28:00,37.2,36.7,28.85,ENE,68,3.8,4.0,98,0.00,,,0.12,VWS V14.01,2013-03-11 10:28:00,
2013-03-11 06:29:00,37.6,37.1,28.85,NE,45,4.9,4.9,98,0.00,,,0.12,VWS V14.01,2013-03-11 10:29:00,
2013-03-11 06:30:00,37.6,37.1,28.85,NE,45,4.9,4.9,98,0.00,,,0.12,VWS V14.01,2013-03-11 10:30:00,
2013-03-11 06:31:00,37.8,37.2,28.85,ENE,68,3.4,5.4,98,0.00,,,0.12,VWS V14.01,2013-03-11 10:31:00,
2013-03-11 06:32:00,37.6,37.1,28.85,East,90,2.9,3.6,98,0.00,,,0.12,VWS V14.01,2013-03-11 10:32:00,
2013-03-11 06:33:00,37.2,36.7,28.85,ENE,68,3.8,3.8,98,0.00,,,0.12,VWS V14.01,2013-03-11 10:33:00,
2013-03-11 06:34:00,37.6,37.1,28.85,ENE,68,4.3,5.8,98,0.00,,,0.12,VWS V14.01,2013-03-11 10:34:00,
2013-03-11 06:35:00,37.6,37.1,28.85,ENE,68,3.6,4.9,98,0.00,,,0.12,VWS V14.01,2013-03-11 10:35:00,
2013-03-11 06:36:00,37.6,37.1,28.85,East,90,2.5,3.6,98,0.00,,,0.12,VWS V14.01,2013-03-11 10:36:00,
2013-03-11 06:37:00,37.6,37.1,28.85,ESE,112,4.3,4.3,98,0.00,,,0.12,VWS V14.01,2013-03-11 10:37:00,
2013-03-11 06:38:00,37.4,36.9,28.85,East,90,4.0,5.4,98,0.00,,,0.12,VWS V14.01,2013-03-11 10:38:00,
2013-03-11 06:39:00,37.6,37.1,28.85,ENE,68,3.6,4.3,98,0.00,,,0.12,VWS V14.01,2013-03-11 10:39:00,
2013-03-11 06:40:00,37.6,37.1,28.85,ENE,68,2.9,3.6,98,0.00,,,0.12,VWS V14.01,2013-03-11 10:40:00,
2013-03-11 06:41:00,37.6,37.1,28.85,ESE,112,3.8,3.8,98,0.00,,,0.12,VWS V14.01,2013-03-11 10:41:00,
2013-03-11 06:42:00,37.6,37.1,28.85,East,90,4.0,4.0,98,0.00,,,0.12,VWS V14.01,2013-03-11 10:42:00,
2013-03-11 06:43:00,37.4,36.9,28.85,East,90,3.8,3.8,98,0.00,,,0.12,VWS V14.01,2013-03-11 10:43:00,
2013-03-11 06:44:00,37.6,37.1,28.85,ENE,68,3.4,4.3,98,0.00,,,0.12,VWS V14.01,2013-03-11 10:44:00,
2013-03-11 06:45:00,37.6,37.1,28.85,East,90,2.5,3.4,98,0.00,,,0.12,VWS V14.01,2013-03-11 10:45:00,
2013-03-11 06:46:00,37.6,37.1,28.85,NNE,22,4.0,4.9,98,0.00,,,0.12,VWS V14.01,2013-03-11 10:46:00,
2013-03-11 06:47:00,37.6,37.1,28.85,ENE,68,3.6,4.0,98,0.00,,,0.12,VWS V14.01,2013-03-11 10:47:00,
2013-03-11 06:48:00,37.6,37.1,28.85,ENE,68,3.1,3.8,98,0.00,,,0.12,VWS V14.01,2013-03-11 10:48:00,
2013-03-11 06:49:00,37.6,37.1,28.85,ENE,68,5.6,8.1,98,0.00,,,0.12,VWS V14.01,2013-03-11 10:49:00,
2013-03-11 06:50:00,37.6,37.1,28.85,ENE,68,4.0,4.9,98,0.00,,,0.12,VWS V14.01,2013-03-11 10:50:00,
2013-03-11 06:51:00,37.8,37.2,28.85,ENE,68,3.4,4.9,98,0.00,,,0.12,VWS V14.01,2013-03-11 10:51:00,
2013-03-11 06:52:00,37.8,37.2,28.82,ENE,68,3.4,4.3,98,0.00,,,0.12,VWS V14.01,2013-03-11 10:52:00,
2013-03-11 06:53:00,37.9,37.4,28.82,ENE,68,7.6,7.6,98,0.00,,,0.12,VWS V14.01,2013-03-11 10:53:00,
2013-03-11 06:54:00,37.6,37.1,28.85,ENE,68,4.3,5.4,98,0.00,,,0.12,VWS V14.01,2013-03-11 10:54:00,
2013-03-11 06:55:00,37.9,37.4,28.82,NNE,22,3.6,6.3,98,0.00,,,0.12,VWS V14.01,2013-03-11 10:55:00,
2013-03-11 06:56:00,37.9,37.4,28.82,East,90,3.6,3.6,98,0.00,,,0.12,VWS V14.01,2013-03-11 10:56:00,
2013-03-11 06:57:00,37.9,37.4,28.82,ENE,68,4.0,4.0,98,0.00,,,0.12,VWS V14.01,2013-03-11 10:57:00,
2013-03-11 06:58:00,37.9,37.4,28.82,East,90,5.4,5.4,98,0.00,,,0.12,VWS V14.01,2013-03-11 10:58:00,
2013-03-11 06:59:00,37.8,37.2,28.85,East,90,3.8,6.3,98,0.00,,,0.12,VWS V14.01,2013-03-11 10:59:00,
2013-03-11 07:00:00,37.9,37.4,28.82,East,90,4.3,5.4,98,0.00,,,0.12,VWS V14.01,2013-03-11 11:00:00,
2013-03-11 07:01:00,38.1,37.6,28.82,NE,45,3.4,4.3,98,0.00,,,0.12,VWS V14.01,2013-03-11 11:01:00,
2013-03-11 07:02:00,38.1,37.6,28.82,NE,45,2.9,4.3,98,0.04,,,0.16,VWS V14.01,2013-03-11 11:02:00,
2013-03-11 07:03:00,38.1,37.6,28.82,East,90,3.6,3.6,98,0.04,,,0.16,VWS V14.01,2013-03-11 11:03:00,
2013-03-11 07:04:00,37.9,37.4,28.85,East,90,5.4,6.9,98,0.00,,,0.12,VWS V14.01,2013-03-11 11:04:00,
2013-03-11 07:05:00,38.1,37.6,28.82,ENE,68,2.5,3.8,98,0.04,,,0.16,VWS V14.01,2013-03-11 11:05:00,
2013-03-11 07:06:00,38.1,37.6,28.82,East,90,2.9,3.1,98,0.04,,,0.16,VWS V14.01,2013-03-11 11:06:00,
2013-03-11 07:07:00,38.1,37.6,28.82,East,90,2.7,2.9,98,0.04,,,0.16,VWS V14.01,2013-03-11 11:07:00,
2013-03-11 07:08:00,38.1,37.6,28.82,ENE,68,2.9,3.4,98,0.04,,,0.16,VWS V14.01,2013-03-11 11:08:00,
2013-03-11 07:09:00,37.9,37.4,28.85,ENE,68,3.4,5.4,98,0.00,,,0.12,VWS V14.01,2013-03-11 11:09:00,
2013-03-11 07:10:00,37.9,37.4,28.82,ENE,68,4.3,4.3,98,0.04,,,0.16,VWS V14.01,2013-03-11 11:10:00,
2013-03-11 07:11:00,37.9,37.4,28.82,East,90,3.8,4.3,98,0.04,,,0.16,VWS V14.01,2013-03-11 11:11:00,
2013-03-11 07:12:00,37.9,37.4,28.82,East,90,2.7,3.8,98,0.04,,,0.16,VWS V14.01,2013-03-11 11:12:00,
2013-03-11 07:13:00,37.9,37.4,28.82,ENE,68,2.9,4.7,98,0.04,,,0.16,VWS V14.01,2013-03-11 11:13:00,
2013-03-11 07:14:00,38.1,37.6,28.85,ENE,68,3.8,6.0,98,0.00,,,0.12,VWS V14.01,2013-03-11 11:14:00,
2013-03-11 07:15:00,37.9,37.4,28.82,ENE,68,4.3,4.3,98,0.04,,,0.16,VWS V14.01,2013-03-11 11:15:00,
2013-03-11 07:16:00,37.9,37.4,28.82,ENE,68,2.0,4.3,98,0.04,,,0.16,VWS V14.01,2013-03-11 11:16:00,
2013-03-11 07:17:00,37.9,37.4,28.82,ENE,68,2.0,2.5,98,0.04,,,0.16,VWS V14.01,2013-03-11 11:17:00,
2013-03-11 07:18:00,37.9,37.4,28.82,ESE,112,4.9,5.4,98,0.04,,,0.16,VWS V14.01,2013-03-11 11:18:00,
2013-03-11 07:19:00,37.9,37.4,28.85,ENE,68,4.0,4.0,98,0.00,,,0.12,VWS V14.01,2013-03-11 11:19:00,
2013-03-11 07:20:00,37.9,37.4,28.82,East,90,2.5,4.9,98,0.04,,,0.16,VWS V14.01,2013-03-11 11:20:00,
2013-03-11 07:21:00,37.9,37.4,28.82,NE,45,3.6,4.7,98,0.04,,,0.16,VWS V14.01,2013-03-11 11:21:00,
2013-03-11 07:22:00,38.3,37.8,28.82,East,90,5.8,5.8,98,0.04,,,0.16,VWS V14.01,2013-03-11 11:22:00,
2013-03-11 07:23:00,38.3,37.8,28.82,East,90,5.4,5.8,98,0.04,,,0.16,VWS V14.01,2013-03-11 11:23:00,
2013-03-11 07:24:00,37.8,37.2,28.85,East,90,3.1,4.0,98,0.00,,,0.12,VWS V14.01,2013-03-11 11:24:00,
2013-03-11 07:25:00,38.5,38.0,28.82,NE,45,7.4,7.4,98,0.04,,,0.16,VWS V14.01,2013-03-11 11:25:00,
2013-03-11 07:26:00,38.5,38.0,28.82,ENE,68,3.8,7.4,98,0.04,,,0.16,VWS V14.01,2013-03-11 11:26:00,
2013-03-11 07:27:00,38.5,38.0,28.82,East,90,5.6,6.3,98,0.04,,,0.16,VWS V14.01,2013-03-11 11:27:00,
2013-03-11 07:28:00,38.5,38.0,28.82,ESE,112,3.8,5.6,98,0.04,,,0.16,VWS V14.01,2013-03-11 11:28:00,
2013-03-11 07:29:00,38.5,38.0,28.82,ESE,112,5.8,5.8,98,0.04,,,0.16,VWS V14.01,2013-03-11 11:29:00,
2013-03-11 07:30:00,37.6,37.1,28.85,NE,45,4.9,4.9,98,0.00,,,0.12,VWS V14.01,2013-03-11 11:30:00,
2013-03-11 07:31:00,38.5,38.0,28.82,ENE,68,2.9,5.4,98,0.04,,,0.16,VWS V14.01,2013-03-11 11:31:00,
2013-03-11 07:32:00,38.5,38.0,28.82,NE,45,3.8,5.4,98,0.04,,,0.16,VWS V14.01,2013-03-11 11:32:00,
2013-03-11 07:33:00,38.5,38.0,28.82,ENE,68,3.6,4.3,98,0.04,,,0.16,VWS V14.01,2013-03-11 11:33:00,
2013-03-11 07:34:00,38.5,38.0,28.82,ESE,112,4.3,4.3,98,0.04,,,0.16,VWS V14.01,2013-03-11 11:34:00,
2013-03-11 07:35:00,37.6,37.1,28.85,ENE,68,3.6,4.9,98,0.00,,,0.12,VWS V14.01,2013-03-11 11:35:00,
2013-03-11 07:36:00,38.5,38.0,28.82,East,90,3.6,6.3,98,0.04,,,0.16,VWS V14.01,2013-03-11 11:36:00,
2013-03-11 07:39:00,38.7,38.2,28.82,ENE,68,5.4,5.4,98,0.04,,,0.16,VWS V14.01,2013-03-11 11:39:00,
2013-03-11 07:40:00,37.6,37.1,28.85,ENE,68,2.9,3.6,98,0.00,,,0.12,VWS V14.01,2013-03-11 11:40:00,
2013-03-11 07:41:00,38.7,38.2,28.82,East,90,4.3,5.4,98,0.04,,,0.16,VWS V14.01,2013-03-11 11:41:00,
2013-03-11 07:42:00,38.7,38.2,28.82,SE,135,4.0,4.3,98,0.04,,,0.16,VWS V14.01,2013-03-11 11:42:00,
2013-03-11 07:43:00,38.7,38.2,28.82,East,90,4.7,6.3,98,0.04,,,0.16,VWS V14.01,2013-03-11 11:43:00,
2013-03-11 07:44:00,38.5,38.0,28.82,East,90,2.5,8.1,98,0.04,,,0.16,VWS V14.01,2013-03-11 11:44:00,
2013-03-11 07:45:00,37.6,37.1,28.85,East,90,2.5,3.4,98,0.00,,,0.12,VWS V14.01,2013-03-11 11:45:00,
2013-03-11 07:46:00,38.7,38.2,28.82,ENE,68,5.8,6.3,98,0.04,,,0.16,VWS V14.01,2013-03-11 11:46:00,
2013-03-11 07:48:00,38.7,38.2,28.82,ENE,68,3.6,5.4,98,0.04,,,0.16,VWS V14.01,2013-03-11 11:48:00,
2013-03-11 07:49:00,38.7,38.2,28.82,East,90,3.8,5.6,98,0.04,,,0.16,VWS V14.01,2013-03-11 11:49:00,
2013-03-11 07:50:00,37.8,37.2,28.85,East,90,4.0,4.0,98,0.00,,,0.12,VWS V14.01,2013-03-11 11:50:00,
2013-03-11 07:51:00,38.7,38.2,28.82,ENE,68,4.7,5.6,98,0.04,,,0.16,VWS V14.01,2013-03-11 11:51:00,
2013-03-11 07:52:00,38.7,38.2,28.82,ENE,68,4.3,4.7,98,0.04,,,0.16,VWS V14.01,2013-03-11 11:52:00,
2013-03-11 07:53:00,38.7,38.2,28.85,ENE,68,3.8,4.3,98,0.04,,,0.16,VWS V14.01,2013-03-11 11:53:00,
2013-03-11 07:54:00,38.7,38.2,28.85,ENE,68,3.8,4.3,98,0.04,,,0.16,VWS V14.01,2013-03-11 11:54:00,
2013-03-11 07:55:00,37.9,37.4,28.82,ENE,68,2.9,3.6,98,0.00,,,0.12,VWS V14.01,2013-03-11 11:55:00,
2013-03-11 07:56:00,38.7,38.2,28.85,ESE,112,4.9,4.9,98,0.04,,,0.16,VWS V14.01,2013-03-11 11:56:00,
2013-03-11 07:57:00,38.7,38.2,28.85,ENE,68,3.8,4.9,98,0.04,,,0.16,VWS V14.01,2013-03-11 11:57:00,
2013-03-11 07:58:00,38.7,38.2,28.85,ENE,68,3.4,3.8,98,0.04,,,0.16,VWS V14.01,2013-03-11 11:58:00,
2013-03-11 07:59:00,38.7,38.2,28.85,East,90,3.1,4.3,98,0.04,,,0.16,VWS V14.01,2013-03-11 11:59:00,
2013-03-11 08:00:00,37.9,37.4,28.82,East,90,4.3,4.3,98,0.00,,,0.12,VWS V14.01,2013-03-11 12:00:00,
2013-03-11 08:01:00,38.8,38.3,28.85,East,90,3.8,4.7,98,0.04,,,0.16,VWS V14.01,2013-03-11 12:01:00,
2013-03-11 08:02:00,38.8,38.3,28.85,ENE,68,3.1,3.8,98,0.04,,,0.16,VWS V14.01,2013-03-11 12:02:00,
2013-03-11 08:03:00,38.8,38.3,28.85,ESE,112,2.7,3.1,98,0.00,,,0.16,VWS V14.01,2013-03-11 12:03:00,
2013-03-11 08:04:00,38.8,38.3,28.85,ESE,112,3.4,4.7,98,0.00,,,0.16,VWS V14.01,2013-03-11 12:04:00,
2013-03-11 08:05:00,38.1,37.6,28.82,East,90,2.5,2.5,98,0.04,,,0.16,VWS V14.01,2013-03-11 12:05:00,
2013-03-11 08:06:00,38.8,38.3,28.85,East,90,3.1,3.1,98,0.00,,,0.16,VWS V14.01,2013-03-11 12:06:00,
2013-03-11 08:07:00,38.8,38.3,28.85,East,90,2.7,3.1,98,0.00,,,0.16,VWS V14.01,2013-03-11 12:07:00,
2013-03-11 08:08:00,38.8,38.3,28.85,East,90,2.7,4.9,98,0.00,,,0.16,VWS V14.01,2013-03-11 12:08:00,
2013-03-11 08:09:00,38.8,38.3,28.85,ESE,112,3.4,4.0,98,0.00,,,0.16,VWS V14.01,2013-03-11 12:09:00,
2013-03-11 08:10:00,37.9,37.4,28.82,ENE,68,3.1,4.3,98,0.04,,,0.16,VWS V14.01,2013-03-11 12:10:00,
2013-03-11 08:11:00,38.8,38.3,28.85,East,90,3.8,3.8,98,0.00,,,0.16,VWS V14.01,2013-03-11 12:11:00,
2013-03-11 08:12:00,38.8,38.3,28.85,ESE,112,3.1,3.8,98,0.00,,,0.16,VWS V14.01,2013-03-11 12:12:00,
2013-03-11 08:13:00,38.8,38.3,28.85,ENE,68,2.2,3.1,98,0.00,,,0.16,VWS V14.01,2013-03-11 12:13:00,
2013-03-11 08:14:00,38.8,38.3,28.85,ESE,112,1.3,2.2,98,0.00,,,0.16,VWS V14.01,2013-03-11 12:14:00,
2013-03-11 08:15:00,37.9,37.4,28.82,ENE,68,3.6,4.3,98,0.04,,,0.16,VWS V14.01,2013-03-11 12:15:00,
2013-03-11 08:16:00,38.8,38.3,28.85,East,90,2.0,2.9,98,0.00,,,0.16,VWS V14.01,2013-03-11 12:16:00,
2013-03-11 08:17:00,38.8,38.3,28.85,East,90,2.0,2.0,98,0.00,,,0.16,VWS V14.01,2013-03-11 12:17:00,
2013-03-11 08:18:00,38.8,38.3,28.85,ENE,68,2.7,4.0,98,0.00,,,0.16,VWS V14.01,2013-03-11 12:18:00,
2013-03-11 08:19:00,38.8,38.3,28.85,East,90,1.6,2.7,98,0.00,,,0.16,VWS V14.01,2013-03-11 12:19:00,
2013-03-11 08:20:00,37.9,37.4,28.82,East,90,2.5,4.9,98,0.04,,,0.16,VWS V14.01,2013-03-11 12:20:00,
2013-03-11 08:21:00,38.8,38.3,28.85,East,90,2.9,2.9,98,0.00,,,0.16,VWS V14.01,2013-03-11 12:21:00,
2013-03-11 08:22:00,38.8,38.3,28.85,ENE,68,3.6,3.8,98,0.00,,,0.16,VWS V14.01,2013-03-11 12:22:00,
2013-03-11 08:23:00,38.8,38.3,28.85,ESE,112,5.6,5.6,98,0.00,,,0.16,VWS V14.01,2013-03-11 12:23:00,
2013-03-11 08:24:00,39.0,38.5,28.85,East,90,3.8,5.6,98,0.00,,,0.16,VWS V14.01,2013-03-11 12:24:00,
2013-03-11 08:25:00,39.0,38.5,28.85,East,90,5.6,5.6,98,0.00,,,0.16,VWS V14.01,2013-03-11 12:25:00,
2013-03-11 08:26:00,38.5,38.0,28.82,ENE,68,3.8,7.4,98,0.04,,,0.16,VWS V14.01,2013-03-11 12:26:00,
2013-03-11 08:27:00,39.0,38.5,28.85,East,90,2.5,2.5,98,0.00,,,0.16,VWS V14.01,2013-03-11 12:27:00,
2013-03-11 08:28:00,39.0,38.5,28.85,East,90,3.8,3.8,98,0.00,,,0.16,VWS V14.01,2013-03-11 12:28:00,
2013-03-11 08:31:00,38.5,38.0,28.82,East,90,4.5,5.4,98,0.04,,,0.16,VWS V14.01,2013-03-11 12:31:00,
2013-03-11 08:32:00,39.0,38.5,28.85,ESE,112,3.6,3.6,98,0.00,,,0.16,VWS V14.01,2013-03-11 12:32:00,
2013-03-11 08:33:00,39.0,38.5,28.85,ENE,68,4.3,4.3,98,0.00,,,0.16,VWS V14.01,2013-03-11 12:33:00,
2013-03-11 08:34:00,39.0,38.5,28.85,East,90,2.9,4.3,98,0.00,,,0.16,VWS V14.01,2013-03-11 12:34:00,
2013-03-11 08:35:00,39.0,38.5,28.85,ESE,112,5.4,5.4,98,0.00,,,0.16,VWS V14.01,2013-03-11 12:35:00,
2013-03-11 08:36:00,38.5,38.0,28.82,East,90,3.6,6.3,98,0.04,,,0.16,VWS V14.01,2013-03-11 12:36:00,
2013-03-11 08:37:00,39.2,38.7,28.85,East,90,2.5,4.0,98,0.00,,,0.16,VWS V14.01,2013-03-11 12:37:00,
2013-03-11 08:38:00,39.2,38.7,28.85,ENE,68,2.9,4.7,98,0.00,,,0.16,VWS V14.01,2013-03-11 12:38:00,
2013-03-11 08:39:00,39.2,38.7,28.85,East,90,2.9,5.8,98,0.00,,,0.16,VWS V14.01,2013-03-11 12:39:00,
2013-03-11 08:40:00,39.2,38.7,28.85,East,90,4.0,4.3,98,0.00,,,0.16,VWS V14.01,2013-03-11 12:40:00,
2013-03-11 08:41:00,38.7,38.2,28.82,East,90,4.3,5.4,98,0.04,,,0.16,VWS V14.01,2013-03-11 12:41:00,
2013-03-11 08:42:00,39.2,38.7,28.85,ESE,112,2.0,2.9,98,0.00,,,0.16,VWS V14.01,2013-03-11 12:42:00,
2013-03-11 08:43:00,39.2,38.7,28.85,East,90,1.6,4.3,98,0.00,,,0.16,VWS V14.01,2013-03-11 12:43:00,
2013-03-11 08:44:00,39.2,38.7,28.85,East,90,3.4,3.8,98,0.00,,,0.16,VWS V14.01,2013-03-11 12:44:00,
2013-03-11 08:45:00,39.2,38.7,28.85,ESE,112,3.6,3.6,98,0.00,,,0.16,VWS V14.01,2013-03-11 12:45:00,
2013-03-11 08:46:00,38.7,38.2,28.82,East,90,5.6,5.8,98,0.04,,,0.16,VWS V14.01,2013-03-11 12:46:00,
2013-03-11 08:47:00,39.2,38.7,28.85,East,90,3.8,4.3,98,0.00,,,0.16,VWS V14.01,2013-03-11 12:47:00,
2013-03-11 08:48:00,39.2,38.7,28.85,East,90,2.7,3.8,98,0.00,,,0.16,VWS V14.01,2013-03-11 12:48:00,
2013-03-11 08:49:00,39.2,38.7,28.85,ENE,68,3.6,3.6,98,0.00,,,0.16,VWS V14.01,2013-03-11 12:49:00,
2013-03-11 08:50:00,39.2,38.7,28.85,ESE,112,4.0,4.0,98,0.00,,,0.16,VWS V14.01,2013-03-11 12:50:00,
2013-03-11 08:51:00,39.2,38.7,28.85,East,90,1.6,4.7,98,0.00,,,0.16,VWS V14.01,2013-03-11 12:51:00,
2013-03-11 08:52:00,38.7,38.2,28.82,ENE,68,4.3,4.7,98,0.04,,,0.16,VWS V14.01,2013-03-11 12:52:00,
2013-03-11 08:53:00,39.4,38.9,28.85,ENE,68,5.4,6.0,98,0.00,,,0.16,VWS V14.01,2013-03-11 12:53:00,
2013-03-11 08:54:00,39.4,38.9,28.85,East,90,2.7,5.4,98,0.00,,,0.16,VWS V14.01,2013-03-11 12:54:00,
2013-03-11 08:55:00,39.4,38.9,28.85,ESE,112,2.9,4.0,98,0.00,,,0.16,VWS V14.01,2013-03-11 12:55:00,
2013-03-11 08:56:00,39.4,38.9,28.85,East,90,2.9,3.8,98,0.00,,,0.16,VWS V14.01,2013-03-11 12:56:00,
2013-03-11 08:57:00,38.7,38.2,28.85,NE,45,3.6,3.8,98,0.04,,,0.16,VWS V14.01,2013-03-11 12:57:00,
2013-03-11 08:58:00,39.4,38.9,28.85,East,90,3.6,4.5,98,0.00,,,0.16,VWS V14.01,2013-03-11 12:58:00,
2013-03-11 08:59:00,39.4,38.9,28.85,East,90,3.4,5.8,98,0.00,,,0.16,VWS V14.01,2013-03-11 12:59:00,
2013-03-11 09:00:00,39.4,38.9,28.85,ESE,112,3.8,3.8,98,0.00,,,0.16,VWS V14.01,2013-03-11 13:00:00,
2013-03-11 09:01:00,39.4,38.9,28.85,ESE,112,3.6,4.3,98,0.00,,,0.16,VWS V14.01,2013-03-11 13:01:00,
2013-03-11 09:02:00,38.8,38.3,28.85,ENE,68,2.0,3.1,98,0.00,,,0.16,VWS V14.01,2013-03-11 13:02:00,
2013-03-11 09:03:00,39.4,38.9,28.85,ENE,68,5.4,5.4,98,0.00,,,0.16,VWS V14.01,2013-03-11 13:03:00,
2013-03-11 09:04:00,39.4,38.9,28.85,East,90,4.7,5.4,98,0.00,,,0.16,VWS V14.01,2013-03-11 13:04:00,
2013-03-11 09:05:00,39.4,38.9,28.85,ESE,112,3.6,4.7,98,0.00,,,0.16,VWS V14.01,2013-03-11 13:05:00,
2013-03-11 09:06:00,39.4,38.9,28.85,East,90,3.8,3.8,98,0.00,,,0.16,VWS V14.01,2013-03-11 13:06:00,
2013-03-11 09:07:00,39.7,39.2,28.85,SE,135,4.0,7.6,98,0.00,,,0.16,VWS V14.01,2013-03-11 13:07:00,
2013-03-11 09:08:00,38.8,38.3,28.85,East,90,2.7,4.9,98,0.00,,,0.16,VWS V14.01,2013-03-11 13:08:00,
2013-03-11 09:09:00,39.7,39.2,28.85,ESE,112,5.6,5.6,98,0.00,,,0.16,VWS V14.01,2013-03-11 13:09:00,
2013-03-11 09:10:00,39.7,39.2,28.85,East,90,3.4,5.6,98,0.00,,,0.16,VWS V14.01,2013-03-11 13:10:00,
2013-03-11 09:11:00,39.7,39.2,28.85,East,90,2.0,3.8,98,0.00,,,0.16,VWS V14.01,2013-03-11 13:11:00,
2013-03-11 09:12:00,39.7,39.2,28.85,ENE,68,4.0,4.0,98,0.00,,,0.16,VWS V14.01,2013-03-11 13:12:00,
2013-03-11 09:13:00,38.8,38.3,28.85,ENE,68,2.2,3.1,98,0.00,,,0.16,VWS V14.01,2013-03-11 13:13:00,
2013-03-11 09:14:00,39.7,39.2,28.85,East,90,2.9,2.9,98,0.00,,,0.16,VWS V14.01,2013-03-11 13:14:00,
2013-03-11 09:15:00,39.7,39.2,28.85,East,90,2.9,2.9,98,0.00,,,0.16,VWS V14.01,2013-03-11 13:15:00,
2013-03-11 09:16:00,39.7,39.2,28.85,East,90,2.9,2.9,98,0.00,,,0.16,VWS V14.01,2013-03-11 13:16:00,
2013-03-11 09:17:00,39.7,39.2,28.85,East,90,2.9,2.9,98,0.00,,,0.16,VWS V14.01,2013-03-11 13:17:00,
2013-03-11 09:18:00,38.8,38.3,28.85,ENE,68,2.7,4.0,98,0.00,,,0.16,VWS V14.01,2013-03-11 13:18:00,
2013-03-11 09:19:00,39.7,39.2,28.85,ESE,112,2.5,3.4,98,0.00,,,0.16,VWS V14.01,2013-03-11 13:19:00,
2013-03-11 09:21:00,39.7,39.2,28.85,East,90,2.5,3.1,98,0.00,,,0.16,VWS V14.01,2013-03-11 13:21:00,
2013-03-11 09:22:00,39.9,39.4,28.85,ENE,68,2.0,2.5,98,0.00,,,0.16,VWS V14.01,2013-03-11 13:22:00,
2013-03-11 09:23:00,38.8,38.3,28.85,ESE,112,5.6,5.6,98,0.00,,,0.16,VWS V14.01,2013-03-11 13:23:00,
2013-03-11 09:24:00,39.9,39.4,28.85,East,90,1.6,2.9,98,0.00,,,0.16,VWS V14.01,2013-03-11 13:24:00,
2013-03-11 09:25:00,39.9,39.4,28.85,ENE,68,0.0,1.6,98,0.00,,,0.16,VWS V14.01,2013-03-11 13:25:00,
2013-03-11 09:26:00,39.9,39.4,28.85,ENE,68,0.0,1.6,98,0.00,,,0.16,VWS V14.01,2013-03-11 13:26:00,
2013-03-11 09:27:00,39.9,39.4,28.85,ENE,68,0.0,2.2,98,0.00,,,0.16,VWS V14.01,2013-03-11 13:27:00,
2013-03-11 09:28:00,39.0,38.5,28.85,East,90,3.8,3.8,98,0.00,,,0.16,VWS V14.01,2013-03-11 13:28:00,
2013-03-11 09:29:00,40.1,39.6,28.85,ENE,68,1.1,1.1,98,0.00,,,0.16,VWS V14.01,2013-03-11 13:29:00,
2013-03-11 09:30:00,40.1,39.6,28.85,ENE,68,0.0,1.1,98,0.00,,,0.16,VWS V14.01,2013-03-11 13:30:00,
2013-03-11 09:31:00,40.1,39.6,28.85,ENE,68,0.0,0.0,98,0.00,,,0.16,VWS V14.01,2013-03-11 13:31:00,
2013-03-11 09:32:00,40.1,39.6,28.85,ENE,68,0.0,0.0,98,0.00,,,0.16,VWS V14.01,2013-03-11 13:32:00,
2013-03-11 09:33:00,39.0,38.5,28.85,ENE,68,4.3,4.3,98,0.00,,,0.16,VWS V14.01,2013-03-11 13:33:00,
2013-03-11 09:34:00,40.1,39.6,28.85,ENE,68,0.0,0.0,98,0.00,,,0.16,VWS V14.01,2013-03-11 13:34:00,
2013-03-11 09:35:00,40.3,39.8,28.85,ENE,68,0.0,0.0,98,0.00,,,0.16,VWS V14.01,2013-03-11 13:35:00,
2013-03-11 09:36:00,40.3,39.8,28.85,ENE,68,0.0,0.0,98,0.00,,,0.16,VWS V14.01,2013-03-11 13:36:00,
2013-03-11 09:37:00,40.3,39.8,28.85,ENE,68,0.0,0.0,98,0.00,,,0.16,VWS V14.01,2013-03-11 13:37:00,
2013-03-11 09:38:00,39.2,38.7,28.85,ENE,68,2.7,5.8,98,0.00,,,0.16,VWS V14.01,2013-03-11 13:38:00,
2013-03-11 09:39:00,40.5,39.9,28.85,ENE,68,0.0,0.0,98,0.00,,,0.16,VWS V14.01,2013-03-11 13:39:00,
2013-03-11 09:40:00,40.5,39.9,28.85,ENE,68,0.0,0.0,98,0.00,,,0.16,VWS V14.01,2013-03-11 13:40:00,
2013-03-11 09:41:00,40.5,39.9,28.85,ENE,68,0.0,0.0,98,0.00,,,0.16,VWS V14.01,2013-03-11 13:41:00,
2013-03-11 09:42:00,40.6,40.1,28.85,ENE,68,0.0,0.0,98,0.00,,,0.16,VWS V14.01,2013-03-11 13:42:00,
2013-03-11 09:43:00,39.2,38.7,28.85,ENE,68,3.4,3.8,98,0.00,,,0.16,VWS V14.01,2013-03-11 13:43:00,
2013-03-11 09:44:00,40.6,40.1,28.85,ENE,68,0.0,0.0,98,0.00,,,0.16,VWS V14.01,2013-03-11 13:44:00,
2013-03-11 09:45:00,40.8,40.3,28.85,ENE,68,0.0,0.0,98,0.00,,,0.16,VWS V14.01,2013-03-11 13:45:00,
2013-03-11 09:46:00,41.0,40.5,28.85,ENE,68,0.0,0.0,98,0.00,,,0.16,VWS V14.01,2013-03-11 13:46:00,
2013-03-11 09:47:00,41.2,40.7,28.85,ENE,68,0.0,0.0,98,0.00,,,0.16,VWS V14.01,2013-03-11 13:47:00,
2013-03-11 09:48:00,39.2,38.7,28.85,East,90,2.7,3.8,98,0.00,,,0.16,VWS V14.01,2013-03-11 13:48:00,
2013-03-11 09:49:00,41.5,41.0,28.85,ENE,68,0.0,0.0,98,0.00,,,0.16,VWS V14.01,2013-03-11 13:49:00,
2013-03-11 09:50:00,41.5,41.0,28.85,ENE,68,0.0,0.0,98,0.00,,,0.16,VWS V14.01,2013-03-11 13:50:00,
2013-03-11 09:52:00,41.7,41.2,28.85,ENE,68,0.0,0.0,98,0.00,,,0.16,VWS V14.01,2013-03-11 13:52:00,
2013-03-11 09:53:00,39.2,38.7,28.85,ESE,112,4.3,6.0,98,0.00,,,0.16,VWS V14.01,2013-03-11 13:53:00,
2013-03-11 09:54:00,41.7,41.2,28.85,ENE,68,0.0,0.0,98,0.00,,,0.16,VWS V14.01,2013-03-11 13:54:00,
2013-03-11 09:55:00,41.7,41.2,28.85,ENE,68,0.0,0.0,98,0.00,,,0.16,VWS V14.01,2013-03-11 13:55:00,
2013-03-11 09:56:00,41.7,41.2,28.85,ENE,68,0.0,0.0,98,0.00,,,0.16,VWS V14.01,2013-03-11 13:56:00,
2013-03-11 09:57:00,41.7,41.2,28.85,ENE,68,0.0,0.0,98,0.00,,,0.16,VWS V14.01,2013-03-11 13:57:00,
2013-03-11 09:58:00,39.4,38.9,28.85,ENE,68,4.0,5.8,98,0.00,,,0.16,VWS V14.01,2013-03-11 13:58:00,
2013-03-11 09:59:00,41.5,41.0,28.85,ENE,68,0.0,0.0,98,0.00,,,0.16,VWS V14.01,2013-03-11 13:59:00,
2013-03-11 10:00:00,41.5,41.0,28.85,ENE,68,0.0,0.0,98,0.00,,,0.16,VWS V14.01,2013-03-11 14:00:00,
2013-03-11 10:01:00,41.5,41.0,28.85,ENE,68,0.0,0.0,98,0.00,,,0.16,VWS V14.01,2013-03-11 14:01:00,
2013-03-11 10:02:00,41.5,41.0,28.85,ENE,68,0.0,0.0,98,0.00,,,0.16,VWS V14.01,2013-03-11 14:02:00,
2013-03-11 10:03:00,41.5,41.0,28.85,ENE,68,0.0,0.0,98,0.00,,,0.16,VWS V14.01,2013-03-11 14:03:00,
2013-03-11 10:04:00,39.4,38.9,28.85,East,90,3.4,5.4,98,0.00,,,0.16,VWS V14.01,2013-03-11 14:04:00,
2013-03-11 10:05:00,41.5,41.0,28.85,ENE,68,0.0,0.0,98,0.00,,,0.16,VWS V14.01,2013-03-11 14:05:00,
2013-03-11 10:06:00,41.5,41.0,28.85,ENE,68,0.0,0.0,98,0.00,,,0.16,VWS V14.01,2013-03-11 14:06:00,
2013-03-11 10:07:00,41.5,41.0,28.85,ENE,68,0.0,0.0,98,0.00,,,0.16,VWS V14.01,2013-03-11 14:07:00,
2013-03-11 10:08:00,41.5,41.0,28.85,ENE,68,0.0,0.0,98,0.00,,,0.16,VWS V14.01,2013-03-11 14:08:00,
2013-03-11 10:09:00,39.7,39.2,28.85,ENE,68,5.6,5.6,98,0.00,,,0.16,VWS V14.01,2013-03-11 14:09:00,
2013-03-11 10:10:00,41.5,41.0,28.82,ENE,68,0.0,0.0,98,0.00,,,0.16,VWS V14.01,2013-03-11 14:10:00,
2013-03-11 10:11:00,41.5,41.0,28.82,ENE,68,0.0,0.0,98,0.00,,,0.16,VWS V14.01,2013-03-11 14:11:00,
2013-03-11 10:12:00,41.5,41.0,28.82,ENE,68,0.0,0.0,98,0.00,,,0.16,VWS V14.01,2013-03-11 14:12:00,
2013-03-11 10:13:00,41.5,41.0,28.82,ENE,68,0.0,0.0,98,0.00,,,0.16,VWS V14.01,2013-03-11 14:13:00,
2013-03-11 10:14:00,39.7,39.2,28.85,ESE,112,2.9,2.9,98,0.00,,,0.16,VWS V14.01,2013-03-11 14:14:00,
2013-03-11 10:16:00,41.5,41.0,28.82,ENE,68,0.0,0.0,98,0.00,,,0.16,VWS V14.01,2013-03-11 14:16:00,
2013-03-11 10:17:00,41.7,41.2,28.82,ENE,68,0.0,0.0,98,0.00,,,0.16,VWS V14.01,2013-03-11 14:17:00,
2013-03-11 10:18:00,41.7,41.2,28.82,ENE,68,0.0,0.0,98,0.00,,,0.16,VWS V14.01,2013-03-11 14:18:00,
2013-03-11 10:19:00,39.7,39.2,28.85,ESE,112,2.5,3.4,98,0.00,,,0.16,VWS V14.01,2013-03-11 14:19:00,
2013-03-11 10:20:00,41.7,41.2,28.82,ENE,68,0.0,0.0,98,0.00,,,0.16,VWS V14.01,2013-03-11 14:20:00,
2013-03-11 10:21:00,41.7,41.2,28.82,ENE,68,0.0,0.0,98,0.00,,,0.16,VWS V14.01,2013-03-11 14:21:00,
2013-03-11 10:22:00,41.9,41.4,28.85,ENE,68,0.0,0.0,98,0.00,,,0.16,VWS V14.01,2013-03-11 14:22:00,
2013-03-11 10:23:00,41.9,41.4,28.85,ENE,68,0.0,0.0,98,0.00,,,0.16,VWS V14.01,2013-03-11 14:23:00,
2013-03-11 10:24:00,39.9,39.4,28.85,East,90,1.6,2.9,98,0.00,,,0.16,VWS V14.01,2013-03-11 14:24:00,
2013-03-11 10:25:00,41.9,41.4,28.85,ENE,68,0.0,0.0,98,0.00,,,0.16,VWS V14.01,2013-03-11 14:25:00,
2013-03-11 10:26:00,41.7,41.2,28.85,ENE,68,0.0,0.0,98,0.00,,,0.16,VWS V14.01,2013-03-11 14:26:00,
2013-03-11 10:27:00,41.7,41.2,28.85,ENE,68,0.0,0.0,98,0.00,,,0.16,VWS V14.01,2013-03-11 14:27:00,
2013-03-11 10:28:00,41.7,41.2,28.85,ENE,68,0.0,0.0,98,0.00,,,0.16,VWS V14.01,2013-03-11 14:28:00,
2013-03-11 10:29:00,40.1,39.6,28.85,ENE,68,1.1,1.1,98,0.00,,,0.16,VWS V14.01,2013-03-11 14:29:00,
2013-03-11 10:30:00,41.9,41.4,28.85,ENE,68,0.0,0.0,98,0.00,,,0.16,VWS V14.01,2013-03-11 14:30:00,
2013-03-11 10:31:00,41.9,41.4,28.85,ENE,68,0.0,0.0,98,0.00,,,0.16,VWS V14.01,2013-03-11 14:31:00,
2013-03-11 10:32:00,41.9,41.4,28.85,ENE,68,0.0,0.0,98,0.00,,,0.16,VWS V14.01,2013-03-11 14:32:00,
2013-03-11 10:33:00,41.9,41.4,28.85,ENE,68,0.0,0.0,98,0.00,,,0.16,VWS V14.01,2013-03-11 14:33:00,
2013-03-11 10:34:00,40.1,39.6,28.85,ENE,68,0.0,0.0,98,0.00,,,0.16,VWS V14.01,2013-03-11 14:34:00,
2013-03-11 10:36:00,41.9,41.4,28.85,ENE,68,0.0,0.0,98,0.00,,,0.16,VWS V14.01,2013-03-11 14:36:00,
2013-03-11 10:37:00,41.9,41.4,28.85,ENE,68,0.0,0.0,98,0.00,,,0.16,VWS V14.01,2013-03-11 14:37:00,
2013-03-11 10:38:00,41.9,41.4,28.85,ENE,68,0.0,0.0,98,0.00,,,0.16,VWS V14.01,2013-03-11 14:38:00,
2013-03-11 10:39:00,40.5,39.9,28.85,ENE,68,0.0,0.0,98,0.00,,,0.16,VWS V14.01,2013-03-11 14:39:00,
2013-03-11 10:40:00,41.9,41.4,28.85,ENE,68,0.0,0.0,98,0.00,,,0.16,VWS V14.01,2013-03-11 14:40:00,
2013-03-11 10:41:00,42.1,41.6,28.85,ENE,68,1.6,1.6,98,0.00,,,0.16,VWS V14.01,2013-03-11 14:41:00,
2013-03-11 10:42:00,41.9,41.4,28.85,ENE,68,0.0,1.6,98,0.00,,,0.16,VWS V14.01,2013-03-11 14:42:00,
2013-03-11 10:43:00,41.9,41.4,28.85,ENE,68,0.0,0.0,98,0.00,,,0.16,VWS V14.01,2013-03-11 14:43:00,
2013-03-11 10:44:00,40.8,40.3,28.85,ENE,68,0.0,0.0,98,0.00,,,0.16,VWS V14.01,2013-03-11 14:44:00,
2013-03-11 10:45:00,41.9,41.4,28.85,ENE,68,0.0,0.0,98,0.00,,,0.16,VWS V14.01,2013-03-11 14:45:00,
2013-03-11 10:47:00,41.9,41.4,28.85,ENE,68,0.0,0.0,98,0.00,,,0.16,VWS V14.01,2013-03-11 14:47:00,
2013-03-11 10:48:00,42.1,41.6,28.85,ENE,68,0.0,0.0,98,0.00,,,0.16,VWS V14.01,2013-03-11 14:48:00,
2013-03-11 10:49:00,41.5,41.0,28.85,ENE,68,0.0,0.0,98,0.00,,,0.16,VWS V14.01,2013-03-11 14:49:00,
2013-03-11 10:50:00,42.1,41.6,28.85,ENE,68,0.0,0.0,98,0.00,,,0.16,VWS V14.01,2013-03-11 14:50:00,
2013-03-11 10:51:00,42.1,41.6,28.85,ENE,68,0.0,0.0,98,0.00,,,0.16,VWS V14.01,2013-03-11 14:51:00,
2013-03-11 10:52:00,42.3,41.7,28.82,ENE,68,0.0,0.0,98,0.00,,,0.16,VWS V14.01,2013-03-11 14:52:00,
2013-03-11 10:53:00,42.3,41.7,28.82,ENE,68,0.0,0.0,98,0.00,,,0.16,VWS V14.01,2013-03-11 14:53:00,
2013-03-11 10:54:00,41.7,41.2,28.85,ENE,68,0.0,0.0,98,0.00,,,0.16,VWS V14.01,2013-03-11 14:54:00,
2013-03-11 10:55:00,42.4,41.9,28.82,ENE,68,0.0,0.0,98,0.00,,,0.16,VWS V14.01,2013-03-11 14:55:00,
2013-03-11 10:56:00,42.4,41.9,28.82,ENE,68,0.0,0.0,98,0.00,,,0.16,VWS V14.01,2013-03-11 14:56:00,
2013-03-11 10:57:00,42.4,41.9,28.82,ENE,68,0.0,0.0,98,0.00,,,0.16,VWS V14.01,2013-03-11 14:57:00,
2013-03-11 10:59:00,41.5,41.0,28.85,ENE,68,0.0,0.0,98,0.00,,,0.16,VWS V14.01,2013-03-11 14:59:00,
2013-03-11 11:00:00,42.4,41.9,28.82,ENE,68,0.0,0.0,98,0.00,,,0.16,VWS V14.01,2013-03-11 15:00:00,
2013-03-11 11:01:00,42.4,41.9,28.82,ENE,68,0.0,0.0,98,0.00,,,0.16,VWS V14.01,2013-03-11 15:01:00,
2013-03-11 11:02:00,42.3,41.7,28.82,ENE,68,0.0,0.0,98,0.00,,,0.16,VWS V14.01,2013-03-11 15:02:00,
2013-03-11 11:03:00,42.3,41.7,28.82,ENE,68,0.0,0.0,98,0.00,,,0.16,VWS V14.01,2013-03-11 15:03:00,
2013-03-11 11:04:00,42.3,41.7,28.82,ENE,68,0.0,0.0,98,0.00,,,0.16,VWS V14.01,2013-03-11 15:04:00,
2013-03-11 11:05:00,41.5,41.0,28.85,ENE,68,0.0,0.0,98,0.00,,,0.16,VWS V14.01,2013-03-11 15:05:00,
2013-03-11 11:06:00,42.1,41.6,28.82,ENE,68,0.0,0.0,98,0.00,,,0.16,VWS V14.01,2013-03-11 15:06:00,
2013-03-11 11:07:00,42.1,41.6,28.82,ENE,68,0.0,0.0,98,0.00,,,0.16,VWS V14.01,2013-03-11 15:07:00,
2013-03-11 11:08:00,42.1,41.6,28.82,ENE,68,0.0,0.0,98,0.00,,,0.16,VWS V14.01,2013-03-11 15:08:00,
2013-03-11 11:10:00,41.5,41.0,28.82,ENE,68,0.0,0.0,98,0.00,,,0.16,VWS V14.01,2013-03-11 15:10:00,
2013-03-11 11:12:00,42.3,41.7,28.82,ENE,68,0.0,0.0,98,0.00,,,0.16,VWS V14.01,2013-03-11 15:12:00,
2013-03-11 11:13:00,42.3,41.7,28.82,ENE,68,0.0,0.0,98,0.00,,,0.16,VWS V14.01,2013-03-11 15:13:00,
2013-03-11 11:14:00,42.4,41.9,28.82,ENE,68,0.0,0.0,98,0.00,,,0.16,VWS V14.01,2013-03-11 15:14:00,
2013-03-11 11:15:00,41.5,41.0,28.82,ENE,68,0.0,0.0,98,0.00,,,0.16,VWS V14.01,2013-03-11 15:15:00,
2013-03-11 11:16:00,42.4,41.9,28.82,ENE,68,0.0,0.0,98,0.00,,,0.16,VWS V14.01,2013-03-11 15:16:00,
2013-03-11 11:17:00,42.4,41.9,28.82,ENE,68,0.0,0.0,98,0.00,,,0.16,VWS V14.01,2013-03-11 15:17:00,
2013-03-11 11:18:00,42.4,41.9,28.82,ENE,68,0.0,0.0,98,0.00,,,0.16,VWS V14.01,2013-03-11 15:18:00,
2013-03-11 11:19:00,42.4,41.9,28.82,ENE,68,0.0,0.0,98,0.00,,,0.16,VWS V14.01,2013-03-11 15:19:00,
2013-03-11 11:20:00,41.7,41.2,28.82,ENE,68,0.0,0.0,98,0.00,,,0.16,VWS V14.01,2013-03-11 15:20:00,
2013-03-11 11:22:00,42.6,42.1,28.82,ENE,68,0.0,0.0,98,0.00,,,0.16,VWS V14.01,2013-03-11 15:22:00,
2013-03-11 11:23:00,42.8,42.3,28.79,ENE,68,0.0,0.0,98,0.00,,,0.16,VWS V14.01,2013-03-11 15:23:00,
2013-03-11 11:24:00,43.0,42.5,28.79,ENE,68,0.0,0.0,98,0.00,,,0.16,VWS V14.01,2013-03-11 15:24:00,
2013-03-11 11:25:00,41.9,41.4,28.85,ENE,68,0.0,0.0,98,0.00,,,0.16,VWS V14.01,2013-03-11 15:25:00,
2013-03-11 11:26:00,43.0,42.5,28.79,ENE,68,0.0,0.0,98,0.00,,,0.16,VWS V14.01,2013-03-11 15:26:00,
2013-03-11 11:27:00,43.0,42.5,28.79,ENE,68,0.0,0.0,98,0.00,,,0.16,VWS V14.01,2013-03-11 15:27:00,
2013-03-11 11:28:00,43.0,42.5,28.79,ENE,68,0.0,0.0,98,0.00,,,0.16,VWS V14.01,2013-03-11 15:28:00,
2013-03-11 11:29:00,43.0,42.5,28.79,ENE,68,0.0,0.0,98,0.00,,,0.16,VWS V14.01,2013-03-11 15:29:00,
2013-03-11 11:30:00,41.9,41.4,28.85,ENE,68,0.0,0.0,98,0.00,,,0.16,VWS V14.01,2013-03-11 15:30:00,
2013-03-11 11:31:00,43.2,42.6,28.79,ENE,68,0.0,0.0,98,0.00,,,0.16,VWS V14.01,2013-03-11 15:31:00,
2013-03-11 11:32:00,43.3,42.8,28.79,ENE,68,0.0,0.0,98,0.00,,,0.16,VWS V14.01,2013-03-11 15:32:00,
2013-03-11 11:33:00,43.3,42.8,28.79,ENE,68,0.0,0.0,98,0.00,,,0.16,VWS V14.01,2013-03-11 15:33:00,
2013-03-11 11:34:00,43.3,42.8,28.79,ENE,68,0.0,0.0,98,0.00,,,0.16,VWS V14.01,2013-03-11 15:34:00,
2013-03-11 11:35:00,41.9,41.4,28.85,ENE,68,0.0,0.0,98,0.00,,,0.16,VWS V14.01,2013-03-11 15:35:00,
2013-03-11 11:36:00,43.3,42.8,28.79,SSE,158,0.0,0.0,98,0.00,,,0.16,VWS V14.01,2013-03-11 15:36:00,
2013-03-11 11:37:00,43.5,43.0,28.79,South,180,0.0,0.0,98,0.00,,,0.16,VWS V14.01,2013-03-11 15:37:00,
2013-03-11 11:38:00,43.5,43.0,28.79,South,180,0.0,0.0,98,0.00,,,0.16,VWS V14.01,2013-03-11 15:38:00,
2013-03-11 11:39:00,43.7,43.2,28.79,SSW,202,0.0,0.0,98,0.00,,,0.16,VWS V14.01,2013-03-11 15:39:00,
2013-03-11 11:40:00,41.9,41.4,28.85,ENE,68,0.0,0.0,98,0.00,,,0.16,VWS V14.01,2013-03-11 15:40:00,
2013-03-11 11:41:00,43.7,43.2,28.79,SE,135,0.0,0.0,98,0.00,,,0.16,VWS V14.01,2013-03-11 15:41:00,
2013-03-11 11:42:00,43.7,43.2,28.79,South,180,0.0,0.0,98,0.00,,,0.16,VWS V14.01,2013-03-11 15:42:00,
2013-03-11 11:43:00,43.9,43.3,28.79,SSE,158,0.0,0.0,98,0.00,,,0.16,VWS V14.01,2013-03-11 15:43:00,
2013-03-11 11:44:00,43.9,43.3,28.79,SSE,158,0.0,0.0,98,0.00,,,0.16,VWS V14.01,2013-03-11 15:44:00,
2013-03-11 11:45:00,41.9,41.4,28.85,ENE,68,0.0,0.0,98,0.00,,,0.16,VWS V14.01,2013-03-11 15:45:00,
2013-03-11 11:46:00,44.2,43.7,28.79,SSE,158,0.0,0.0,98,0.00,,,0.16,VWS V14.01,2013-03-11 15:46:00,
2013-03-11 11:47:00,44.2,43.7,28.79,SSE,158,0.0,0.0,98,0.00,,,0.16,VWS V14.01,2013-03-11 15:47:00,
2013-03-11 11:48:00,44.4,43.9,28.79,SSE,158,0.0,0.0,98,0.00,,,0.16,VWS V14.01,2013-03-11 15:48:00,
2013-03-11 11:49:00,44.4,43.9,28.79,SW,225,0.0,0.0,98,0.00,,,0.16,VWS V14.01,2013-03-11 15:49:00,
2013-03-11 11:50:00,42.1,41.6,28.85,ENE,68,0.0,0.0,98,0.00,,,0.16,VWS V14.01,2013-03-11 15:50:00,
2013-03-11 11:51:00,44.4,43.9,28.79,SSW,202,0.0,1.6,98,0.00,,,0.16,VWS V14.01,2013-03-11 15:51:00,
2013-03-11 11:52:00,44.6,44.1,28.79,SW,225,0.0,0.0,98,0.00,,,0.16,VWS V14.01,2013-03-11 15:52:00,
2013-03-11 11:53:00,44.6,44.1,28.79,South,180,0.0,0.0,98,0.00,,,0.16,VWS V14.01,2013-03-11 15:53:00,
2013-03-11 11:54:00,44.8,44.2,28.79,South,180,0.0,0.0,98,0.00,,,0.16,VWS V14.01,2013-03-11 15:54:00,
2013-03-11 11:55:00,44.8,44.2,28.79,SW,225,0.9,0.9,98,0.00,,,0.16,VWS V14.01,2013-03-11 15:55:00,
2013-03-11 11:56:00,42.4,41.9,28.82,ENE,68,0.0,0.0,98,0.00,,,0.16,VWS V14.01,2013-03-11 15:56:00,
2013-03-11 11:57:00,44.8,44.2,28.79,SSE,158,0.0,0.0,98,0.00,,,0.16,VWS V14.01,2013-03-11 15:57:00,
2013-03-11 11:58:00,44.6,44.1,28.79,SSE,158,0.0,0.0,98,0.00,,,0.16,VWS V14.01,2013-03-11 15:58:00,
2013-03-11 11:59:00,44.6,44.1,28.79,SSE,158,0.0,0.0,98,0.00,,,0.16,VWS V14.01,2013-03-11 15:59:00,
2013-03-11 12:00:00,44.6,44.1,28.79,SSE,158,0.0,0.0,98,0.00,,,0.16,VWS V14.01,2013-03-11 16:00:00,
2013-03-11 12:01:00,42.4,41.9,28.82,ENE,68,0.0,0.0,98,0.00,,,0.16,VWS V14.01,2013-03-11 16:01:00,
2013-03-11 12:02:00,44.6,44.1,28.79,SSE,158,0.0,0.0,98,0.00,,,0.16,VWS V14.01,2013-03-11 16:02:00,
2013-03-11 12:03:00,44.6,44.1,28.79,SSW,202,0.0,0.0,98,0.00,,,0.16,VWS V14.01,2013-03-11 16:03:00,
2013-03-11 12:04:00,44.6,44.1,28.79,SE,135,3.1,3.1,98,0.00,,,0.16,VWS V14.01,2013-03-11 16:04:00,
2013-03-11 12:05:00,44.6,44.1,28.79,SSE,158,2.9,3.1,98,0.00,,,0.16,VWS V14.01,2013-03-11 16:05:00,
2013-03-11 12:06:00,42.1,41.6,28.82,ENE,68,0.0,0.0,98,0.00,,,0.16,VWS V14.01,2013-03-11 16:06:00,
2013-03-11 12:07:00,44.4,43.9,28.79,SW,225,0.0,0.0,98,0.00,,,0.16,VWS V14.01,2013-03-11 16:07:00,
2013-03-11 12:08:00,44.4,43.9,28.79,South,180,0.0,0.0,98,0.00,,,0.16,VWS V14.01,2013-03-11 16:08:00,
2013-03-11 12:09:00,44.2,43.7,28.79,SSW,202,2.2,4.3,98,0.00,,,0.16,VWS V14.01,2013-03-11 16:09:00,
2013-03-11 12:10:00,44.2,43.7,28.79,SSW,202,4.9,4.9,98,0.00,,,0.16,VWS V14.01,2013-03-11 16:10:00,
2013-03-11 12:12:00,42.3,41.7,28.82,ENE,68,0.0,0.0,98,0.00,,,0.16,VWS V14.01,2013-03-11 16:12:00,
2013-03-11 12:13:00,44.1,43.5,28.79,SSW,202,2.5,2.5,98,0.00,,,0.16,VWS V14.01,2013-03-11 16:13:00,
2013-03-11 12:14:00,43.9,43.3,28.79,SSW,202,3.6,4.7,98,0.00,,,0.16,VWS V14.01,2013-03-11 16:14:00,
2013-03-11 12:15:00,43.9,43.3,28.79,SSW,202,1.3,3.6,98,0.00,,,0.16,VWS V14.01,2013-03-11 16:15:00,
2013-03-11 12:16:00,43.9,43.3,28.79,SW,225,2.0,2.0,98,0.00,,,0.16,VWS V14.01,2013-03-11 16:16:00,
2013-03-11 12:17:00,42.4,41.9,28.82,ENE,68,0.0,0.0,98,0.00,,,0.16,VWS V14.01,2013-03-11 16:17:00,
2013-03-11 12:18:00,43.9,43.3,28.79,SW,225,1.6,1.6,98,0.00,,,0.16,VWS V14.01,2013-03-11 16:18:00,
2013-03-11 12:19:00,43.9,43.3,28.79,SSW,202,2.2,2.9,98,0.00,,,0.16,VWS V14.01,2013-03-11 16:19:00,
2013-03-11 12:20:00,43.9,43.3,28.79,SSW,202,0.0,3.1,98,0.00,,,0.16,VWS V14.01,2013-03-11 16:20:00,
2013-03-11 12:21:00,43.9,43.3,28.79,SSE,158,0.0,1.1,98,0.00,,,0.16,VWS V14.01,2013-03-11 16:21:00,
2013-03-11 12:22:00,42.8,42.3,28.82,ENE,68,0.0,0.0,98,0.00,,,0.16,VWS V14.01,2013-03-11 16:22:00,
2013-03-11 12:23:00,43.9,43.3,28.79,SSW,202,0.0,2.2,98,0.00,,,0.16,VWS V14.01,2013-03-11 16:23:00,
2013-03-11 12:24:00,43.7,43.2,28.79,SSW,202,4.7,4.7,98,0.00,,,0.16,VWS V14.01,2013-03-11 16:24:00,
2013-03-11 12:25:00,43.7,43.2,28.79,SSW,202,3.4,4.7,98,0.00,,,0.16,VWS V14.01,2013-03-11 16:25:00,
2013-03-11 12:26:00,43.7,43.2,28.79,SSW,202,1.6,3.4,98,0.00,,,0.16,VWS V14.01,2013-03-11 16:26:00,
2013-03-11 12:27:00,43.0,42.5,28.79,ENE,68,0.0,0.0,98,0.00,,,0.16,VWS V14.01,2013-03-11 16:27:00,
2013-03-11 12:28:00,43.7,43.2,28.79,SSW,202,4.0,4.0,98,0.00,,,0.16,VWS V14.01,2013-03-11 16:28:00,
2013-03-11 12:29:00,43.7,43.2,28.79,SSW,202,2.0,4.0,98,0.00,,,0.16,VWS V14.01,2013-03-11 16:29:00,
2013-03-11 12:30:00,43.7,43.2,28.79,SSW,202,0.0,2.5,98,0.00,,,0.16,VWS V14.01,2013-03-11 16:30:00,
2013-03-11 12:31:00,43.7,43.2,28.79,SSW,202,2.2,2.2,98,0.00,,,0.16,VWS V14.01,2013-03-11 16:31:00,
2013-03-11 12:32:00,43.3,42.8,28.79,ENE,68,0.0,0.0,98,0.00,,,0.16,VWS V14.01,2013-03-11 16:32:00,
2013-03-11 12:33:00,43.7,43.2,28.79,South,180,1.3,1.6,98,0.00,,,0.16,VWS V14.01,2013-03-11 16:33:00,
2013-03-11 12:34:00,43.7,43.2,28.79,SSW,202,0.0,1.3,98,0.00,,,0.16,VWS V14.01,2013-03-11 16:34:00,
2013-03-11 12:35:00,43.7,43.2,28.79,SSE,158,0.0,0.0,98,0.00,,,0.16,VWS V14.01,2013-03-11 16:35:00,
2013-03-11 12:36:00,43.7,43.2,28.79,SSW,202,2.0,2.0,98,0.00,,,0.16,VWS V14.01,2013-03-11 16:36:00,
2013-03-11 12:37:00,43.5,43.0,28.79,SSE,158,0.0,0.0,98,0.00,,,0.16,VWS V14.01,2013-03-11 16:37:00,
2013-03-11 12:38:00,43.9,43.3,28.79,SW,225,1.6,1.6,98,0.00,,,0.16,VWS V14.01,2013-03-11 16:38:00,
2013-03-11 12:39:00,43.9,43.3,28.79,SW,225,1.6,1.6,98,0.00,,,0.16,VWS V14.01,2013-03-11 16:39:00,
2013-03-11 12:40:00,43.7,43.2,28.79,SSE,158,4.3,5.6,98,0.00,,,0.16,VWS V14.01,2013-03-11 16:40:00,
2013-03-11 12:41:00,43.7,43.2,28.79,SSW,202,2.5,4.9,98,0.00,,,0.16,VWS V14.01,2013-03-11 16:41:00,
2013-03-11 12:42:00,43.9,43.3,28.79,SSW,202,0.0,0.0,98,0.00,,,0.16,VWS V14.01,2013-03-11 16:42:00,
2013-03-11 12:43:00,43.9,43.3,28.79,SSW,202,2.5,2.7,98,0.00,,,0.16,VWS V14.01,2013-03-11 16:43:00,
2013-03-11 12:44:00,44.1,43.5,28.79,SSW,202,0.0,2.5,98,0.00,,,0.16,VWS V14.01,2013-03-11 16:44:00,
2013-03-11 12:46:00,44.1,43.5,28.79,SSW,202,2.2,2.2,98,0.00,,,0.16,VWS V14.01,2013-03-11 16:46:00,
2013-03-11 12:47:00,44.2,43.7,28.79,SSE,158,0.0,0.0,98,0.00,,,0.16,VWS V14.01,2013-03-11 16:47:00,
2013-03-11 12:48:00,44.2,43.7,28.79,SSW,202,1.1,2.0,98,0.00,,,0.16,VWS V14.01,2013-03-11 16:48:00,
2013-03-11 12:49:00,44.4,43.9,28.79,SSW,202,2.0,2.0,98,0.00,,,0.16,VWS V14.01,2013-03-11 16:49:00,
2013-03-11 12:50:00,44.4,43.9,28.79,SSW,202,0.0,3.1,98,0.00,,,0.16,VWS V14.01,2013-03-11 16:50:00,
2013-03-11 12:51:00,44.4,43.9,28.79,SW,225,2.5,3.6,98,0.00,,,0.16,VWS V14.01,2013-03-11 16:51:00,
2013-03-11 12:52:00,44.6,44.1,28.79,South,180,0.0,0.0,98,0.00,,,0.16,VWS V14.01,2013-03-11 16:52:00,
2013-03-11 12:53:00,44.2,43.7,28.79,SSW,202,1.1,2.5,98,0.00,,,0.16,VWS V14.01,2013-03-11 16:53:00,
2013-03-11 12:54:00,44.2,43.7,28.79,SSW,202,2.0,2.7,98,0.00,,,0.16,VWS V14.01,2013-03-11 16:54:00,
2013-03-11 12:55:00,44.1,43.5,28.79,SSW,202,1.3,2.9,98,0.00,,,0.16,VWS V14.01,2013-03-11 16:55:00,
2013-03-11 12:56:00,44.1,43.5,28.79,SSE,158,1.3,2.0,98,0.00,,,0.16,VWS V14.01,2013-03-11 16:56:00,
2013-03-11 12:57:00,44.6,44.1,28.79,SSE,158,0.0,0.0,98,0.00,,,0.16,VWS V14.01,2013-03-11 16:57:00,
2013-03-11 12:58:00,44.1,43.5,28.79,WSW,248,1.1,2.7,98,0.00,,,0.16,VWS V14.01,2013-03-11 16:58:00,
2013-03-11 12:59:00,44.1,43.5,28.79,SW,225,1.1,1.1,98,0.00,,,0.16,VWS V14.01,2013-03-11 16:59:00,
2013-03-11 13:00:00,44.1,43.5,28.79,WSW,248,0.0,1.3,98,0.00,,,0.16,VWS V14.01,2013-03-11 17:00:00,
2013-03-11 13:01:00,44.4,43.9,28.79,SSW,202,0.0,0.0,98,0.00,,,0.16,VWS V14.01,2013-03-11 17:01:00,
2013-03-11 13:02:00,44.6,44.1,28.79,SSW,202,0.0,0.0,98,0.00,,,0.16,VWS V14.01,2013-03-11 17:02:00,
2013-03-11 13:03:00,45.3,44.8,28.79,South,180,0.0,0.0,98,0.00,,,0.16,VWS V14.01,2013-03-11 17:03:00,
2013-03-11 13:04:00,45.5,45.0,28.79,WSW,248,0.9,0.9,98,0.00,,,0.16,VWS V14.01,2013-03-11 17:04:00,
2013-03-11 13:05:00,45.5,45.0,28.79,WSW,248,2.0,2.0,98,0.00,,,0.16,VWS V14.01,2013-03-11 17:05:00,
2013-03-11 13:06:00,45.7,45.2,28.79,SW,225,1.6,3.6,98,0.00,,,0.16,VWS V14.01,2013-03-11 17:06:00,
2013-03-11 13:07:00,45.7,45.2,28.79,WSW,248,1.1,1.6,98,0.00,,,0.16,VWS V14.01,2013-03-11 17:07:00,
2013-03-11 13:08:00,44.4,43.9,28.79,SSW,202,0.0,0.0,98,0.00,,,0.16,VWS V14.01,2013-03-11 17:08:00,
2013-03-11 13:09:00,45.7,45.2,28.79,South,180,0.0,0.9,98,0.00,,,0.16,VWS V14.01,2013-03-11 17:09:00,
2013-03-11 13:10:00,45.3,44.8,28.79,SW,225,0.9,1.1,98,0.00,,,0.16,VWS V14.01,2013-03-11 17:10:00,
2013-03-11 13:11:00,45.3,44.8,28.79,SSW,202,1.1,2.0,98,0.00,,,0.16,VWS V14.01,2013-03-11 17:11:00,
2013-03-11 13:12:00,45.3,44.8,28.79,SSW,202,2.5,2.5,98,0.00,,,0.16,VWS V14.01,2013-03-11 17:12:00,
2013-03-11 13:13:00,44.1,43.5,28.79,SSW,202,2.5,2.5,98,0.00,,,0.16,VWS V14.01,2013-03-11 17:13:00,
2013-03-11 13:14:00,45.1,44.6,28.79,SSW,202,0.0,2.0,98,0.00,,,0.16,VWS V14.01,2013-03-11 17:14:00,
2013-03-11 13:16:00,45.1,44.6,28.79,SW,225,2.0,2.0,98,0.00,,,0.16,VWS V14.01,2013-03-11 17:16:00,
2013-03-11 13:17:00,44.8,44.2,28.79,WSW,248,0.0,2.0,98,0.00,,,0.16,VWS V14.01,2013-03-11 17:17:00,
2013-03-11 13:18:00,43.9,43.3,28.79,SSW,202,2.5,2.5,98,0.00,,,0.16,VWS V14.01,2013-03-11 17:18:00,
2013-03-11 13:19:00,45.0,44.4,28.79,West,270,0.0,0.0,98,0.00,,,0.16,VWS V14.01,2013-03-11 17:19:00,
2013-03-11 13:20:00,45.0,44.4,28.79,WSW,248,0.0,0.0,98,0.00,,,0.16,VWS V14.01,2013-03-11 17:20:00,
2013-03-11 13:21:00,45.0,44.4,28.79,SW,225,0.0,0.0,98,0.00,,,0.16,VWS V14.01,2013-03-11 17:21:00,
2013-03-11 13:22:00,45.0,44.4,28.79,SSW,202,2.9,2.9,98,0.00,,,0.16,VWS V14.01,2013-03-11 17:22:00,
2013-03-11 13:23:00,43.7,43.2,28.79,SSW,202,1.6,1.6,98,0.00,,,0.16,VWS V14.01,2013-03-11 17:23:00,
2013-03-11 13:24:00,44.6,44.1,28.76,SW,225,0.0,2.2,98,0.00,,,0.16,VWS V14.01,2013-03-11 17:24:00,
2013-03-11 13:25:00,44.6,44.1,28.76,WSW,248,0.0,0.0,98,0.00,,,0.16,VWS V14.01,2013-03-11 17:25:00,
2013-03-11 13:26:00,44.6,44.1,28.76,SW,225,0.0,1.1,98,0.00,,,0.16,VWS V14.01,2013-03-11 17:26:00,
2013-03-11 13:27:00,44.6,44.1,28.76,SW,225,0.0,0.0,98,0.00,,,0.16,VWS V14.01,2013-03-11 17:27:00,
2013-03-11 13:28:00,43.7,43.2,28.79,South,180,1.3,4.0,98,0.00,,,0.16,VWS V14.01,2013-03-11 17:28:00,
2013-03-11 13:29:00,44.6,44.1,28.76,SW,225,0.0,0.0,98,0.00,,,0.16,VWS V14.01,2013-03-11 17:29:00,
2013-03-11 13:30:00,44.6,44.1,28.76,SSW,202,0.0,0.0,98,0.00,,,0.16,VWS V14.01,2013-03-11 17:30:00,
2013-03-11 13:31:00,44.6,44.1,28.76,SSW,202,0.0,0.0,98,0.00,,,0.16,VWS V14.01,2013-03-11 17:31:00,
2013-03-11 13:32:00,44.6,44.1,28.76,SW,225,0.0,0.0,98,0.00,,,0.16,VWS V14.01,2013-03-11 17:32:00,
2013-03-11 13:33:00,43.7,43.2,28.79,SSW,202,0.0,1.3,98,0.00,,,0.16,VWS V14.01,2013-03-11 17:33:00,
2013-03-11 13:34:00,44.6,44.1,28.76,WSW,248,0.0,0.0,98,0.00,,,0.16,VWS V14.01,2013-03-11 17:34:00,
2013-03-11 13:35:00,44.6,44.1,28.76,SW,225,0.0,0.0,98,0.00,,,0.16,VWS V14.01,2013-03-11 17:35:00,
2013-03-11 13:36:00,44.6,44.1,28.76,SW,225,0.0,0.0,98,0.00,,,0.16,VWS V14.01,2013-03-11 17:36:00,
2013-03-11 13:37:00,44.6,44.1,28.76,WSW,248,0.0,0.0,98,0.00,,,0.16,VWS V14.01,2013-03-11 17:37:00,
2013-03-11 13:38:00,44.6,44.1,28.76,SW,225,0.0,0.0,98,0.00,,,0.16,VWS V14.01,2013-03-11 17:38:00,
2013-03-11 13:39:00,43.9,43.3,28.79,SW,225,1.6,1.6,98,0.00,,,0.16,VWS V14.01,2013-03-11 17:39:00,
2013-03-11 13:40:00,44.6,44.1,28.76,WSW,248,0.0,2.0,98,0.00,,,0.16,VWS V14.01,2013-03-11 17:40:00,
2013-03-11 13:41:00,44.6,44.1,28.76,WSW,248,0.0,0.0,98,0.00,,,0.16,VWS V14.01,2013-03-11 17:41:00,
2013-03-11 13:42:00,44.6,44.1,28.76,SW,225,2.2,2.7,98,0.00,,,0.16,VWS V14.01,2013-03-11 17:42:00,
2013-03-11 13:43:00,44.6,44.1,28.76,SW,225,2.2,2.9,98,0.00,,,0.16,VWS V14.01,2013-03-11 17:43:00,
2013-03-11 13:44:00,44.1,43.5,28.79,SSW,202,0.0,2.5,98,0.00,,,0.16,VWS V14.01,2013-03-11 17:44:00,
2013-03-11 13:45:00,44.6,44.1,28.76,SW,225,0.0,1.6,98,0.00,,,0.16,VWS V14.01,2013-03-11 17:45:00,
2013-03-11 13:46:00,44.6,44.1,28.76,SW,225,0.9,1.6,98,0.00,,,0.16,VWS V14.01,2013-03-11 17:46:00,
2013-03-11 13:47:00,44.8,44.2,28.76,SW,225,2.5,2.5,98,0.00,,,0.16,VWS V14.01,2013-03-11 17:47:00,
2013-03-11 13:48:00,44.8,44.2,28.76,SW,225,2.5,2.5,98,0.00,,,0.16,VWS V14.01,2013-03-11 17:48:00,
2013-03-11 13:49:00,44.4,43.9,28.79,SSW,202,2.0,2.0,98,0.00,,,0.16,VWS V14.01,2013-03-11 17:49:00,
2013-03-11 13:50:00,44.6,44.1,28.76,SW,225,0.0,2.5,98,0.00,,,0.16,VWS V14.01,2013-03-11 17:50:00,
2013-03-11 13:51:00,44.6,44.1,28.76,SW,225,2.0,2.7,98,0.00,,,0.16,VWS V14.01,2013-03-11 17:51:00,
2013-03-11 13:52:00,44.6,44.1,28.76,SW,225,2.2,2.2,98,0.00,,,0.16,VWS V14.01,2013-03-11 17:52:00,
2013-03-11 13:53:00,44.6,44.1,28.76,SW,225,1.1,2.9,98,0.00,,,0.16,VWS V14.01,2013-03-11 17:53:00,
2013-03-11 13:54:00,44.1,43.5,28.79,SSW,202,2.0,2.0,98,0.00,,,0.16,VWS V14.01,2013-03-11 17:54:00,
2013-03-11 13:55:00,44.6,44.1,28.76,WSW,248,2.5,2.5,98,0.00,,,0.16,VWS V14.01,2013-03-11 17:55:00,
2013-03-11 13:56:00,44.4,43.9,28.76,WSW,248,2.0,2.5,98,0.00,,,0.16,VWS V14.01,2013-03-11 17:56:00,
2013-03-11 13:57:00,44.4,43.9,28.76,WSW,248,2.5,2.7,98,0.00,,,0.16,VWS V14.01,2013-03-11 17:57:00,
2013-03-11 13:58:00,44.4,43.9,28.76,WSW,248,3.4,3.4,98,0.00,,,0.16,VWS V14.01,2013-03-11 17:58:00,
2013-03-11 13:59:00,44.1,43.5,28.79,WSW,248,0.0,1.1,98,0.00,,,0.16,VWS V14.01,2013-03-11 17:59:00,
2013-03-11 14:00:00,44.4,43.9,28.76,SW,225,2.0,3.1,98,0.00,,,0.16,VWS V14.01,2013-03-11 18:00:00,
2013-03-11 14:01:00,44.4,43.9,28.76,WSW,248,2.0,2.2,98,0.00,,,0.16,VWS V14.01,2013-03-11 18:01:00,
2013-03-11 14:02:00,44.6,44.1,28.76,SW,225,2.9,2.9,98,0.00,,,0.16,VWS V14.01,2013-03-11 18:02:00,
2013-03-11 14:03:00,44.6,44.1,28.76,WSW,248,2.7,2.9,98,0.00,,,0.16,VWS V14.01,2013-03-11 18:03:00,
2013-03-11 14:04:00,45.5,45.0,28.79,WSW,248,1.6,1.6,98,0.00,,,0.16,VWS V14.01,2013-03-11 18:04:00,
2013-03-11 14:05:00,44.8,44.2,28.76,WSW,248,2.7,2.7,98,0.00,,,0.16,VWS V14.01,2013-03-11 18:05:00,
2013-03-11 14:06:00,44.8,44.2,28.76,WSW,248,2.9,2.9,98,0.00,,,0.16,VWS V14.01,2013-03-11 18:06:00,
2013-03-11 14:07:00,44.8,44.2,28.73,WSW,248,1.6,3.1,98,0.00,,,0.16,VWS V14.01,2013-03-11 18:07:00,
2013-03-11 14:08:00,44.8,44.2,28.73,WSW,248,2.9,2.9,98,0.00,,,0.16,VWS V14.01,2013-03-11 18:08:00,
2013-03-11 14:09:00,45.5,45.0,28.79,SW,225,1.1,1.1,98,0.00,,,0.16,VWS V14.01,2013-03-11 18:09:00,
2013-03-11 14:10:00,44.8,44.2,28.73,SW,225,1.6,1.6,98,0.00,,,0.16,VWS V14.01,2013-03-11 18:10:00,
2013-03-11 14:11:00,44.8,44.2,28.73,West,270,0.0,1.6,98,0.00,,,0.16,VWS V14.01,2013-03-11 18:11:00,
2013-03-11 14:12:00,44.8,44.2,28.73,WSW,248,0.0,0.0,98,0.00,,,0.16,VWS V14.01,2013-03-11 18:12:00,
2013-03-11 14:13:00,44.8,44.2,28.73,WSW,248,0.0,0.0,98,0.00,,,0.16,VWS V14.01,2013-03-11 18:13:00,
2013-03-11 14:14:00,45.1,44.6,28.79,SW,225,2.0,2.0,98,0.00,,,0.16,VWS V14.01,2013-03-11 18:14:00,
2013-03-11 14:15:00,45.5,45.0,28.73,WSW,248,0.0,0.0,98,0.00,,,0.16,VWS V14.01,2013-03-11 18:15:00,
2013-03-11 14:16:00,45.7,45.2,28.73,WSW,248,0.0,0.0,98,0.00,,,0.16,VWS V14.01,2013-03-11 18:16:00,
2013-03-11 14:17:00,45.7,45.2,28.73,WSW,248,0.0,0.0,98,0.00,,,0.16,VWS V14.01,2013-03-11 18:17:00,
2013-03-11 14:18:00,45.5,45.0,28.73,SW,225,0.0,0.0,98,0.00,,,0.16,VWS V14.01,2013-03-11 18:18:00,
2013-03-11 14:19:00,45.5,45.0,28.73,SW,225,0.0,0.0,98,0.00,,,0.16,VWS V14.01,2013-03-11 18:19:00,
2013-03-11 14:20:00,45.0,44.4,28.79,WSW,248,0.0,0.0,98,0.00,,,0.16,VWS V14.01,2013-03-11 18:20:00,
2013-03-11 14:21:00,45.7,45.2,28.73,WSW,248,0.0,0.0,98,0.00,,,0.16,VWS V14.01,2013-03-11 18:21:00,
2013-03-11 14:22:00,45.7,45.2,28.73,WSW,248,0.0,0.0,98,0.00,,,0.16,VWS V14.01,2013-03-11 18:22:00,
2013-03-11 14:23:00,45.7,45.2,28.73,WSW,248,0.0,0.0,98,0.00,,,0.16,VWS V14.01,2013-03-11 18:23:00,
2013-03-11 14:24:00,45.9,45.3,28.73,West,270,0.0,0.0,98,0.00,,,0.16,VWS V14.01,2013-03-11 18:24:00,
2013-03-11 14:25:00,44.6,44.1,28.76,WSW,248,0.0,0.0,98,0.00,,,0.16,VWS V14.01,2013-03-11 18:25:00,
2013-03-11 14:26:00,46.0,45.5,28.73,WSW,248,0.0,0.0,98,0.00,,,0.16,VWS V14.01,2013-03-11 18:26:00,
2013-03-11 14:27:00,46.2,45.7,28.73,WSW,248,0.0,0.0,98,0.00,,,0.16,VWS V14.01,2013-03-11 18:27:00,
2013-03-11 14:28:00,46.2,45.7,28.73,SW,225,0.0,0.0,98,0.00,,,0.16,VWS V14.01,2013-03-11 18:28:00,
2013-03-11 14:29:00,46.2,45.7,28.73,SW,225,0.0,0.0,98,0.00,,,0.16,VWS V14.01,2013-03-11 18:29:00,
2013-03-11 14:30:00,44.6,44.1,28.76,SSW,202,0.0,0.0,98,0.00,,,0.16,VWS V14.01,2013-03-11 18:30:00,
2013-03-11 14:31:00,46.2,45.7,28.73,WSW,248,0.0,0.0,98,0.00,,,0.16,VWS V14.01,2013-03-11 18:31:00,
2013-03-11 14:32:00,46.4,45.9,28.73,WSW,248,0.0,0.0,98,0.00,,,0.16,VWS V14.01,2013-03-11 18:32:00,
2013-03-11 14:33:00,46.2,45.7,28.73,WSW,248,0.0,0.0,98,0.00,,,0.16,VWS V14.01,2013-03-11 18:33:00,
2013-03-11 14:34:00,46.4,45.9,28.73,West,270,0.0,0.0,98,0.00,,,0.16,VWS V14.01,2013-03-11 18:34:00,
2013-03-11 14:35:00,44.6,44.1,28.76,WSW,248,0.0,0.0,98,0.00,,,0.16,VWS V14.01,2013-03-11 18:35:00,
2013-03-11 14:36:00,46.6,46.0,28.73,WSW,248,0.0,0.0,98,0.00,,,0.16,VWS V14.01,2013-03-11 18:36:00,
2013-03-11 14:37:00,46.4,45.9,28.73,WSW,248,0.0,0.0,98,0.00,,,0.16,VWS V14.01,2013-03-11 18:37:00,
2013-03-11 14:38:00,46.4,45.9,28.73,West,270,0.0,0.0,98,0.00,,,0.16,VWS V14.01,2013-03-11 18:38:00,
2013-03-11 14:39:00,46.4,45.9,28.73,WSW,248,0.0,0.0,98,0.00,,,0.16,VWS V14.01,2013-03-11 18:39:00,
2013-03-11 14:40:00,44.6,44.1,28.76,WSW,248,0.0,2.0,98,0.00,,,0.16,VWS V14.01,2013-03-11 18:40:00,
2013-03-11 14:41:00,46.6,46.0,28.73,West,270,0.0,0.0,98,0.00,,,0.16,VWS V14.01,2013-03-11 18:41:00,
2013-03-11 14:42:00,46.8,46.2,28.73,West,270,0.0,0.0,98,0.00,,,0.16,VWS V14.01,2013-03-11 18:42:00,
2013-03-11 14:43:00,46.8,46.2,28.73,NW,315,0.0,0.0,98,0.00,,,0.16,VWS V14.01,2013-03-11 18:43:00,
2013-03-11 14:44:00,46.6,46.0,28.73,NW,315,0.0,0.0,98,0.00,,,0.16,VWS V14.01,2013-03-11 18:44:00,
2013-03-11 14:45:00,44.6,44.1,28.76,SW,225,0.0,1.6,98,0.00,,,0.16,VWS V14.01,2013-03-11 18:45:00,
2013-03-11 14:46:00,46.4,45.9,28.73,NW,315,0.0,0.0,98,0.00,,,0.16,VWS V14.01,2013-03-11 18:46:00,
2013-03-11 14:47:00,46.4,45.9,28.73,NW,315,0.0,0.0,98,0.00,,,0.16,VWS V14.01,2013-03-11 18:47:00,
2013-03-11 14:48:00,46.4,45.9,28.73,NW,315,0.0,0.0,98,0.00,,,0.16,VWS V14.01,2013-03-11 18:48:00,
2013-03-11 14:49:00,46.8,46.2,28.73,NW,315,0.0,0.0,98,0.00,,,0.16,VWS V14.01,2013-03-11 18:49:00,
2013-03-11 14:50:00,44.6,44.1,28.76,SW,225,0.0,2.5,98,0.00,,,0.16,VWS V14.01,2013-03-11 18:50:00,
2013-03-11 14:51:00,47.1,46.6,28.73,NW,315,0.0,0.0,98,0.00,,,0.16,VWS V14.01,2013-03-11 18:51:00,
2013-03-11 14:52:00,47.3,46.8,28.73,NW,315,0.0,0.0,98,0.00,,,0.16,VWS V14.01,2013-03-11 18:52:00,
2013-03-11 14:53:00,47.3,46.8,28.73,NW,315,0.0,0.0,98,0.00,,,0.16,VWS V14.01,2013-03-11 18:53:00,
2013-03-11 14:54:00,47.5,47.0,28.73,NW,315,0.0,0.0,98,0.00,,,0.16,VWS V14.01,2013-03-11 18:54:00,
2013-03-11 14:55:00,44.6,44.1,28.76,WSW,248,2.5,2.5,98,0.00,,,0.16,VWS V14.01,2013-03-11 18:55:00,
2013-03-11 14:56:00,47.5,47.0,28.73,NW,315,0.0,0.0,98,0.00,,,0.16,VWS V14.01,2013-03-11 18:56:00,
2013-03-11 14:57:00,47.8,47.3,28.73,NW,315,0.0,0.0,98,0.00,,,0.16,VWS V14.01,2013-03-11 18:57:00,
2013-03-11 14:58:00,48.0,47.5,28.73,NW,315,0.0,0.0,98,0.00,,,0.16,VWS V14.01,2013-03-11 18:58:00,
2013-03-11 14:59:00,47.8,47.3,28.73,NNW,338,0.0,0.0,98,0.00,,,0.16,VWS V14.01,2013-03-11 18:59:00,
2013-03-11 15:00:00,44.4,43.9,28.76,SW,225,2.0,3.1,98,0.00,,,0.16,VWS V14.01,2013-03-11 19:00:00,
2013-03-11 15:01:00,47.8,47.3,28.73,NNW,338,0.0,0.0,98,0.00,,,0.16,VWS V14.01,2013-03-11 19:01:00,
2013-03-11 15:02:00,47.8,47.3,28.73,NNW,338,0.0,0.0,98,0.00,,,0.16,VWS V14.01,2013-03-11 19:02:00,
2013-03-11 15:03:00,47.5,47.0,28.73,NNW,338,0.0,0.0,98,0.00,,,0.16,VWS V14.01,2013-03-11 19:03:00,
2013-03-11 15:04:00,47.3,46.8,28.73,NNW,338,0.0,0.0,98,0.00,,,0.16,VWS V14.01,2013-03-11 19:04:00,
2013-03-11 15:05:00,47.3,46.8,28.73,NNW,338,0.0,0.0,98,0.00,,,0.16,VWS V14.01,2013-03-11 19:05:00,
2013-03-11 15:06:00,44.8,44.2,28.76,WSW,248,2.9,2.9,98,0.00,,,0.16,VWS V14.01,2013-03-11 19:06:00,
2013-03-11 15:07:00,47.3,46.8,28.73,NNW,338,0.0,0.0,98,0.00,,,0.16,VWS V14.01,2013-03-11 19:07:00,
2013-03-11 15:08:00,47.3,46.8,28.73,NNW,338,0.0,0.0,98,0.00,,,0.16,VWS V14.01,2013-03-11 19:08:00,
2013-03-11 15:09:00,47.3,46.8,28.73,NNW,338,0.0,2.5,98,0.00,,,0.16,VWS V14.01,2013-03-11 19:09:00,
2013-03-11 15:10:00,47.3,46.8,28.73,NW,315,1.1,1.1,98,0.00,,,0.16,VWS V14.01,2013-03-11 19:10:00,
2013-03-11 15:11:00,44.8,44.2,28.73,West,270,0.0,1.6,98,0.00,,,0.16,VWS V14.01,2013-03-11 19:11:00,
2013-03-11 15:12:00,46.8,46.2,28.73,WNW,292,0.9,3.1,98,0.00,,,0.16,VWS V14.01,2013-03-11 19:12:00,
2013-03-11 15:13:00,46.4,45.9,28.73,West,270,2.5,3.6,98,0.00,,,0.16,VWS V14.01,2013-03-11 19:13:00,
2013-03-11 15:14:00,46.4,45.9,28.73,WNW,292,2.7,2.7,98,0.00,,,0.16,VWS V14.01,2013-03-11 19:14:00,
2013-03-11 15:15:00,46.2,45.7,28.73,WNW,292,0.0,2.7,98,0.00,,,0.16,VWS V14.01,2013-03-11 19:15:00,
2013-03-11 15:16:00,45.7,45.2,28.73,WSW,248,0.0,0.0,98,0.00,,,0.16,VWS V14.01,2013-03-11 19:16:00,
2013-03-11 15:17:00,46.0,45.5,28.73,WNW,292,0.0,1.6,98,0.00,,,0.16,VWS V14.01,2013-03-11 19:17:00,
2013-03-11 15:18:00,46.0,45.5,28.73,WNW,292,0.0,0.0,98,0.00,,,0.16,VWS V14.01,2013-03-11 19:18:00,
2013-03-11 15:19:00,45.3,44.8,28.73,NNW,338,0.0,0.9,98,0.00,,,0.16,VWS V14.01,2013-03-11 19:19:00,
2013-03-11 15:20:00,45.3,44.8,28.73,NNW,338,0.0,0.0,98,0.00,,,0.16,VWS V14.01,2013-03-11 19:20:00,
2013-03-11 15:21:00,45.7,45.2,28.73,WSW,248,0.0,0.0,98,0.00,,,0.16,VWS V14.01,2013-03-11 19:21:00,
2013-03-11 15:22:00,45.0,44.4,28.73,West,270,3.8,3.8,98,0.00,,,0.16,VWS V14.01,2013-03-11 19:22:00,
2013-03-11 15:23:00,45.0,44.4,28.73,NW,315,2.9,3.8,98,0.00,,,0.16,VWS V14.01,2013-03-11 19:23:00,
2013-03-11 15:24:00,45.0,44.4,28.73,WSW,248,2.0,2.9,98,0.00,,,0.16,VWS V14.01,2013-03-11 19:24:00,
2013-03-11 15:25:00,44.1,43.3,28.73,WNW,292,0.9,3.4,97,0.00,,,0.16,VWS V14.01,2013-03-11 19:25:00,
2013-03-11 15:26:00,46.0,45.5,28.73,WSW,248,0.0,0.0,98,0.00,,,0.16,VWS V14.01,2013-03-11 19:26:00,
2013-03-11 15:27:00,43.5,42.5,28.73,NNW,338,0.0,3.6,96,0.00,,,0.16,VWS V14.01,2013-03-11 19:27:00,
2013-03-11 15:28:00,43.3,42.3,28.73,NNW,338,0.9,0.9,96,0.00,,,0.16,VWS V14.01,2013-03-11 19:28:00,
2013-03-11 15:29:00,43.3,42.3,28.73,NNW,338,1.6,1.6,96,0.00,,,0.16,VWS V14.01,2013-03-11 19:29:00,
2013-03-11 15:30:00,42.8,41.5,28.73,NNW,338,2.7,2.7,95,0.00,,,0.16,VWS V14.01,2013-03-11 19:30:00,
2013-03-11 15:31:00,46.4,45.9,28.73,WSW,248,0.0,0.0,98,0.00,,,0.16,VWS V14.01,2013-03-11 19:31:00,
2013-03-11 15:32:00,42.4,41.1,28.73,NW,315,2.9,2.9,95,0.00,,,0.16,VWS V14.01,2013-03-11 19:32:00,
2013-03-11 15:33:00,41.9,40.6,28.73,NNW,338,0.0,2.9,95,0.00,,,0.16,VWS V14.01,2013-03-11 19:33:00,
2013-03-11 15:34:00,41.9,40.6,28.73,West,270,0.0,0.0,95,0.00,,,0.16,VWS V14.01,2013-03-11 19:34:00,
2013-03-11 15:35:00,41.2,39.6,28.73,WNW,292,2.9,2.9,94,0.00,,,0.16,VWS V14.01,2013-03-11 19:35:00,
2013-03-11 15:36:00,41.0,39.4,28.73,West,270,2.5,3.1,94,0.00,,,0.16,VWS V14.01,2013-03-11 19:36:00,
2013-03-11 15:37:00,46.4,45.9,28.73,WSW,248,0.0,0.0,98,0.00,,,0.16,VWS V14.01,2013-03-11 19:37:00,
2013-03-11 15:38:00,40.5,38.6,28.73,WNW,292,3.4,3.4,93,0.00,,,0.16,VWS V14.01,2013-03-11 19:38:00,
2013-03-11 15:40:00,40.1,38.0,28.73,NNW,338,4.0,4.9,92,0.00,,,0.16,VWS V14.01,2013-03-11 19:40:00,
2013-03-11 15:41:00,39.6,37.2,28.73,WSW,248,4.0,4.7,91,0.00,,,0.16,VWS V14.01,2013-03-11 19:41:00,
2013-03-11 15:42:00,46.8,46.2,28.73,West,270,0.0,0.0,98,0.00,,,0.16,VWS V14.01,2013-03-11 19:42:00,
2013-03-11 15:43:00,39.2,36.5,28.73,West,270,1.1,4.9,90,0.00,,,0.16,VWS V14.01,2013-03-11 19:43:00,
2013-03-11 15:44:00,39.2,36.8,28.73,WNW,292,2.9,2.9,91,0.00,,,0.16,VWS V14.01,2013-03-11 19:44:00,
2013-03-11 15:45:00,38.8,36.4,28.73,West,270,2.7,7.2,91,0.00,,,0.16,VWS V14.01,2013-03-11 19:45:00,
2013-03-11 15:46:00,38.7,36.3,28.73,WSW,248,2.0,3.4,91,0.00,,,0.16,VWS V14.01,2013-03-11 19:46:00,
2013-03-11 15:47:00,46.4,45.9,28.73,NW,315,0.0,0.0,98,0.00,,,0.16,VWS V14.01,2013-03-11 19:47:00,
2013-03-11 15:48:00,38.7,36.3,28.73,WSW,248,2.9,2.9,91,0.00,,,0.16,VWS V14.01,2013-03-11 19:48:00,
2013-03-11 15:49:00,38.3,35.9,28.73,WSW,248,1.3,2.9,91,0.00,,,0.16,VWS V14.01,2013-03-11 19:49:00,
2013-03-11 15:51:00,38.3,35.9,28.73,West,270,5.6,5.6,91,0.00,,,0.16,VWS V14.01,2013-03-11 19:51:00,
2013-03-11 15:52:00,47.3,46.8,28.73,NW,315,0.0,0.0,98,0.00,,,0.16,VWS V14.01,2013-03-11 19:52:00,
2013-03-11 15:53:00,37.9,35.8,28.70,WNW,292,2.5,4.3,92,0.00,,,0.16,VWS V14.01,2013-03-11 19:53:00,
2013-03-11 15:54:00,37.9,35.8,28.70,West,270,1.3,3.4,92,0.00,,,0.16,VWS V14.01,2013-03-11 19:54:00,
2013-03-11 15:55:00,37.9,35.8,28.70,WNW,292,0.9,1.3,92,0.00,,,0.16,VWS V14.01,2013-03-11 19:55:00,
2013-03-11 15:56:00,37.9,36.1,28.70,West,270,2.0,2.0,93,0.00,,,0.16,VWS V14.01,2013-03-11 19:56:00,
2013-03-11 15:57:00,47.8,47.3,28.73,NW,315,0.0,0.0,98,0.00,,,0.16,VWS V14.01,2013-03-11 19:57:00,
2013-03-11 15:58:00,37.8,35.9,28.70,WNW,292,3.6,5.6,93,0.00,,,0.16,VWS V14.01,2013-03-11 19:58:00,
2013-03-11 15:59:00,37.9,36.1,28.70,West,270,3.1,3.6,93,0.00,,,0.16,VWS V14.01,2013-03-11 19:59:00,
2013-03-11 16:00:00,37.9,36.1,28.70,WNW,292,2.9,3.1,93,0.00,,,0.16,VWS V14.01,2013-03-11 20:00:00,
2013-03-11 16:01:00,37.9,36.4,28.70,WSW,248,1.6,4.3,94,0.00,,,0.16,VWS V14.01,2013-03-11 20:01:00,
2013-03-11 16:02:00,47.8,47.3,28.73,NNW,338,0.0,0.0,98,0.00,,,0.16,VWS V14.01,2013-03-11 20:02:00,
2013-03-11 16:03:00,37.8,36.2,28.70,NW,315,3.6,4.0,94,0.00,,,0.16,VWS V14.01,2013-03-11 20:03:00,
2013-03-11 16:04:00,37.8,36.2,28.70,WNW,292,2.9,3.6,94,0.00,,,0.16,VWS V14.01,2013-03-11 20:04:00,
2013-03-11 16:05:00,37.8,36.2,28.70,West,270,2.0,3.8,94,0.00,,,0.16,VWS V14.01,2013-03-11 20:05:00,
2013-03-11 16:06:00,37.8,36.2,28.70,WNW,292,1.6,2.0,94,0.00,,,0.16,VWS V14.01,2013-03-11 20:06:00,
2013-03-11 16:07:00,37.8,36.2,28.70,WNW,292,3.1,3.1,94,0.00,,,0.16,VWS V14.01,2013-03-11 20:07:00,
2013-03-11 16:08:00,47.3,46.8,28.73,NNW,338,0.0,0.0,98,0.00,,,0.16,VWS V14.01,2013-03-11 20:08:00,
2013-03-11 16:09:00,37.8,36.5,28.70,NW,315,2.2,4.3,95,0.00,,,0.16,VWS V14.01,2013-03-11 20:09:00,
2013-03-11 16:10:00,37.6,36.3,28.70,NW,315,1.6,3.6,95,0.00,,,0.16,VWS V14.01,2013-03-11 20:10:00,
2013-03-11 16:11:00,37.6,36.3,28.70,NW,315,0.0,2.7,95,0.00,,,0.16,VWS V14.01,2013-03-11 20:11:00,
2013-03-11 16:12:00,37.6,36.3,28.70,WNW,292,3.1,4.9,95,0.00,,,0.16,VWS V14.01,2013-03-11 20:12:00,
2013-03-11 16:13:00,46.4,45.9,28.73,West,270,2.5,3.6,98,0.00,,,0.16,VWS V14.01,2013-03-11 20:13:00,
2013-03-11 16:14:00,37.4,36.1,28.70,WSW,248,1.1,1.1,95,0.00,,,0.16,VWS V14.01,2013-03-11 20:14:00,
2013-03-11 16:15:00,37.4,36.1,28.70,West,270,5.4,5.4,95,0.00,,,0.16,VWS V14.01,2013-03-11 20:15:00,
2013-03-11 16:16:00,37.4,36.1,28.70,SW,225,2.5,5.4,95,0.00,,,0.16,VWS V14.01,2013-03-11 20:16:00,
2013-03-11 16:17:00,37.4,36.1,28.70,WNW,292,2.9,4.7,95,0.00,,,0.16,VWS V14.01,2013-03-11 20:17:00,
2013-03-11 16:18:00,46.0,45.5,28.73,WNW,292,0.0,0.0,98,0.00,,,0.16,VWS V14.01,2013-03-11 20:18:00,
2013-03-11 16:19:00,37.0,36.0,28.70,WNW,292,2.7,2.7,96,0.00,,,0.16,VWS V14.01,2013-03-11 20:19:00,
2013-03-11 16:20:00,37.0,36.0,28.70,NW,315,0.0,2.7,96,0.00,,,0.16,VWS V14.01,2013-03-11 20:20:00,
2013-03-11 16:21:00,36.9,35.8,28.70,West,270,3.1,3.1,96,0.00,,,0.16,VWS V14.01,2013-03-11 20:21:00,
2013-03-11 16:22:00,36.9,35.8,28.67,NNW,338,0.0,3.1,96,0.00,,,0.16,VWS V14.01,2013-03-11 20:22:00,
2013-03-11 16:23:00,45.0,44.4,28.73,NW,315,2.9,3.8,98,0.00,,,0.16,VWS V14.01,2013-03-11 20:23:00,
2013-03-11 16:24:00,36.9,35.8,28.67,WNW,292,0.0,1.1,96,0.00,,,0.16,VWS V14.01,2013-03-11 20:24:00,
2013-03-11 16:25:00,36.9,35.8,28.67,WNW,292,0.0,2.5,96,0.00,,,0.16,VWS V14.01,2013-03-11 20:25:00,
2013-03-11 16:26:00,36.9,35.8,28.67,WNW,292,0.0,0.0,96,0.00,,,0.16,VWS V14.01,2013-03-11 20:26:00,
2013-03-11 16:27:00,36.9,35.8,28.67,WNW,292,0.0,0.0,96,0.00,,,0.16,VWS V14.01,2013-03-11 20:27:00,
2013-03-11 16:28:00,43.3,42.3,28.73,WSW,248,0.0,0.9,96,0.00,,,0.16,VWS V14.01,2013-03-11 20:28:00,
2013-03-11 16:29:00,36.7,35.7,28.67,WNW,292,0.0,2.7,96,0.00,,,0.16,VWS V14.01,2013-03-11 20:29:00,
2013-03-11 16:30:00,36.7,35.7,28.67,North,0,0.0,0.0,96,0.00,,,0.16,VWS V14.01,2013-03-11 20:30:00,
2013-03-11 16:31:00,36.7,35.7,28.67,West,270,0.0,0.0,96,0.00,,,0.16,VWS V14.01,2013-03-11 20:31:00,
2013-03-11 16:32:00,36.7,35.7,28.67,North,0,2.5,2.5,96,0.00,,,0.16,VWS V14.01,2013-03-11 20:32:00,
2013-03-11 16:33:00,41.9,40.6,28.73,West,270,0.0,0.0,95,0.00,,,0.16,VWS V14.01,2013-03-11 20:33:00,
2013-03-11 16:34:00,36.7,35.9,28.67,NNW,338,1.6,2.9,97,0.00,,,0.16,VWS V14.01,2013-03-11 20:34:00,
2013-03-11 16:35:00,36.5,35.7,28.67,NNW,338,2.5,3.6,97,0.00,,,0.16,VWS V14.01,2013-03-11 20:35:00,
2013-03-11 16:36:00,36.5,35.7,28.67,WNW,292,3.4,3.4,97,0.00,,,0.16,VWS V14.01,2013-03-11 20:36:00,
2013-03-11 16:37:00,36.5,35.7,28.67,WSW,248,2.2,3.4,97,0.00,,,0.16,VWS V14.01,2013-03-11 20:37:00,
2013-03-11 16:38:00,40.1,38.0,28.73,West,270,4.9,4.9,92,0.00,,,0.16,VWS V14.01,2013-03-11 20:38:00,
2013-03-11 16:39:00,36.3,35.5,28.67,NNW,338,0.0,0.0,97,0.00,,,0.16,VWS V14.01,2013-03-11 20:39:00,
2013-03-11 16:40:00,36.3,35.5,28.67,NNE,22,0.0,0.0,97,0.00,,,0.16,VWS V14.01,2013-03-11 20:40:00,
2013-03-11 16:41:00,36.3,35.5,28.67,WNW,292,0.0,0.0,97,0.00,,,0.16,VWS V14.01,2013-03-11 20:41:00,
2013-03-11 16:42:00,36.3,35.5,28.67,WNW,292,0.0,0.0,97,0.00,,,0.16,VWS V14.01,2013-03-11 20:42:00,
2013-03-11 16:43:00,39.2,36.8,28.73,WNW,292,1.3,2.2,91,0.00,,,0.16,VWS V14.01,2013-03-11 20:43:00,
2013-03-11 16:44:00,36.1,35.4,28.67,WSW,248,0.0,2.7,97,0.00,,,0.16,VWS V14.01,2013-03-11 20:44:00,
2013-03-11 16:45:00,36.1,35.4,28.67,NNW,338,0.0,0.0,97,0.00,,,0.16,VWS V14.01,2013-03-11 20:45:00,
2013-03-11 16:46:00,36.1,35.4,28.67,North,0,0.0,0.0,97,0.00,,,0.16,VWS V14.01,2013-03-11 20:46:00,
2013-03-11 16:47:00,36.1,35.4,28.67,NNW,338,0.0,0.0,97,0.00,,,0.16,VWS V14.01,2013-03-11 20:47:00,
2013-03-11 16:48:00,38.3,35.9,28.73,WSW,248,1.3,2.9,91,0.00,,,0.16,VWS V14.01,2013-03-11 20:48:00,
2013-03-11 16:49:00,36.0,35.2,28.67,NNW,338,0.0,0.0,97,0.00,,,0.16,VWS V14.01,2013-03-11 20:49:00,
2013-03-11 16:50:00,36.0,35.2,28.67,NNW,338,0.0,0.0,97,0.00,,,0.16,VWS V14.01,2013-03-11 20:50:00,
2013-03-11 16:51:00,36.0,35.2,28.67,North,0,0.0,1.6,97,0.00,,,0.16,VWS V14.01,2013-03-11 20:51:00,
2013-03-11 16:52:00,36.0,35.2,28.67,NE,45,0.0,0.0,97,0.00,,,0.16,VWS V14.01,2013-03-11 20:52:00,
2013-03-11 16:53:00,36.0,35.2,28.67,WNW,292,2.7,2.7,97,0.00,,,0.16,VWS V14.01,2013-03-11 20:53:00,
2013-03-11 16:54:00,37.9,35.8,28.70,West,270,1.3,3.4,92,0.00,,,0.16,VWS V14.01,2013-03-11 20:54:00,
2013-03-11 16:55:00,35.8,35.0,28.67,NNW,338,2.0,2.7,97,0.00,,,0.16,VWS V14.01,2013-03-11 20:55:00,
2013-03-11 16:56:00,35.8,35.3,28.67,NW,315,2.2,3.4,98,0.00,,,0.16,VWS V14.01,2013-03-11 20:56:00,
2013-03-11 16:57:00,35.8,35.3,28.67,NW,315,2.2,2.2,98,0.00,,,0.16,VWS V14.01,2013-03-11 20:57:00,
2013-03-11 16:58:00,35.8,35.3,28.67,NNW,338,0.0,2.2,98,0.00,,,0.16,VWS V14.01,2013-03-11 20:58:00,
2013-03-11 16:59:00,37.9,36.1,28.70,West,270,3.1,3.6,93,0.00,,,0.16,VWS V14.01,2013-03-11 20:59:00,
2013-03-11 17:00:00,35.8,35.3,28.67,North,0,0.9,0.9,98,0.00,,,0.16,VWS V14.01,2013-03-11 21:00:00,
2013-03-11 17:01:00,35.8,35.3,28.67,North,0,0.0,2.5,98,0.00,,,0.16,VWS V14.01,2013-03-11 21:01:00,
2013-03-11 17:02:00,35.8,35.3,28.67,NNW,338,0.0,2.0,98,0.00,,,0.16,VWS V14.01,2013-03-11 21:02:00,
2013-03-11 17:03:00,35.8,35.3,28.67,NNE,22,0.0,4.0,98,0.00,,,0.16,VWS V14.01,2013-03-11 21:03:00,
2013-03-11 17:04:00,37.8,36.2,28.70,WNW,292,2.9,3.6,94,0.00,,,0.16,VWS V14.01,2013-03-11 21:04:00,
2013-03-11 17:05:00,35.8,35.3,28.67,WNW,292,0.0,2.5,98,0.00,,,0.16,VWS V14.01,2013-03-11 21:05:00,
2013-03-11 17:06:00,35.6,35.1,28.67,WSW,248,0.0,0.0,98,0.00,,,0.16,VWS V14.01,2013-03-11 21:06:00,
2013-03-11 17:07:00,35.6,35.1,28.64,NNW,338,0.0,0.0,98,0.00,,,0.16,VWS V14.01,2013-03-11 21:07:00,
2013-03-11 17:08:00,35.6,35.1,28.64,NNW,338,0.0,2.9,98,0.00,,,0.16,VWS V14.01,2013-03-11 21:08:00,
2013-03-11 17:09:00,37.8,36.5,28.70,West,270,4.3,4.3,95,0.00,,,0.16,VWS V14.01,2013-03-11 21:09:00,
2013-03-11 17:10:00,35.6,35.1,28.64,NE,45,4.9,4.9,98,0.00,,,0.16,VWS V14.01,2013-03-11 21:10:00,
2013-03-11 17:11:00,35.6,35.1,28.64,NNE,22,0.9,4.9,98,0.00,,,0.16,VWS V14.01,2013-03-11 21:11:00,
2013-03-11 17:12:00,35.6,35.1,28.64,North,0,0.0,0.9,98,0.00,,,0.16,VWS V14.01,2013-03-11 21:12:00,
2013-03-11 17:13:00,35.6,35.1,28.64,North,0,0.0,0.0,98,0.00,,,0.16,VWS V14.01,2013-03-11 21:13:00,
2013-03-11 17:14:00,37.4,36.1,28.70,WSW,248,1.1,1.1,95,0.00,,,0.16,VWS V14.01,2013-03-11 21:14:00,
2013-03-11 17:15:00,35.6,35.1,28.64,NNE,22,2.7,2.7,98,0.00,,,0.16,VWS V14.01,2013-03-11 21:15:00,
2013-03-11 17:16:00,35.6,35.1,28.64,North,0,0.0,2.7,98,0.00,,,0.16,VWS V14.01,2013-03-11 21:16:00,
2013-03-11 17:17:00,35.6,35.1,28.64,NNE,22,0.0,0.9,98,0.00,,,0.16,VWS V14.01,2013-03-11 21:17:00,
2013-03-11 17:18:00,35.8,35.3,28.64,NNW,338,0.0,0.0,98,0.00,,,0.16,VWS V14.01,2013-03-11 21:18:00,
2013-03-11 17:19:00,37.0,36.0,28.70,WSW,248,1.6,2.7,96,0.00,,,0.16,VWS V14.01,2013-03-11 21:19:00,
2013-03-11 17:20:00,35.8,35.3,28.64,North,0,0.0,0.0,98,0.00,,,0.16,VWS V14.01,2013-03-11 21:20:00,
2013-03-11 17:21:00,35.8,35.3,28.64,NE,45,0.0,0.0,98,0.00,,,0.16,VWS V14.01,2013-03-11 21:21:00,
2013-03-11 17:22:00,35.8,35.3,28.67,North,0,0.0,0.0,98,0.00,,,0.16,VWS V14.01,2013-03-11 21:22:00,
2013-03-11 17:23:00,35.8,35.3,28.67,NNW,338,0.0,2.2,98,0.00,,,0.16,VWS V14.01,2013-03-11 21:23:00,
2013-03-11 17:24:00,36.9,35.8,28.67,West,270,2.2,2.2,96,0.00,,,0.16,VWS V14.01,2013-03-11 21:24:00,
2013-03-11 17:25:00,35.8,35.3,28.67,NW,315,0.0,3.4,98,0.00,,,0.16,VWS V14.01,2013-03-11 21:25:00,
2013-03-11 17:26:00,35.8,35.3,28.67,NW,315,0.0,0.0,98,0.00,,,0.16,VWS V14.01,2013-03-11 21:26:00,
2013-03-11 17:27:00,35.8,35.3,28.67,West,270,0.0,0.0,98,0.00,,,0.16,VWS V14.01,2013-03-11 21:27:00,
2013-03-11 17:28:00,35.8,35.3,28.67,West,270,0.0,0.0,98,0.00,,,0.16,VWS V14.01,2013-03-11 21:28:00,
2013-03-11 17:29:00,36.7,35.7,28.67,North,0,0.0,0.0,96,0.00,,,0.16,VWS V14.01,2013-03-11 21:29:00,
2013-03-11 17:31:00,35.8,35.3,28.67,NNW,338,0.0,0.0,98,0.00,,,0.16,VWS V14.01,2013-03-11 21:31:00,
2013-03-11 17:32:00,35.8,35.3,28.67,NNW,338,0.0,0.0,98,0.00,,,0.16,VWS V14.01,2013-03-11 21:32:00,
2013-03-11 17:33:00,35.8,35.3,28.67,NNW,338,0.0,0.0,98,0.00,,,0.16,VWS V14.01,2013-03-11 21:33:00,
2013-03-11 17:34:00,36.7,35.9,28.67,NW,315,2.0,3.6,97,0.00,,,0.16,VWS V14.01,2013-03-11 21:34:00,
2013-03-11 17:35:00,35.8,35.3,28.67,NW,315,0.9,0.9,98,0.00,,,0.16,VWS V14.01,2013-03-11 21:35:00,
2013-03-11 17:36:00,35.8,35.3,28.67,NNW,338,0.0,0.9,98,0.00,,,0.16,VWS V14.01,2013-03-11 21:36:00,
2013-03-11 17:37:00,36.0,35.5,28.64,North,0,0.0,0.0,98,0.00,,,0.16,VWS V14.01,2013-03-11 21:37:00,
2013-03-11 17:38:00,36.0,35.5,28.64,NW,315,0.0,1.1,98,0.00,,,0.16,VWS V14.01,2013-03-11 21:38:00,
2013-03-11 17:39:00,36.3,35.5,28.67,NNE,22,0.0,0.0,97,0.00,,,0.16,VWS V14.01,2013-03-11 21:39:00,
2013-03-11 17:40:00,36.0,35.5,28.64,NNW,338,0.0,0.0,98,0.00,,,0.16,VWS V14.01,2013-03-11 21:40:00,
2013-03-11 17:41:00,36.0,35.5,28.64,North,0,0.0,0.0,98,0.00,,,0.16,VWS V14.01,2013-03-11 21:41:00,
2013-03-11 17:43:00,35.8,35.3,28.64,North,0,0.0,0.0,98,0.00,,,0.16,VWS V14.01,2013-03-11 21:43:00,
2013-03-11 17:44:00,35.8,35.3,28.64,NNE,22,0.0,0.0,98,0.00,,,0.16,VWS V14.01,2013-03-11 21:44:00,
2013-03-11 17:45:00,36.1,35.4,28.67,North,0,0.0,0.0,97,0.00,,,0.16,VWS V14.01,2013-03-11 21:45:00,
2013-03-11 17:46:00,35.8,35.3,28.64,NNE,22,0.0,0.0,98,0.00,,,0.16,VWS V14.01,2013-03-11 21:46:00,
2013-03-11 17:47:00,35.8,35.3,28.64,NNE,22,0.0,0.0,98,0.00,,,0.16,VWS V14.01,2013-03-11 21:47:00,
2013-03-11 17:48:00,35.8,35.3,28.64,North,0,0.0,0.0,98,0.00,,,0.16,VWS V14.01,2013-03-11 21:48:00,
2013-03-11 17:49:00,35.8,35.3,28.64,North,0,0.0,0.0,98,0.00,,,0.16,VWS V14.01,2013-03-11 21:49:00,
2013-03-11 17:50:00,36.0,35.2,28.67,NNW,338,0.0,0.0,97,0.00,,,0.16,VWS V14.01,2013-03-11 21:50:00,
2013-03-11 17:51:00,35.8,35.3,28.64,NE,45,0.0,0.0,98,0.00,,,0.16,VWS V14.01,2013-03-11 21:51:00,
2013-03-11 17:52:00,35.8,35.3,28.67,NNE,22,0.0,0.0,98,0.00,,,0.16,VWS V14.01,2013-03-11 21:52:00,
2013-03-11 17:53:00,35.8,35.3,28.67,North,0,0.0,0.0,98,0.00,,,0.16,VWS V14.01,2013-03-11 21:53:00,
2013-03-11 17:54:00,35.8,35.3,28.67,North,0,0.0,0.0,98,0.00,,,0.16,VWS V14.01,2013-03-11 21:54:00,
2013-03-11 17:55:00,35.8,35.0,28.67,NNW,338,2.0,2.7,97,0.00,,,0.16,VWS V14.01,2013-03-11 21:55:00,
2013-03-11 17:56:00,35.8,35.3,28.67,North,0,0.0,0.0,98,0.00,,,0.16,VWS V14.01,2013-03-11 21:56:00,
2013-03-11 17:57:00,35.8,35.3,28.67,NNW,338,0.9,2.2,98,0.00,,,0.16,VWS V14.01,2013-03-11 21:57:00,
2013-03-11 17:58:00,36.0,35.5,28.67,NNE,22,0.0,0.9,98,0.05,,,0.21,VWS V14.01,2013-03-11 21:58:00,
2013-03-11 17:59:00,36.0,35.5,28.67,NNE,22,0.9,0.9,98,0.05,,,0.21,VWS V14.01,2013-03-11 21:59:00,
2013-03-11 18:00:00,35.8,35.3,28.67,NNW,338,0.0,0.9,98,0.00,,,0.16,VWS V14.01,2013-03-11 22:00:00,
2013-03-11 18:01:00,36.0,35.5,28.67,NE,45,0.0,0.0,98,0.05,,,0.21,VWS V14.01,2013-03-11 22:01:00,
2013-03-11 18:02:00,36.0,35.5,28.67,NNW,338,0.0,0.0,98,0.05,,,0.21,VWS V14.01,2013-03-11 22:02:00,
2013-03-11 18:03:00,36.0,35.5,28.67,NNW,338,0.0,0.0,98,0.05,,,0.21,VWS V14.01,2013-03-11 22:03:00,
2013-03-11 18:04:00,36.0,35.5,28.67,NNW,338,0.0,0.0,98,0.05,,,0.21,VWS V14.01,2013-03-11 22:04:00,
2013-03-11 18:05:00,35.8,35.3,28.67,WNW,292,0.0,0.0,98,0.00,,,0.16,VWS V14.01,2013-03-11 22:05:00,
2013-03-11 18:06:00,36.0,35.5,28.67,North,0,0.0,0.0,98,0.05,,,0.21,VWS V14.01,2013-03-11 22:06:00,
2013-03-11 18:07:00,36.0,35.5,28.64,NNW,338,0.0,0.0,98,0.05,,,0.21,VWS V14.01,2013-03-11 22:07:00,
2013-03-11 18:08:00,35.8,35.3,28.64,NNE,22,0.0,0.0,98,0.05,,,0.21,VWS V14.01,2013-03-11 22:08:00,
2013-03-11 18:09:00,35.8,35.3,28.64,NE,45,0.0,0.0,98,0.05,,,0.21,VWS V14.01,2013-03-11 22:09:00,
2013-03-11 18:10:00,35.6,35.1,28.64,NE,45,4.9,4.9,98,0.00,,,0.16,VWS V14.01,2013-03-11 22:10:00,
2013-03-11 18:11:00,36.0,35.5,28.64,NNW,338,0.0,0.0,98,0.05,,,0.21,VWS V14.01,2013-03-11 22:11:00,
2013-03-11 18:12:00,36.0,35.5,28.64,North,0,0.0,0.0,98,0.05,,,0.21,VWS V14.01,2013-03-11 22:12:00,
2013-03-11 18:13:00,36.0,35.5,28.64,NNE,22,0.0,0.0,98,0.05,,,0.21,VWS V14.01,2013-03-11 22:13:00,
2013-03-11 18:14:00,36.0,35.5,28.64,NW,315,1.3,1.3,98,0.05,,,0.21,VWS V14.01,2013-03-11 22:14:00,
2013-03-11 18:15:00,35.6,35.1,28.64,NW,315,0.0,2.7,98,0.00,,,0.16,VWS V14.01,2013-03-11 22:15:00,
2013-03-11 18:16:00,36.0,35.5,28.64,NNE,22,0.0,0.0,98,0.05,,,0.21,VWS V14.01,2013-03-11 22:16:00,
2013-03-11 18:17:00,36.0,35.5,28.64,West,270,0.0,2.7,98,0.05,,,0.21,VWS V14.01,2013-03-11 22:17:00,
2013-03-11 18:18:00,36.0,35.5,28.64,NNW,338,0.0,0.0,98,0.05,,,0.21,VWS V14.01,2013-03-11 22:18:00,
2013-03-11 18:19:00,36.0,35.5,28.64,NE,45,2.0,2.0,98,0.05,,,0.21,VWS V14.01,2013-03-11 22:19:00,
2013-03-11 18:20:00,35.8,35.3,28.64,NE,45,0.0,0.0,98,0.00,,,0.16,VWS V14.01,2013-03-11 22:20:00,
2013-03-11 18:21:00,36.0,35.5,28.64,North,0,0.0,3.8,98,0.05,,,0.21,VWS V14.01,2013-03-11 22:21:00,
2013-03-11 18:22:00,36.0,35.5,28.67,WNW,292,0.0,3.1,98,0.05,,,0.21,VWS V14.01,2013-03-11 22:22:00,
2013-03-11 18:23:00,36.0,35.5,28.67,WNW,292,0.9,1.3,98,0.05,,,0.21,VWS V14.01,2013-03-11 22:23:00,
2013-03-11 18:24:00,36.0,35.5,28.67,NNE,22,1.6,1.6,98,0.05,,,0.21,VWS V14.01,2013-03-11 22:24:00,
2013-03-11 18:25:00,35.8,35.3,28.67,NW,315,0.0,0.0,98,0.00,,,0.16,VWS V14.01,2013-03-11 22:25:00,
2013-03-11 18:26:00,36.0,35.5,28.67,NW,315,0.0,1.1,98,0.05,,,0.21,VWS V14.01,2013-03-11 22:26:00,
2013-03-11 18:27:00,36.0,35.5,28.67,North,0,0.0,0.0,98,0.09,,,0.25,VWS V14.01,2013-03-11 22:27:00,
2013-03-11 18:28:00,36.0,35.5,28.67,North,0,0.0,3.1,98,0.09,,,0.25,VWS V14.01,2013-03-11 22:28:00,
2013-03-11 18:29:00,36.0,35.5,28.67,NNE,22,1.3,3.1,98,0.09,,,0.25,VWS V14.01,2013-03-11 22:29:00,
2013-03-11 18:30:00,36.0,35.5,28.67,NNE,22,1.6,1.6,98,0.09,,,0.25,VWS V14.01,2013-03-11 22:30:00,
2013-03-11 18:31:00,35.8,35.3,28.67,NNW,338,0.0,0.0,98,0.00,,,0.16,VWS V14.01,2013-03-11 22:31:00,
2013-03-11 18:32:00,36.0,35.5,28.67,NNW,338,0.0,0.0,98,0.09,,,0.25,VWS V14.01,2013-03-11 22:32:00,
2013-03-11 18:33:00,36.0,35.5,28.67,North,0,2.7,2.7,98,0.09,,,0.25,VWS V14.01,2013-03-11 22:33:00,
2013-03-11 18:34:00,36.0,35.5,28.67,NNW,338,0.0,4.0,98,0.09,,,0.25,VWS V14.01,2013-03-11 22:34:00,
2013-03-11 18:35:00,36.0,35.5,28.67,NNW,338,0.0,2.0,98,0.09,,,0.25,VWS V14.01,2013-03-11 22:35:00,
2013-03-11 18:36:00,35.8,35.3,28.67,NNW,338,0.0,0.9,98,0.00,,,0.16,VWS V14.01,2013-03-11 22:36:00,
2013-03-11 18:37:00,36.0,35.5,28.67,NNW,338,0.0,3.4,98,0.09,,,0.25,VWS V14.01,2013-03-11 22:37:00,
2013-03-11 18:38:00,36.0,35.5,28.67,NW,315,0.0,0.0,98,0.09,,,0.25,VWS V14.01,2013-03-11 22:38:00,
2013-03-11 18:39:00,36.0,35.5,28.67,NNW,338,0.0,1.6,98,0.09,,,0.25,VWS V14.01,2013-03-11 22:39:00,
2013-03-11 18:40:00,36.0,35.5,28.67,NNW,338,0.0,2.7,98,0.09,,,0.25,VWS V14.01,2013-03-11 22:40:00,
2013-03-11 18:41:00,36.0,35.5,28.64,North,0,0.0,0.0,98,0.00,,,0.16,VWS V14.01,2013-03-11 22:41:00,
2013-03-11 18:42:00,36.1,35.6,28.67,North,0,2.5,2.5,98,0.09,,,0.25,VWS V14.01,2013-03-11 22:42:00,
2013-03-11 18:43:00,36.1,35.6,28.67,NW,315,1.3,2.9,98,0.09,,,0.25,VWS V14.01,2013-03-11 22:43:00,
2013-03-11 18:44:00,36.1,35.6,28.67,North,0,0.0,1.3,98,0.09,,,0.25,VWS V14.01,2013-03-11 22:44:00,
2013-03-11 18:45:00,36.1,35.6,28.67,NNW,338,0.0,0.9,98,0.09,,,0.25,VWS V14.01,2013-03-11 22:45:00,
2013-03-11 18:46:00,35.8,35.3,28.64,NNE,22,0.0,0.0,98,0.00,,,0.16,VWS V14.01,2013-03-11 22:46:00,
2013-03-11 18:47:00,36.1,35.6,28.67,NNW,338,0.0,0.9,98,0.09,,,0.25,VWS V14.01,2013-03-11 22:47:00,
2013-03-11 18:48:00,36.1,35.6,28.67,NW,315,0.0,0.0,98,0.09,,,0.25,VWS V14.01,2013-03-11 22:48:00,
2013-03-11 18:49:00,36.1,35.6,28.67,NNW,338,0.0,0.0,98,0.09,,,0.25,VWS V14.01,2013-03-11 22:49:00,
2013-03-11 18:50:00,36.1,35.6,28.67,NW,315,0.9,0.9,98,0.09,,,0.25,VWS V14.01,2013-03-11 22:50:00,
2013-03-11 18:51:00,35.8,35.3,28.64,North,0,0.0,0.0,98,0.00,,,0.16,VWS V14.01,2013-03-11 22:51:00,
2013-03-11 18:52:00,36.3,35.8,28.67,NW,315,0.9,1.6,98,0.09,,,0.25,VWS V14.01,2013-03-11 22:52:00,
2013-03-11 18:54:00,36.3,35.8,28.67,WSW,248,2.0,2.0,98,0.09,,,0.25,VWS V14.01,2013-03-11 22:54:00,
2013-03-11 18:55:00,36.3,35.8,28.67,NNW,338,1.1,2.0,98,0.09,,,0.25,VWS V14.01,2013-03-11 22:55:00,
2013-03-11 18:56:00,35.8,35.3,28.67,NNE,22,2.2,2.2,98,0.00,,,0.16,VWS V14.01,2013-03-11 22:56:00,
2013-03-11 18:57:00,36.3,35.8,28.67,NNW,338,1.1,1.1,98,0.09,,,0.25,VWS V14.01,2013-03-11 22:57:00,
2013-03-11 18:58:00,36.5,36.0,28.67,WSW,248,1.6,1.6,98,0.09,,,0.25,VWS V14.01,2013-03-11 22:58:00,
2013-03-11 18:59:00,36.5,36.0,28.67,West,270,0.9,3.1,98,0.04,,,0.25,VWS V14.01,2013-03-11 22:59:00,
2013-03-11 19:00:00,36.5,36.0,28.67,WNW,292,0.0,2.7,98,0.04,,,0.25,VWS V14.01,2013-03-11 23:00:00,
2013-03-11 19:01:00,36.0,35.5,28.67,NE,45,0.0,0.0,98,0.05,,,0.21,VWS V14.01,2013-03-11 23:01:00,
2013-03-11 19:02:00,36.5,36.0,28.67,WSW,248,0.0,2.7,98,0.04,,,0.25,VWS V14.01,2013-03-11 23:02:00,
2013-03-11 19:03:00,36.5,36.0,28.67,West,270,1.1,3.4,98,0.04,,,0.25,VWS V14.01,2013-03-11 23:03:00,
2013-03-11 19:04:00,36.3,35.8,28.67,WSW,248,2.0,2.0,98,0.04,,,0.25,VWS V14.01,2013-03-11 23:04:00,
2013-03-11 19:05:00,36.3,35.8,28.67,WNW,292,0.0,2.2,98,0.08,,,0.29,VWS V14.01,2013-03-11 23:05:00,
2013-03-11 19:06:00,36.0,35.5,28.64,WSW,248,0.0,0.0,98,0.05,,,0.21,VWS V14.01,2013-03-11 23:06:00,
2013-03-11 19:07:00,36.3,35.8,28.67,WNW,292,1.6,1.6,98,0.08,,,0.29,VWS V14.01,2013-03-11 23:07:00,
2013-03-11 19:08:00,36.3,35.8,28.67,WNW,292,1.6,1.6,98,0.08,,,0.29,VWS V14.01,2013-03-11 23:08:00,
2013-03-11 19:09:00,36.3,35.8,28.67,WNW,292,0.0,1.6,98,0.08,,,0.29,VWS V14.01,2013-03-11 23:09:00,
2013-03-11 19:10:00,36.3,35.8,28.67,WNW,292,0.0,0.0,98,0.08,,,0.29,VWS V14.01,2013-03-11 23:10:00,
2013-03-11 19:11:00,36.3,35.8,28.67,WNW,292,2.2,3.6,98,0.08,,,0.29,VWS V14.01,2013-03-11 23:11:00,
2013-03-11 19:12:00,36.0,35.5,28.64,North,0,0.0,0.0,98,0.05,,,0.21,VWS V14.01,2013-03-11 23:12:00,
2013-03-11 19:13:00,36.5,36.0,28.67,WNW,292,1.3,3.6,98,0.08,,,0.29,VWS V14.01,2013-03-11 23:13:00,
2013-03-11 19:14:00,36.5,36.0,28.67,WNW,292,2.5,3.6,98,0.08,,,0.29,VWS V14.01,2013-03-11 23:14:00,
2013-03-11 19:15:00,36.5,36.0,28.67,WNW,292,1.6,3.4,98,0.08,,,0.29,VWS V14.01,2013-03-11 23:15:00,
2013-03-11 19:16:00,36.5,36.0,28.67,WNW,292,3.6,3.6,98,0.08,,,0.29,VWS V14.01,2013-03-11 23:16:00,
2013-03-11 19:17:00,36.0,35.5,28.64,West,270,0.0,2.7,98,0.05,,,0.21,VWS V14.01,2013-03-11 23:17:00,
2013-03-11 19:18:00,36.7,36.2,28.67,WNW,292,0.9,5.4,98,0.08,,,0.29,VWS V14.01,2013-03-11 23:18:00,
2013-03-11 19:19:00,36.7,36.2,28.67,WNW,292,0.0,1.1,98,0.08,,,0.29,VWS V14.01,2013-03-11 23:19:00,
2013-03-11 19:20:00,36.7,36.2,28.67,WSW,248,2.5,3.8,98,0.08,,,0.29,VWS V14.01,2013-03-11 23:20:00,
2013-03-11 19:21:00,36.5,36.0,28.67,WSW,248,2.0,3.4,98,0.08,,,0.29,VWS V14.01,2013-03-11 23:21:00,
2013-03-11 19:22:00,36.0,35.5,28.67,North,0,0.0,3.1,98,0.05,,,0.21,VWS V14.01,2013-03-11 23:22:00,
2013-03-11 19:24:00,36.5,36.0,28.67,WNW,292,2.7,2.7,98,0.08,,,0.29,VWS V14.01,2013-03-11 23:24:00,
2013-03-11 19:25:00,36.3,35.8,28.67,West,270,4.0,4.3,98,0.12,,,0.33,VWS V14.01,2013-03-11 23:25:00,
2013-03-11 19:26:00,36.3,35.8,28.67,WSW,248,2.7,4.0,98,0.12,,,0.33,VWS V14.01,2013-03-11 23:26:00,
2013-03-11 19:27:00,36.0,35.5,28.67,North,0,0.0,0.0,98,0.09,,,0.25,VWS V14.01,2013-03-11 23:27:00,
2013-03-11 19:28:00,36.3,35.8,28.67,SW,225,5.8,5.8,98,0.08,,,0.33,VWS V14.01,2013-03-11 23:28:00,
2013-03-11 19:29:00,36.1,35.6,28.67,WSW,248,3.8,5.8,98,0.08,,,0.33,VWS V14.01,2013-03-11 23:29:00,
2013-03-11 19:30:00,36.1,35.6,28.67,WSW,248,4.0,4.0,98,0.08,,,0.33,VWS V14.01,2013-03-11 23:30:00,
2013-03-11 19:31:00,36.1,35.6,28.67,WSW,248,3.4,4.0,98,0.08,,,0.33,VWS V14.01,2013-03-11 23:31:00,
2013-03-11 19:32:00,36.0,35.5,28.67,NNW,338,0.0,0.0,98,0.09,,,0.25,VWS V14.01,2013-03-11 23:32:00,
2013-03-11 19:33:00,36.1,35.6,28.67,WSW,248,3.8,4.0,98,0.08,,,0.33,VWS V14.01,2013-03-11 23:33:00,
2013-03-11 19:34:00,36.1,35.6,28.67,WSW,248,4.0,4.0,98,0.08,,,0.33,VWS V14.01,2013-03-11 23:34:00,
2013-03-11 19:35:00,36.1,35.6,28.67,WSW,248,2.7,4.0,98,0.08,,,0.33,VWS V14.01,2013-03-11 23:35:00,
2013-03-11 19:36:00,36.0,35.5,28.67,SW,225,2.9,4.3,98,0.08,,,0.33,VWS V14.01,2013-03-11 23:36:00,
2013-03-11 19:37:00,36.0,35.5,28.67,NNW,338,0.0,3.4,98,0.09,,,0.25,VWS V14.01,2013-03-11 23:37:00,
2013-03-11 19:38:00,35.8,35.3,28.67,SW,225,2.9,2.9,98,0.08,,,0.33,VWS V14.01,2013-03-11 23:38:00,
2013-03-11 19:39:00,35.8,35.3,28.67,WSW,248,2.0,3.6,98,0.12,,,0.37,VWS V14.01,2013-03-11 23:39:00,
2013-03-11 19:40:00,35.6,35.1,28.67,WSW,248,1.6,2.5,98,0.12,,,0.37,VWS V14.01,2013-03-11 23:40:00,
2013-03-11 19:41:00,35.6,35.1,28.67,WSW,248,4.7,4.7,98,0.12,,,0.37,VWS V14.01,2013-03-11 23:41:00,
2013-03-11 19:42:00,36.1,35.6,28.67,North,0,2.5,2.5,98,0.09,,,0.25,VWS V14.01,2013-03-11 23:42:00,
2013-03-11 19:43:00,35.6,35.1,28.67,West,270,2.5,4.0,98,0.12,,,0.37,VWS V14.01,2013-03-11 23:43:00,
2013-03-11 19:44:00,35.6,35.1,28.67,West,270,2.2,3.6,98,0.12,,,0.37,VWS V14.01,2013-03-11 23:44:00,
2013-03-11 19:45:00,35.6,35.1,28.67,WSW,248,3.1,3.1,98,0.12,,,0.37,VWS V14.01,2013-03-11 23:45:00,
2013-03-11 19:46:00,35.6,35.1,28.67,West,270,2.0,3.1,98,0.12,,,0.37,VWS V14.01,2013-03-11 23:46:00,
2013-03-11 19:47:00,36.1,35.6,28.67,NW,315,0.0,0.0,98,0.09,,,0.25,VWS V14.01,2013-03-11 23:47:00,
2013-03-11 19:48:00,35.6,35.1,28.67,West,270,0.0,0.0,98,0.12,,,0.37,VWS V14.01,2013-03-11 23:48:00,
2013-03-11 19:49:00,35.6,35.1,28.67,WSW,248,2.5,2.5,98,0.12,,,0.37,VWS V14.01,2013-03-11 23:49:00,
2013-03-11 19:50:00,35.6,35.1,28.67,WSW,248,2.5,2.5,98,0.12,,,0.37,VWS V14.01,2013-03-11 23:50:00,
2013-03-11 19:51:00,35.6,35.1,28.67,WSW,248,3.4,3.4,98,0.12,,,0.37,VWS V14.01,2013-03-11 23:51:00,
2013-03-11 19:52:00,36.3,35.8,28.67,West,270,0.0,0.9,98,0.09,,,0.25,VWS V14.01,2013-03-11 23:52:00,
2013-03-11 19:53:00,35.4,34.9,28.67,WSW,248,2.7,3.4,98,0.12,,,0.37,VWS V14.01,2013-03-11 23:53:00,
2013-03-11 19:54:00,35.4,34.9,28.67,WSW,248,3.4,3.8,98,0.12,,,0.37,VWS V14.01,2013-03-11 23:54:00,
2013-03-11 19:55:00,35.4,34.9,28.67,WSW,248,3.6,3.6,98,0.12,,,0.37,VWS V14.01,2013-03-11 23:55:00,
2013-03-11 19:57:00,35.4,34.9,28.67,WSW,248,3.1,3.6,98,0.12,,,0.37,VWS V14.01,2013-03-11 23:57:00,
2013-03-11 19:58:00,36.5,36.0,28.67,WSW,248,1.6,1.6,98,0.04,,,0.25,VWS V14.01,2013-03-11 23:58:00,
2013-03-11 19:59:00,35.4,34.9,28.67,WSW,248,5.8,5.8,98,0.16,,,0.41,VWS V14.01,2013-03-11 23:59:00,
2013-03-11 20:00:00,35.4,34.9,28.67,WSW,248,4.9,5.8,98,0.16,,,0.41,VWS V14.01,2013-03-12 00:00:00,
2013-03-11 20:01:00,35.4,34.9,28.67,WSW,248,4.7,4.9,98,0.16,,,0.41,VWS V14.01,2013-03-12 00:01:00,
2013-03-11 20:02:00,35.4,34.9,28.67,WSW,248,3.8,4.7,98,0.16,,,0.41,VWS V14.01,2013-03-12 00:02:00,
2013-03-11 20:03:00,36.5,36.0,28.67,West,270,1.1,3.4,98,0.04,,,0.25,VWS V14.01,2013-03-12 00:03:00,
2013-03-11 20:04:00,35.2,34.7,28.67,SW,225,2.9,4.9,98,0.16,,,0.41,VWS V14.01,2013-03-12 00:04:00,
2013-03-11 20:06:00,35.2,34.7,28.67,SW,225,3.1,3.6,98,0.16,,,0.41,VWS V14.01,2013-03-12 00:06:00,
2013-03-11 20:07:00,35.1,34.5,28.67,WSW,248,4.3,4.3,98,0.12,,,0.41,VWS V14.01,2013-03-12 00:07:00,
2013-03-11 20:08:00,36.3,35.8,28.67,WNW,292,1.6,1.6,98,0.08,,,0.29,VWS V14.01,2013-03-12 00:08:00,
2013-03-11 20:09:00,35.1,34.5,28.67,WSW,248,4.3,4.3,98,0.12,,,0.41,VWS V14.01,2013-03-12 00:09:00,
2013-03-11 20:10:00,35.1,34.5,28.67,SSW,202,3.6,4.3,98,0.12,,,0.41,VWS V14.01,2013-03-12 00:10:00,
2013-03-11 20:11:00,35.1,34.5,28.67,WSW,248,4.3,4.3,98,0.12,,,0.41,VWS V14.01,2013-03-12 00:11:00,
2013-03-11 20:12:00,35.1,34.5,28.67,WSW,248,3.8,4.7,98,0.12,,,0.41,VWS V14.01,2013-03-12 00:12:00,
2013-03-11 20:13:00,36.5,36.0,28.67,WNW,292,1.3,3.6,98,0.08,,,0.29,VWS V14.01,2013-03-12 00:13:00,
2013-03-11 20:14:00,34.9,34.4,28.67,WSW,248,2.5,2.7,98,0.16,,,0.45,VWS V14.01,2013-03-12 00:14:00,
2013-03-11 20:15:00,34.9,34.4,28.67,WSW,248,3.4,3.4,98,0.16,,,0.45,VWS V14.01,2013-03-12 00:15:00,
2013-03-11 20:16:00,34.9,34.4,28.67,WSW,248,3.4,3.6,98,0.16,,,0.45,VWS V14.01,2013-03-12 00:16:00,
2013-03-11 20:17:00,34.9,34.4,28.67,SW,225,2.7,4.9,98,0.16,,,0.45,VWS V14.01,2013-03-12 00:17:00,
2013-03-11 20:18:00,36.7,36.2,28.67,WNW,292,0.9,5.4,98,0.08,,,0.29,VWS V14.01,2013-03-12 00:18:00,
2013-03-11 20:19:00,34.9,34.4,28.67,SW,225,2.5,4.7,98,0.16,,,0.45,VWS V14.01,2013-03-12 00:19:00,
2013-03-11 20:20:00,34.9,34.4,28.67,SW,225,4.9,6.0,98,0.16,,,0.45,VWS V14.01,2013-03-12 00:20:00,
2013-03-11 20:21:00,34.9,34.4,28.67,WSW,248,3.8,5.6,98,0.16,,,0.45,VWS V14.01,2013-03-12 00:21:00,
2013-03-11 20:22:00,34.9,34.4,28.67,SW,225,3.4,4.9,98,0.16,,,0.45,VWS V14.01,2013-03-12 00:22:00,
2013-03-11 20:23:00,36.5,36.0,28.67,WNW,292,2.7,2.7,98,0.08,,,0.29,VWS V14.01,2013-03-12 00:23:00,
2013-03-11 20:24:00,34.7,34.2,28.67,NW,315,5.6,5.6,98,0.16,,,0.45,VWS V14.01,2013-03-12 00:24:00,
2013-03-11 20:25:00,34.7,34.2,28.67,WSW,248,4.3,5.6,98,0.16,,,0.45,VWS V14.01,2013-03-12 00:25:00,
2013-03-11 20:26:00,34.7,34.2,28.67,WSW,248,2.7,4.3,98,0.12,,,0.45,VWS V14.01,2013-03-12 00:26:00,
2013-03-11 20:27:00,34.7,34.2,28.67,WSW,248,4.0,5.4,98,0.12,,,0.45,VWS V14.01,2013-03-12 00:27:00,
2013-03-11 20:28:00,34.7,34.2,28.67,WSW,248,3.6,4.9,98,0.12,,,0.45,VWS V14.01,2013-03-12 00:28:00,
2013-03-11 20:29:00,36.3,35.8,28.67,WSW,248,4.0,5.8,98,0.08,,,0.33,VWS V14.01,2013-03-12 00:29:00,
2013-03-11 20:30:00,34.7,34.2,28.67,WSW,248,5.4,5.4,98,0.12,,,0.45,VWS V14.01,2013-03-12 00:30:00,
2013-03-11 20:31:00,34.7,34.2,28.67,WSW,248,4.3,5.4,98,0.17,,,0.50,VWS V14.01,2013-03-12 00:31:00,
2013-03-11 20:32:00,34.7,34.2,28.67,SW,225,4.9,6.3,98,0.17,,,0.50,VWS V14.01,2013-03-12 00:32:00,
2013-03-11 20:33:00,34.5,34.0,28.67,WSW,248,6.3,6.3,98,0.17,,,0.50,VWS V14.01,2013-03-12 00:33:00,
2013-03-11 20:34:00,36.1,35.6,28.67,WSW,248,4.0,4.0,98,0.08,,,0.33,VWS V14.01,2013-03-12 00:34:00,
2013-03-11 20:35:00,34.5,34.0,28.67,WSW,248,5.6,6.5,98,0.17,,,0.50,VWS V14.01,2013-03-12 00:35:00,
2013-03-11 20:36:00,34.5,34.0,28.67,WSW,248,4.0,5.6,98,0.17,,,0.50,VWS V14.01,2013-03-12 00:36:00,
2013-03-11 20:37:00,34.5,34.0,28.67,SW,225,4.9,7.4,98,0.17,,,0.50,VWS V14.01,2013-03-12 00:37:00,
2013-03-11 20:38:00,34.5,34.0,28.67,WSW,248,7.4,7.4,98,0.17,,,0.50,VWS V14.01,2013-03-12 00:38:00,
2013-03-11 20:39:00,35.8,35.3,28.67,SW,225,2.5,3.6,98,0.12,,,0.37,VWS V14.01,2013-03-12 00:39:00,
2013-03-11 20:40:00,34.5,34.0,28.67,SW,225,6.0,8.7,98,0.13,,,0.50,VWS V14.01,2013-03-12 00:40:00,
2013-03-11 20:41:00,34.5,34.0,28.67,WSW,248,3.8,6.0,98,0.13,,,0.50,VWS V14.01,2013-03-12 00:41:00,
2013-03-11 20:43:00,34.5,34.0,28.67,WSW,248,5.8,5.8,98,0.13,,,0.50,VWS V14.01,2013-03-12 00:43:00,
2013-03-11 20:44:00,35.6,35.1,28.67,West,270,2.2,3.6,98,0.12,,,0.37,VWS V14.01,2013-03-12 00:44:00,
2013-03-11 20:45:00,34.3,33.8,28.67,SW,225,4.3,6.0,98,0.17,,,0.54,VWS V14.01,2013-03-12 00:45:00,
2013-03-11 20:46:00,34.3,33.8,28.67,WSW,248,3.6,4.3,98,0.17,,,0.54,VWS V14.01,2013-03-12 00:46:00,
2013-03-11 20:47:00,34.2,33.7,28.67,SW,225,7.4,7.4,98,0.17,,,0.54,VWS V14.01,2013-03-12 00:47:00,
2013-03-11 20:48:00,34.2,33.7,28.67,WSW,248,3.6,7.4,98,0.17,,,0.54,VWS V14.01,2013-03-12 00:48:00,
2013-03-11 20:49:00,35.6,35.1,28.67,WSW,248,2.5,2.5,98,0.12,,,0.37,VWS V14.01,2013-03-12 00:49:00,
2013-03-11 20:50:00,34.2,33.7,28.67,SW,225,4.3,6.3,98,0.17,,,0.54,VWS V14.01,2013-03-12 00:50:00,
2013-03-11 20:51:00,34.0,33.5,28.67,WSW,248,3.6,4.3,98,0.17,,,0.54,VWS V14.01,2013-03-12 00:51:00,
2013-03-11 20:52:00,34.0,33.5,28.67,SSW,202,6.0,6.0,98,0.17,,,0.54,VWS V14.01,2013-03-12 00:52:00,
2013-03-11 20:53:00,33.8,33.3,28.67,SW,225,3.6,7.4,98,0.17,,,0.54,VWS V14.01,2013-03-12 00:53:00,
2013-03-11 20:54:00,35.4,34.9,28.67,WSW,248,3.4,3.8,98,0.12,,,0.37,VWS V14.01,2013-03-12 00:54:00,
2013-03-11 20:55:00,33.8,33.3,28.67,WSW,248,4.7,6.3,98,0.17,,,0.54,VWS V14.01,2013-03-12 00:55:00,
2013-03-11 20:56:00,33.6,33.1,28.67,SW,225,4.0,4.7,98,0.17,,,0.54,VWS V14.01,2013-03-12 00:56:00,
2013-03-11 20:57:00,33.6,33.1,28.67,SW,225,5.6,5.6,98,0.17,,,0.54,VWS V14.01,2013-03-12 00:57:00,
2013-03-11 20:59:00,35.4,34.9,28.67,WSW,248,4.9,4.9,98,0.16,,,0.41,VWS V14.01,2013-03-12 00:59:00,
2013-03-11 21:00:00,33.3,32.8,28.67,WSW,248,4.7,7.2,98,0.13,,,0.54,VWS V14.01,2013-03-12 01:00:00,
2013-03-11 21:02:00,33.3,32.8,28.67,WSW,248,4.9,7.2,98,0.13,,,0.54,VWS V14.01,2013-03-12 01:02:00,
2013-03-11 21:03:00,33.3,32.8,28.67,WSW,248,3.6,8.5,98,0.13,,,0.54,VWS V14.01,2013-03-12 01:03:00,
2013-03-11 21:04:00,35.2,34.7,28.67,SW,225,3.4,3.4,98,0.16,,,0.41,VWS V14.01,2013-03-12 01:04:00,
2013-03-11 21:05:00,33.3,32.8,28.67,WSW,248,4.3,4.3,98,0.13,,,0.54,VWS V14.01,2013-03-12 01:05:00,
2013-03-11 21:06:00,33.3,32.8,28.67,WSW,248,2.0,4.3,98,0.13,,,0.54,VWS V14.01,2013-03-12 01:06:00,
2013-03-11 21:07:00,33.3,32.8,28.70,WSW,248,4.3,4.3,98,0.13,,,0.54,VWS V14.01,2013-03-12 01:07:00,
2013-03-11 21:08:00,33.3,32.8,28.70,SW,225,3.6,5.4,98,0.13,,,0.54,VWS V14.01,2013-03-12 01:08:00,
2013-03-11 21:09:00,35.1,34.5,28.67,SW,225,3.1,4.3,98,0.12,,,0.41,VWS V14.01,2013-03-12 01:09:00,
2013-03-11 21:10:00,32.9,32.4,28.70,WSW,248,2.5,6.5,98,0.13,,,0.54,VWS V14.01,2013-03-12 01:10:00,
2013-03-11 21:11:00,32.9,32.4,28.70,WSW,248,4.0,5.4,98,0.13,,,0.54,VWS V14.01,2013-03-12 01:11:00,
2013-03-11 21:12:00,32.9,32.4,28.70,WSW,248,5.8,5.8,98,0.13,,,0.54,VWS V14.01,2013-03-12 01:12:00,
2013-03-11 21:13:00,32.9,32.4,28.70,SW,225,4.0,6.3,98,0.13,,,0.54,VWS V14.01,2013-03-12 01:13:00,
2013-03-11 21:14:00,34.9,34.4,28.67,SW,225,2.0,2.5,98,0.16,,,0.45,VWS V14.01,2013-03-12 01:14:00,
2013-03-11 21:15:00,32.9,32.4,28.70,WSW,248,3.1,4.0,98,0.09,,,0.54,VWS V14.01,2013-03-12 01:15:00,
2013-03-11 21:16:00,32.9,32.4,28.70,WSW,248,3.1,3.1,98,0.09,,,0.54,VWS V14.01,2013-03-12 01:16:00,
2013-03-11 21:17:00,32.7,32.2,28.70,WSW,248,4.3,4.9,98,0.09,,,0.54,VWS V14.01,2013-03-12 01:17:00,
2013-03-11 21:18:00,32.7,32.2,28.70,WSW,248,4.0,4.3,98,0.09,,,0.54,VWS V14.01,2013-03-12 01:18:00,
2013-03-11 21:19:00,34.9,34.4,28.67,WSW,248,6.0,6.0,98,0.16,,,0.45,VWS V14.01,2013-03-12 01:19:00,
2013-03-11 21:20:00,32.7,32.2,28.70,WSW,248,2.9,4.0,98,0.09,,,0.54,VWS V14.01,2013-03-12 01:20:00,
2013-03-11 21:21:00,32.7,32.2,28.70,WSW,248,5.4,5.4,98,0.09,,,0.54,VWS V14.01,2013-03-12 01:21:00,
2013-03-11 21:22:00,32.7,32.2,28.67,WSW,248,5.6,5.6,98,0.09,,,0.54,VWS V14.01,2013-03-12 01:22:00,
2013-03-11 21:24:00,34.7,34.2,28.67,WSW,248,4.3,5.6,98,0.16,,,0.45,VWS V14.01,2013-03-12 01:24:00,
2013-03-11 21:25:00,32.7,32.2,28.67,WSW,248,6.7,6.7,98,0.09,,,0.54,VWS V14.01,2013-03-12 01:25:00,
2013-03-11 21:26:00,32.7,32.2,28.67,WSW,248,6.3,7.2,98,0.09,,,0.54,VWS V14.01,2013-03-12 01:26:00,
2013-03-11 21:27:00,32.7,32.2,28.67,WSW,248,6.3,8.7,98,0.09,,,0.54,VWS V14.01,2013-03-12 01:27:00,
2013-03-11 21:28:00,32.7,32.2,28.67,WSW,248,4.0,6.3,98,0.09,,,0.54,VWS V14.01,2013-03-12 01:28:00,
2013-03-11 21:29:00,32.5,32.0,28.67,WSW,248,7.8,7.8,98,0.09,,,0.54,VWS V14.01,2013-03-12 01:29:00,
2013-03-11 21:30:00,34.7,34.2,28.67,WSW,248,5.4,5.4,98,0.12,,,0.45,VWS V14.01,2013-03-12 01:30:00,
2013-03-11 21:31:00,32.5,32.0,28.67,WSW,248,5.4,7.8,98,0.09,,,0.54,VWS V14.01,2013-03-12 01:31:00,
2013-03-11 21:32:00,32.5,32.0,28.67,WSW,248,5.8,5.8,98,0.04,,,0.54,VWS V14.01,2013-03-12 01:32:00,
2013-03-11 21:33:00,32.5,32.0,28.67,WSW,248,4.3,6.5,98,0.04,,,0.54,VWS V14.01,2013-03-12 01:33:00,
2013-03-11 21:34:00,32.5,32.0,28.67,WSW,248,7.4,7.6,98,0.04,,,0.54,VWS V14.01,2013-03-12 01:34:00,
2013-03-11 21:35:00,34.5,34.0,28.67,WSW,248,5.6,6.5,98,0.17,,,0.50,VWS V14.01,2013-03-12 01:35:00,
2013-03-11 21:36:00,32.5,32.0,28.67,WSW,248,7.6,7.6,98,0.04,,,0.54,VWS V14.01,2013-03-12 01:36:00,
2013-03-11 21:37:00,32.5,32.0,28.67,WSW,248,6.3,7.6,98,0.04,,,0.54,VWS V14.01,2013-03-12 01:37:00,
2013-03-11 21:38:00,32.5,32.0,28.67,WSW,248,3.8,6.3,98,0.04,,,0.54,VWS V14.01,2013-03-12 01:38:00,
2013-03-11 21:39:00,32.5,32.0,28.67,WSW,248,6.3,7.2,98,0.04,,,0.54,VWS V14.01,2013-03-12 01:39:00,
2013-03-11 21:40:00,34.5,34.0,28.67,WSW,248,4.0,6.0,98,0.13,,,0.50,VWS V14.01,2013-03-12 01:40:00,
2013-03-11 21:41:00,32.5,32.0,28.67,WSW,248,5.8,7.2,98,0.04,,,0.54,VWS V14.01,2013-03-12 01:41:00,
2013-03-11 21:42:00,32.5,32.0,28.67,WSW,248,6.0,7.4,98,0.04,,,0.54,VWS V14.01,2013-03-12 01:42:00,
2013-03-11 21:43:00,32.5,32.0,28.67,WSW,248,5.6,7.4,98,0.04,,,0.54,VWS V14.01,2013-03-12 01:43:00,
2013-03-11 21:44:00,32.5,32.0,28.67,WSW,248,6.5,7.6,98,0.04,,,0.54,VWS V14.01,2013-03-12 01:44:00,
2013-03-11 21:45:00,34.3,33.8,28.67,WSW,248,3.6,4.3,98,0.17,,,0.54,VWS V14.01,2013-03-12 01:45:00,
2013-03-11 21:46:00,32.5,32.0,28.67,WSW,248,6.5,7.4,98,0.00,,,0.54,VWS V14.01,2013-03-12 01:46:00,
2013-03-11 21:47:00,32.5,32.0,28.67,WSW,248,6.5,6.5,98,0.00,,,0.54,VWS V14.01,2013-03-12 01:47:00,
2013-03-11 21:48:00,32.5,32.0,28.67,WSW,248,6.0,6.5,98,0.00,,,0.54,VWS V14.01,2013-03-12 01:48:00,
2013-03-11 21:49:00,32.5,32.0,28.67,WSW,248,10.3,10.3,98,0.00,,,0.54,VWS V14.01,2013-03-12 01:49:00,
2013-03-11 21:50:00,34.0,33.5,28.67,SW,225,3.1,4.3,98,0.17,,,0.54,VWS V14.01,2013-03-12 01:50:00,
2013-03-11 21:51:00,32.5,32.0,28.67,WSW,248,9.8,9.8,98,0.00,,,0.54,VWS V14.01,2013-03-12 01:51:00,
2013-03-11 21:52:00,32.5,32.0,28.67,WSW,248,8.5,9.8,98,0.00,,,0.54,VWS V14.01,2013-03-12 01:52:00,
2013-03-11 21:53:00,32.5,32.0,28.67,WSW,248,8.1,12.1,98,0.00,,,0.54,VWS V14.01,2013-03-12 01:53:00,
2013-03-11 21:54:00,32.5,32.0,28.67,WSW,248,6.5,10.3,98,0.00,,,0.54,VWS V14.01,2013-03-12 01:54:00,
2013-03-11 21:55:00,33.6,33.1,28.67,SW,225,4.0,4.7,98,0.17,,,0.54,VWS V14.01,2013-03-12 01:55:00,
2013-03-11 21:56:00,32.5,32.0,28.67,WSW,248,5.8,6.3,98,0.00,,,0.54,VWS V14.01,2013-03-12 01:56:00,
2013-03-11 21:57:00,32.5,32.0,28.67,WSW,248,10.1,10.1,98,0.00,,,0.54,VWS V14.01,2013-03-12 01:57:00,
2013-03-11 21:58:00,32.5,32.0,28.67,WSW,248,10.1,10.1,98,0.00,,,0.54,VWS V14.01,2013-03-12 01:58:00,
2013-03-11 21:59:00,32.5,32.0,28.67,WSW,248,6.0,10.1,98,0.00,,,0.54,VWS V14.01,2013-03-12 01:59:00,
2013-03-11 22:00:00,33.3,32.8,28.67,WSW,248,4.9,7.2,98,0.13,,,0.54,VWS V14.01,2013-03-12 02:00:00,
2013-03-11 22:01:00,32.4,31.9,28.67,WSW,248,10.7,11.0,98,0.00,,,0.54,VWS V14.01,2013-03-12 02:01:00,
2013-03-11 22:02:00,32.4,31.9,28.67,WSW,248,5.8,12.8,98,0.00,,,0.54,VWS V14.01,2013-03-12 02:02:00,
2013-03-11 22:03:00,32.4,31.9,28.67,WSW,248,7.8,10.1,98,0.00,,,0.54,VWS V14.01,2013-03-12 02:03:00,
2013-03-11 22:04:00,32.4,31.9,28.67,WSW,248,13.0,13.2,98,0.00,,,0.54,VWS V14.01,2013-03-12 02:04:00,
2013-03-11 22:05:00,33.3,32.8,28.67,WSW,248,3.1,4.3,98,0.13,,,0.54,VWS V14.01,2013-03-12 02:05:00,
2013-03-11 22:06:00,32.4,31.9,28.67,WSW,248,6.3,10.7,98,0.00,,,0.54,VWS V14.01,2013-03-12 02:06:00,
2013-03-11 22:07:00,32.4,31.9,28.67,WSW,248,7.6,7.6,98,0.00,,,0.54,VWS V14.01,2013-03-12 02:07:00,
2013-03-11 22:08:00,32.4,31.9,28.67,WSW,248,7.6,8.5,98,0.00,,,0.54,VWS V14.01,2013-03-12 02:08:00,
2013-03-11 22:09:00,32.4,31.9,28.67,WSW,248,13.0,13.0,98,0.00,,,0.54,VWS V14.01,2013-03-12 02:09:00,
2013-03-11 22:10:00,32.4,31.9,28.67,WSW,248,6.5,13.0,98,0.00,,,0.54,VWS V14.01,2013-03-12 02:10:00,
2013-03-11 22:11:00,32.9,32.4,28.70,WSW,248,4.0,5.4,98,0.13,,,0.54,VWS V14.01,2013-03-12 02:11:00,
2013-03-11 22:12:00,32.4,31.9,28.67,WSW,248,4.3,13.2,98,0.00,,,0.54,VWS V14.01,2013-03-12 02:12:00,
2013-03-11 22:13:00,32.4,31.9,28.67,WSW,248,10.1,15.2,98,0.00,,,0.54,VWS V14.01,2013-03-12 02:13:00,
2013-03-11 22:14:00,32.4,31.9,28.67,WSW,248,10.7,10.7,98,0.00,,,0.54,VWS V14.01,2013-03-12 02:14:00,
2013-03-11 22:15:00,32.4,31.9,28.67,WSW,248,8.1,10.7,98,0.00,,,0.54,VWS V14.01,2013-03-12 02:15:00,
2013-03-11 22:16:00,32.9,32.4,28.70,WSW,248,3.1,4.0,98,0.09,,,0.54,VWS V14.01,2013-03-12 02:16:00,
2013-03-11 22:17:00,32.2,31.7,28.67,WSW,248,8.7,17.0,98,0.00,,,0.54,VWS V14.01,2013-03-12 02:17:00,
2013-03-11 22:18:00,32.2,31.7,28.67,WSW,248,4.3,10.5,98,0.00,,,0.54,VWS V14.01,2013-03-12 02:18:00,
2013-03-11 22:19:00,32.2,31.7,28.67,WSW,248,7.2,10.3,98,0.00,,,0.54,VWS V14.01,2013-03-12 02:19:00,
2013-03-11 22:20:00,32.2,31.7,28.67,WSW,248,7.6,7.8,98,0.00,,,0.54,VWS V14.01,2013-03-12 02:20:00,
2013-03-11 22:21:00,32.7,32.2,28.70,WSW,248,5.4,5.4,98,0.09,,,0.54,VWS V14.01,2013-03-12 02:21:00,
2013-03-11 22:22:00,32.2,31.7,28.67,WSW,248,5.6,8.7,98,0.00,,,0.54,VWS V14.01,2013-03-12 02:22:00,
2013-03-11 22:23:00,32.2,31.7,28.70,WSW,248,9.6,9.6,98,0.00,,,0.54,VWS V14.01,2013-03-12 02:23:00,
2013-03-11 22:24:00,32.2,31.7,28.70,WSW,248,9.6,9.6,98,0.00,,,0.54,VWS V14.01,2013-03-12 02:24:00,
2013-03-11 22:25:00,32.2,31.7,28.70,WSW,248,10.3,14.1,98,0.00,,,0.54,VWS V14.01,2013-03-12 02:25:00,
2013-03-11 22:27:00,32.7,32.2,28.67,WSW,248,6.3,8.7,98,0.09,,,0.54,VWS V14.01,2013-03-12 02:27:00,
2013-03-11 22:28:00,32.2,31.7,28.70,WSW,248,10.5,10.5,98,0.00,,,0.54,VWS V14.01,2013-03-12 02:28:00,
2013-03-11 22:29:00,32.2,31.7,28.70,WSW,248,12.3,12.3,98,0.00,,,0.54,VWS V14.01,2013-03-12 02:29:00,
2013-03-11 22:30:00,32.2,31.7,28.70,WSW,248,5.6,12.3,98,0.00,,,0.54,VWS V14.01,2013-03-12 02:30:00,
2013-03-11 22:31:00,32.2,31.7,28.70,WSW,248,5.6,5.6,98,0.00,,,0.54,VWS V14.01,2013-03-12 02:31:00,
2013-03-11 22:32:00,32.5,32.0,28.67,WSW,248,6.3,6.5,98,0.04,,,0.54,VWS V14.01,2013-03-12 02:32:00,
2013-03-11 22:33:00,32.2,31.7,28.70,WSW,248,10.3,12.8,98,0.00,,,0.54,VWS V14.01,2013-03-12 02:33:00,
2013-03-11 22:34:00,32.2,31.7,28.70,WSW,248,10.3,12.8,98,0.00,,,0.54,VWS V14.01,2013-03-12 02:34:00,
2013-03-11 22:35:00,32.2,31.7,28.70,WSW,248,8.7,10.3,98,0.00,,,0.54,VWS V14.01,2013-03-12 02:35:00,
2013-03-11 22:36:00,32.2,31.7,28.70,WSW,248,7.8,10.1,98,0.00,,,0.54,VWS V14.01,2013-03-12 02:36:00,
2013-03-11 22:37:00,32.5,32.0,28.67,WSW,248,5.6,6.3,98,0.04,,,0.54,VWS V14.01,2013-03-12 02:37:00,
2013-03-11 22:38:00,32.2,31.7,28.70,WSW,248,8.7,8.7,98,0.00,,,0.54,VWS V14.01,2013-03-12 02:38:00,
2013-03-11 22:39:00,32.2,31.7,28.70,WSW,248,8.7,8.7,98,0.00,,,0.54,VWS V14.01,2013-03-12 02:39:00,
2013-03-11 22:40:00,32.0,31.5,28.70,WSW,248,10.3,13.2,98,0.00,,,0.54,VWS V14.01,2013-03-12 02:40:00,
2013-03-11 22:41:00,32.0,31.5,28.70,WSW,248,12.3,12.8,98,0.00,,,0.54,VWS V14.01,2013-03-12 02:41:00,
2013-03-11 22:42:00,32.5,32.0,28.67,WSW,248,7.4,7.4,98,0.04,,,0.54,VWS V14.01,2013-03-12 02:42:00,
2013-03-11 22:43:00,32.0,31.5,28.70,WSW,248,17.5,17.5,98,0.00,,,0.54,VWS V14.01,2013-03-12 02:43:00,
2013-03-11 22:44:00,31.8,31.3,28.70,WSW,248,10.7,17.5,98,0.00,,,0.54,VWS V14.01,2013-03-12 02:44:00,
2013-03-11 22:45:00,31.8,31.3,28.70,WSW,248,5.6,10.7,98,0.00,,,0.54,VWS V14.01,2013-03-12 02:45:00,
2013-03-11 22:46:00,31.8,31.3,28.70,WSW,248,10.1,10.1,98,0.00,,,0.54,VWS V14.01,2013-03-12 02:46:00,
2013-03-11 22:47:00,31.6,31.1,28.70,WSW,248,12.8,12.8,98,0.00,,,0.54,VWS V14.01,2013-03-12 02:47:00,
2013-03-11 22:48:00,32.5,32.0,28.67,WSW,248,5.4,6.5,98,0.00,,,0.54,VWS V14.01,2013-03-12 02:48:00,
2013-03-11 22:49:00,31.6,31.1,28.70,WSW,248,12.8,12.8,98,0.00,,,0.54,VWS V14.01,2013-03-12 02:49:00,
2013-03-11 22:50:00,31.6,31.1,28.70,WSW,248,7.6,12.8,98,0.00,,,0.54,VWS V14.01,2013-03-12 02:50:00,
2013-03-11 22:51:00,31.6,31.1,28.70,WSW,248,10.7,10.7,98,0.00,,,0.54,VWS V14.01,2013-03-12 02:51:00,
2013-03-11 22:52:00,31.6,31.1,28.73,WSW,248,10.7,10.7,98,0.00,,,0.54,VWS V14.01,2013-03-12 02:52:00,
2013-03-11 22:53:00,32.5,32.0,28.67,WSW,248,8.1,12.1,98,0.00,,,0.54,VWS V14.01,2013-03-12 02:53:00,
2013-03-11 22:54:00,31.5,31.0,28.73,WSW,248,14.8,14.8,98,0.00,,,0.54,VWS V14.01,2013-03-12 02:54:00,
2013-03-11 22:55:00,31.5,31.0,28.73,WSW,248,5.4,14.8,98,0.00,,,0.54,VWS V14.01,2013-03-12 02:55:00,
2013-03-11 22:56:00,31.5,31.0,28.73,WSW,248,8.5,11.2,98,0.00,,,0.54,VWS V14.01,2013-03-12 02:56:00,
2013-03-11 22:57:00,31.5,31.0,28.73,WSW,248,13.0,15.2,98,0.00,,,0.54,VWS V14.01,2013-03-12 02:57:00,
2013-03-11 22:58:00,32.5,32.0,28.67,WSW,248,10.1,10.1,98,0.00,,,0.54,VWS V14.01,2013-03-12 02:58:00,
2013-03-11 22:59:00,31.5,31.0,28.73,WSW,248,11.4,11.4,98,0.00,,,0.54,VWS V14.01,2013-03-12 02:59:00,
2013-03-11 23:00:00,31.5,31.0,28.73,WSW,248,11.9,13.2,98,0.00,,,0.54,VWS V14.01,2013-03-12 03:00:00,
2013-03-11 23:02:00,31.5,31.0,28.73,WSW,248,11.9,11.9,98,0.00,,,0.54,VWS V14.01,2013-03-12 03:02:00,
2013-03-11 23:03:00,32.4,31.9,28.67,WSW,248,7.8,10.1,98,0.00,,,0.54,VWS V14.01,2013-03-12 03:03:00,
2013-03-11 23:04:00,31.5,31.0,28.73,WSW,248,10.7,10.7,98,0.00,,,0.54,VWS V14.01,2013-03-12 03:04:00,
2013-03-11 23:05:00,31.5,31.0,28.73,WSW,248,10.7,10.7,98,0.00,,,0.54,VWS V14.01,2013-03-12 03:05:00,
2013-03-11 23:06:00,31.5,31.0,28.73,WSW,248,7.8,10.7,98,0.00,,,0.54,VWS V14.01,2013-03-12 03:06:00,
2013-03-11 23:07:00,31.5,31.0,28.73,WSW,248,6.3,10.7,98,0.00,,,0.54,VWS V14.01,2013-03-12 03:07:00,
2013-03-11 23:08:00,32.4,31.9,28.67,WSW,248,7.6,8.5,98,0.00,,,0.54,VWS V14.01,2013-03-12 03:08:00,
2013-03-11 23:09:00,31.5,31.0,28.73,WSW,248,12.1,13.4,98,0.00,,,0.54,VWS V14.01,2013-03-12 03:09:00,
2013-03-11 23:10:00,31.3,30.8,28.73,WSW,248,8.7,12.1,98,0.00,,,0.54,VWS V14.01,2013-03-12 03:10:00,
2013-03-11 23:11:00,31.3,30.8,28.73,WSW,248,10.7,12.1,98,0.00,,,0.54,VWS V14.01,2013-03-12 03:11:00,
2013-03-11 23:12:00,31.3,30.8,28.73,WSW,248,17.0,17.0,98,0.00,,,0.54,VWS V14.01,2013-03-12 03:12:00,
2013-03-11 23:13:00,32.4,31.9,28.67,WSW,248,10.1,15.2,98,0.00,,,0.54,VWS V14.01,2013-03-12 03:13:00,
2013-03-11 23:14:00,31.3,30.8,28.73,WSW,248,9.8,12.8,98,0.00,,,0.54,VWS V14.01,2013-03-12 03:14:00,
2013-03-11 23:15:00,31.3,30.8,28.73,WSW,248,11.2,12.8,98,0.00,,,0.54,VWS V14.01,2013-03-12 03:15:00,
2013-03-11 23:16:00,31.3,30.8,28.73,WSW,248,8.5,10.5,98,0.00,,,0.54,VWS V14.01,2013-03-12 03:16:00,
2013-03-11 23:17:00,31.3,30.8,28.73,WSW,248,8.5,11.0,98,0.00,,,0.54,VWS V14.01,2013-03-12 03:17:00,
2013-03-11 23:18:00,32.2,31.7,28.67,WSW,248,8.5,10.3,98,0.00,,,0.54,VWS V14.01,2013-03-12 03:18:00,
2013-03-11 23:19:00,31.1,30.6,28.73,WSW,248,7.4,14.5,98,0.00,,,0.54,VWS V14.01,2013-03-12 03:19:00,
2013-03-11 23:20:00,31.1,30.6,28.73,WSW,248,11.9,11.9,98,0.00,,,0.54,VWS V14.01,2013-03-12 03:20:00,
2013-03-11 23:22:00,31.1,30.6,28.73,WSW,248,10.5,11.9,98,0.00,,,0.54,VWS V14.01,2013-03-12 03:22:00,
2013-03-11 23:23:00,32.2,31.7,28.70,WSW,248,9.6,9.6,98,0.00,,,0.54,VWS V14.01,2013-03-12 03:23:00,
2013-03-11 23:24:00,31.1,30.6,28.70,WSW,248,8.7,15.2,98,0.00,,,0.54,VWS V14.01,2013-03-12 03:24:00,
2013-03-11 23:25:00,31.1,30.6,28.70,WSW,248,8.1,8.7,98,0.00,,,0.54,VWS V14.01,2013-03-12 03:25:00,
2013-03-11 23:26:00,31.1,30.6,28.70,WSW,248,12.3,12.3,98,0.00,,,0.54,VWS V14.01,2013-03-12 03:26:00,
2013-03-11 23:27:00,31.1,30.6,28.70,WSW,248,12.3,12.3,98,0.00,,,0.54,VWS V14.01,2013-03-12 03:27:00,
2013-03-11 23:28:00,32.2,31.7,28.70,WSW,248,10.7,10.7,98,0.00,,,0.54,VWS V14.01,2013-03-12 03:28:00,
2013-03-11 23:29:00,31.1,30.6,28.70,WSW,248,14.3,14.3,98,0.00,,,0.54,VWS V14.01,2013-03-12 03:29:00,
2013-03-11 23:30:00,30.9,30.4,28.70,WSW,248,7.6,14.3,98,0.00,,,0.54,VWS V14.01,2013-03-12 03:30:00,
2013-03-11 23:31:00,31.1,30.6,28.70,WSW,248,8.1,9.0,98,0.00,,,0.54,VWS V14.01,2013-03-12 03:31:00,
2013-03-11 23:32:00,31.1,30.6,28.70,WSW,248,9.6,9.6,98,0.00,,,0.54,VWS V14.01,2013-03-12 03:32:00,
2013-03-11 23:33:00,32.2,31.7,28.70,WSW,248,12.8,12.8,98,0.00,,,0.54,VWS V14.01,2013-03-12 03:33:00,
2013-03-11 23:34:00,30.9,30.4,28.70,WSW,248,12.8,15.9,98,0.00,,,0.54,VWS V14.01,2013-03-12 03:34:00,
2013-03-11 23:35:00,30.9,30.4,28.70,WSW,248,8.7,15.9,98,0.00,,,0.54,VWS V14.01,2013-03-12 03:35:00,
2013-03-11 23:36:00,30.9,30.4,28.70,WSW,248,7.6,9.6,98,0.00,,,0.54,VWS V14.01,2013-03-12 03:36:00,
2013-03-11 23:37:00,30.9,30.4,28.73,WSW,248,12.1,12.8,98,0.00,,,0.54,VWS V14.01,2013-03-12 03:37:00,
2013-03-11 23:38:00,32.2,31.7,28.70,WSW,248,8.7,8.7,98,0.00,,,0.54,VWS V14.01,2013-03-12 03:38:00,
2013-03-11 23:39:00,30.9,30.4,28.73,WSW,248,8.5,13.0,98,0.00,,,0.54,VWS V14.01,2013-03-12 03:39:00,
2013-03-11 23:40:00,30.9,30.4,28.73,WSW,248,16.8,16.8,98,0.00,,,0.54,VWS V14.01,2013-03-12 03:40:00,
2013-03-11 23:41:00,30.9,30.4,28.73,WSW,248,12.8,16.8,98,0.00,,,0.54,VWS V14.01,2013-03-12 03:41:00,
2013-03-11 23:42:00,30.7,30.2,28.73,WSW,248,7.6,12.8,98,0.00,,,0.54,VWS V14.01,2013-03-12 03:42:00,
2013-03-11 23:43:00,31.8,31.3,28.70,WSW,248,11.0,17.5,98,0.00,,,0.54,VWS V14.01,2013-03-12 03:43:00,
2013-03-11 23:44:00,30.7,30.2,28.73,WSW,248,8.1,12.3,98,0.00,,,0.54,VWS V14.01,2013-03-12 03:44:00,
2013-03-11 23:45:00,30.7,30.2,28.73,WSW,248,7.6,12.3,98,0.00,,,0.54,VWS V14.01,2013-03-12 03:45:00,
2013-03-11 23:46:00,30.7,30.2,28.73,WSW,248,15.4,16.3,98,0.00,,,0.54,VWS V14.01,2013-03-12 03:46:00,
2013-03-11 23:47:00,30.7,30.2,28.73,WSW,248,10.7,16.3,98,0.00,,,0.54,VWS V14.01,2013-03-12 03:47:00,
2013-03-11 23:48:00,30.7,30.2,28.73,WSW,248,12.8,12.8,98,0.00,,,0.54,VWS V14.01,2013-03-12 03:48:00,
2013-03-11 23:49:00,31.6,31.1,28.70,WSW,248,12.1,12.1,98,0.00,,,0.54,VWS V14.01,2013-03-12 03:49:00,
2013-03-11 23:51:00,30.6,30.1,28.73,WSW,248,13.6,13.6,98,0.00,,,0.54,VWS V14.01,2013-03-12 03:51:00,
2013-03-11 23:52:00,30.6,30.1,28.73,WSW,248,9.4,13.6,98,0.00,,,0.54,VWS V14.01,2013-03-12 03:52:00,
2013-03-11 23:53:00,30.6,30.1,28.73,WSW,248,8.1,9.4,98,0.00,,,0.54,VWS V14.01,2013-03-12 03:53:00,
2013-03-11 23:54:00,31.5,31.0,28.73,WSW,248,14.8,14.8,98,0.00,,,0.54,VWS V14.01,2013-03-12 03:54:00,
2013-03-11 23:55:00,30.6,30.1,28.76,WSW,248,12.5,14.5,98,0.00,,,0.54,VWS V14.01,2013-03-12 03:55:00,
2013-03-11 23:56:00,30.6,30.1,28.76,WSW,248,7.4,13.4,98,0.00,,,0.54,VWS V14.01,2013-03-12 03:56:00,
2013-03-11 23:57:00,30.6,30.1,28.76,WSW,248,8.1,14.3,98,0.00,,,0.54,VWS V14.01,2013-03-12 03:57:00,
2013-03-11 23:58:00,30.6,30.1,28.76,WSW,248,7.8,8.1,98,0.00,,,0.54,VWS V14.01,2013-03-12 03:58:00,
2013-03-11 23:59:00,31.5,31.0,28.73,WSW,248,11.4,11.4,98,0.00,,,0.54,VWS V14.01,2013-03-12 03:59:00,